<?xml version="1.0" encoding="UTF-8" standalone="no" ?>
<gpx xmlns="http://www.topografix.com/GPX/1/1" xmlns:xsi="http://www.w3.org/2001/XMLSchema-instance" xsi:schemaLocation="http://www.topografix.com/GPX/1/1 http://www.topografix.com/GPX/1/1/gpx.xsd" version="1.1" creator="VisuGPX - https://www.visugpx.com">
  <metadata>
    <name>M.Creusa da Folchi</name>
    <desc><![CDATA[
]]></desc>
  </metadata>
  <trk>
    <name><![CDATA[2020-01-27 14:37:53]]></name>
    <trkseg>
      <trkpt lat="44.21131" lon="7.51768">
        <ele>1047.97</ele>
        <time>2020-01-27T07:49:11Z</time>
      </trkpt>
      <trkpt lat="44.21132" lon="7.51765">
        <ele>1052.78</ele>
        <time>2020-01-27T07:49:24Z</time>
      </trkpt>
      <trkpt lat="44.21134" lon="7.51763">
        <ele>1034.52</ele>
        <time>2020-01-27T07:49:41Z</time>
      </trkpt>
      <trkpt lat="44.21134" lon="7.51765">
        <ele>1035</ele>
        <time>2020-01-27T07:49:46Z</time>
      </trkpt>
      <trkpt lat="44.21125" lon="7.51763">
        <ele>1034.52</ele>
        <time>2020-01-27T07:49:57Z</time>
      </trkpt>
      <trkpt lat="44.2112" lon="7.51761">
        <ele>1032.11</ele>
        <time>2020-01-27T07:50:18Z</time>
      </trkpt>
      <trkpt lat="44.21122" lon="7.51761">
        <ele>1030.19</ele>
        <time>2020-01-27T07:50:47Z</time>
      </trkpt>
      <trkpt lat="44.21123" lon="7.51761">
        <ele>1029.71</ele>
        <time>2020-01-27T07:51:17Z</time>
      </trkpt>
      <trkpt lat="44.21123" lon="7.51758">
        <ele>1027.31</ele>
        <time>2020-01-27T07:51:45Z</time>
      </trkpt>
      <trkpt lat="44.21121" lon="7.51754">
        <ele>1029.71</ele>
        <time>2020-01-27T07:52:25Z</time>
      </trkpt>
      <trkpt lat="44.21123" lon="7.51756">
        <ele>1035.48</ele>
        <time>2020-01-27T07:52:58Z</time>
      </trkpt>
      <trkpt lat="44.21121" lon="7.51755">
        <ele>1035.96</ele>
        <time>2020-01-27T07:53:41Z</time>
      </trkpt>
      <trkpt lat="44.21123" lon="7.51761">
        <ele>1036.44</ele>
        <time>2020-01-27T07:54:03Z</time>
      </trkpt>
      <trkpt lat="44.21125" lon="7.51763">
        <ele>1033.55</ele>
        <time>2020-01-27T07:54:27Z</time>
      </trkpt>
      <trkpt lat="44.21123" lon="7.51763">
        <ele>1034.52</ele>
        <time>2020-01-27T07:54:50Z</time>
      </trkpt>
      <trkpt lat="44.21126" lon="7.51763">
        <ele>1035.48</ele>
        <time>2020-01-27T07:55:15Z</time>
      </trkpt>
      <trkpt lat="44.21121" lon="7.51764">
        <ele>1038.36</ele>
        <time>2020-01-27T07:55:36Z</time>
      </trkpt>
      <trkpt lat="44.21123" lon="7.51764">
        <ele>1039.32</ele>
        <time>2020-01-27T07:56:01Z</time>
      </trkpt>
      <trkpt lat="44.21124" lon="7.51761">
        <ele>1038.84</ele>
        <time>2020-01-27T07:56:38Z</time>
      </trkpt>
      <trkpt lat="44.21125" lon="7.5176">
        <ele>1038.36</ele>
        <time>2020-01-27T07:56:46Z</time>
      </trkpt>
      <trkpt lat="44.21126" lon="7.5176">
        <ele>1038.84</ele>
        <time>2020-01-27T07:56:57Z</time>
      </trkpt>
      <trkpt lat="44.21125" lon="7.51763">
        <ele>1038.36</ele>
        <time>2020-01-27T07:57:06Z</time>
      </trkpt>
      <trkpt lat="44.21124" lon="7.51763">
        <ele>1038.36</ele>
        <time>2020-01-27T07:57:07Z</time>
      </trkpt>
      <trkpt lat="44.21116" lon="7.51766">
        <ele>1038.36</ele>
        <time>2020-01-27T07:57:17Z</time>
      </trkpt>
      <trkpt lat="44.21114" lon="7.51769">
        <ele>1038.36</ele>
        <time>2020-01-27T07:57:19Z</time>
      </trkpt>
      <trkpt lat="44.21111" lon="7.51771">
        <ele>1038.84</ele>
        <time>2020-01-27T07:57:22Z</time>
      </trkpt>
      <trkpt lat="44.21108" lon="7.51775">
        <ele>1039.32</ele>
        <time>2020-01-27T07:57:35Z</time>
      </trkpt>
      <trkpt lat="44.21109" lon="7.51776">
        <ele>1040.76</ele>
        <time>2020-01-27T07:57:48Z</time>
      </trkpt>
      <trkpt lat="44.21109" lon="7.51774">
        <ele>1041.25</ele>
        <time>2020-01-27T07:57:59Z</time>
      </trkpt>
      <trkpt lat="44.21107" lon="7.51773">
        <ele>1041.25</ele>
        <time>2020-01-27T07:58:19Z</time>
      </trkpt>
      <trkpt lat="44.21106" lon="7.51773">
        <ele>1040.28</ele>
        <time>2020-01-27T07:58:33Z</time>
      </trkpt>
      <trkpt lat="44.21107" lon="7.51775">
        <ele>1040.76</ele>
        <time>2020-01-27T07:58:47Z</time>
      </trkpt>
      <trkpt lat="44.21107" lon="7.51776">
        <ele>1041.25</ele>
        <time>2020-01-27T07:59:01Z</time>
      </trkpt>
      <trkpt lat="44.21102" lon="7.5178">
        <ele>1041.25</ele>
        <time>2020-01-27T07:59:14Z</time>
      </trkpt>
      <trkpt lat="44.21096" lon="7.51785">
        <ele>1043.65</ele>
        <time>2020-01-27T07:59:27Z</time>
      </trkpt>
      <trkpt lat="44.21085" lon="7.51786">
        <ele>1045.57</ele>
        <time>2020-01-27T07:59:39Z</time>
      </trkpt>
      <trkpt lat="44.21085" lon="7.51786">
        <ele>1046.05</ele>
        <time>2020-01-27T07:59:41Z</time>
      </trkpt>
      <trkpt lat="44.21079" lon="7.51791">
        <ele>1046.05</ele>
        <time>2020-01-27T07:59:54Z</time>
      </trkpt>
      <trkpt lat="44.21068" lon="7.51796">
        <ele>1047.97</ele>
        <time>2020-01-27T08:00:08Z</time>
      </trkpt>
      <trkpt lat="44.21062" lon="7.51804">
        <ele>1047.01</ele>
        <time>2020-01-27T08:00:19Z</time>
      </trkpt>
      <trkpt lat="44.21065" lon="7.51816">
        <ele>1048.94</ele>
        <time>2020-01-27T08:00:30Z</time>
      </trkpt>
      <trkpt lat="44.21066" lon="7.51823">
        <ele>1047.49</ele>
        <time>2020-01-27T08:00:42Z</time>
      </trkpt>
      <trkpt lat="44.21067" lon="7.51828">
        <ele>1046.05</ele>
        <time>2020-01-27T08:00:56Z</time>
      </trkpt>
      <trkpt lat="44.21068" lon="7.5183">
        <ele>1047.49</ele>
        <time>2020-01-27T08:01:07Z</time>
      </trkpt>
      <trkpt lat="44.21069" lon="7.51834">
        <ele>1048.45</ele>
        <time>2020-01-27T08:01:16Z</time>
      </trkpt>
      <trkpt lat="44.21069" lon="7.51843">
        <ele>1048.45</ele>
        <time>2020-01-27T08:01:27Z</time>
      </trkpt>
      <trkpt lat="44.21069" lon="7.51852">
        <ele>1049.42</ele>
        <time>2020-01-27T08:01:37Z</time>
      </trkpt>
      <trkpt lat="44.21071" lon="7.51858">
        <ele>1050.38</ele>
        <time>2020-01-27T08:01:43Z</time>
      </trkpt>
      <trkpt lat="44.21073" lon="7.51865">
        <ele>1049.9</ele>
        <time>2020-01-27T08:01:54Z</time>
      </trkpt>
      <trkpt lat="44.21071" lon="7.51878">
        <ele>1050.86</ele>
        <time>2020-01-27T08:02:07Z</time>
      </trkpt>
      <trkpt lat="44.21069" lon="7.51888">
        <ele>1053.26</ele>
        <time>2020-01-27T08:02:18Z</time>
      </trkpt>
      <trkpt lat="44.21069" lon="7.51889">
        <ele>1053.74</ele>
        <time>2020-01-27T08:02:19Z</time>
      </trkpt>
      <trkpt lat="44.21066" lon="7.51895">
        <ele>1055.18</ele>
        <time>2020-01-27T08:02:26Z</time>
      </trkpt>
      <trkpt lat="44.21061" lon="7.51902">
        <ele>1057.11</ele>
        <time>2020-01-27T08:02:37Z</time>
      </trkpt>
      <trkpt lat="44.21061" lon="7.51915">
        <ele>1059.51</ele>
        <time>2020-01-27T08:02:49Z</time>
      </trkpt>
      <trkpt lat="44.21068" lon="7.51923">
        <ele>1059.99</ele>
        <time>2020-01-27T08:03:04Z</time>
      </trkpt>
      <trkpt lat="44.21072" lon="7.51924">
        <ele>1061.91</ele>
        <time>2020-01-27T08:03:13Z</time>
      </trkpt>
      <trkpt lat="44.2107" lon="7.51927">
        <ele>1062.87</ele>
        <time>2020-01-27T08:03:23Z</time>
      </trkpt>
      <trkpt lat="44.21063" lon="7.51933">
        <ele>1064.8</ele>
        <time>2020-01-27T08:03:35Z</time>
      </trkpt>
      <trkpt lat="44.21056" lon="7.5194">
        <ele>1067.2</ele>
        <time>2020-01-27T08:03:47Z</time>
      </trkpt>
      <trkpt lat="44.21048" lon="7.5195">
        <ele>1070.57</ele>
        <time>2020-01-27T08:04:00Z</time>
      </trkpt>
      <trkpt lat="44.21042" lon="7.51955">
        <ele>1076.81</ele>
        <time>2020-01-27T08:04:11Z</time>
      </trkpt>
      <trkpt lat="44.21035" lon="7.51963">
        <ele>1080.18</ele>
        <time>2020-01-27T08:04:23Z</time>
      </trkpt>
      <trkpt lat="44.21026" lon="7.51968">
        <ele>1084.99</ele>
        <time>2020-01-27T08:04:35Z</time>
      </trkpt>
      <trkpt lat="44.21017" lon="7.5198">
        <ele>1085.95</ele>
        <time>2020-01-27T08:04:48Z</time>
      </trkpt>
      <trkpt lat="44.21009" lon="7.51992">
        <ele>1089.79</ele>
        <time>2020-01-27T08:05:03Z</time>
      </trkpt>
      <trkpt lat="44.21004" lon="7.52002">
        <ele>1093.16</ele>
        <time>2020-01-27T08:05:15Z</time>
      </trkpt>
      <trkpt lat="44.20998" lon="7.52014">
        <ele>1094.6</ele>
        <time>2020-01-27T08:05:28Z</time>
      </trkpt>
      <trkpt lat="44.20991" lon="7.52029">
        <ele>1087.39</ele>
        <time>2020-01-27T08:05:42Z</time>
      </trkpt>
      <trkpt lat="44.20987" lon="7.52038">
        <ele>1085.95</ele>
        <time>2020-01-27T08:05:49Z</time>
      </trkpt>
      <trkpt lat="44.20983" lon="7.52043">
        <ele>1086.91</ele>
        <time>2020-01-27T08:05:59Z</time>
      </trkpt>
      <trkpt lat="44.20982" lon="7.52045">
        <ele>1086.91</ele>
        <time>2020-01-27T08:06:02Z</time>
      </trkpt>
      <trkpt lat="44.20979" lon="7.52049">
        <ele>1087.87</ele>
        <time>2020-01-27T08:06:07Z</time>
      </trkpt>
      <trkpt lat="44.20976" lon="7.52051">
        <ele>1088.83</ele>
        <time>2020-01-27T08:06:11Z</time>
      </trkpt>
      <trkpt lat="44.20966" lon="7.5206">
        <ele>1087.39</ele>
        <time>2020-01-27T08:06:23Z</time>
      </trkpt>
      <trkpt lat="44.20959" lon="7.52071">
        <ele>1088.83</ele>
        <time>2020-01-27T08:06:38Z</time>
      </trkpt>
      <trkpt lat="44.20956" lon="7.52082">
        <ele>1088.83</ele>
        <time>2020-01-27T08:06:50Z</time>
      </trkpt>
      <trkpt lat="44.20952" lon="7.52096">
        <ele>1089.79</ele>
        <time>2020-01-27T08:07:02Z</time>
      </trkpt>
      <trkpt lat="44.20948" lon="7.52106">
        <ele>1094.12</ele>
        <time>2020-01-27T08:07:15Z</time>
      </trkpt>
      <trkpt lat="44.20942" lon="7.52119">
        <ele>1096.04</ele>
        <time>2020-01-27T08:07:29Z</time>
      </trkpt>
      <trkpt lat="44.20935" lon="7.52129">
        <ele>1097</ele>
        <time>2020-01-27T08:07:42Z</time>
      </trkpt>
      <trkpt lat="44.20927" lon="7.52136">
        <ele>1101.81</ele>
        <time>2020-01-27T08:07:54Z</time>
      </trkpt>
      <trkpt lat="44.20921" lon="7.5214">
        <ele>1109.5</ele>
        <time>2020-01-27T08:08:05Z</time>
      </trkpt>
      <trkpt lat="44.20917" lon="7.52141">
        <ele>1113.82</ele>
        <time>2020-01-27T08:08:13Z</time>
      </trkpt>
      <trkpt lat="44.20907" lon="7.52145">
        <ele>1114.79</ele>
        <time>2020-01-27T08:08:27Z</time>
      </trkpt>
      <trkpt lat="44.20903" lon="7.52149">
        <ele>1116.23</ele>
        <time>2020-01-27T08:08:33Z</time>
      </trkpt>
      <trkpt lat="44.20894" lon="7.52155">
        <ele>1122.96</ele>
        <time>2020-01-27T08:08:48Z</time>
      </trkpt>
      <trkpt lat="44.2089" lon="7.52164">
        <ele>1130.17</ele>
        <time>2020-01-27T08:09:00Z</time>
      </trkpt>
      <trkpt lat="44.20889" lon="7.52159">
        <ele>1137.86</ele>
        <time>2020-01-27T08:09:11Z</time>
      </trkpt>
      <trkpt lat="44.20896" lon="7.52149">
        <ele>1146.51</ele>
        <time>2020-01-27T08:09:25Z</time>
      </trkpt>
      <trkpt lat="44.20902" lon="7.52136">
        <ele>1151.8</ele>
        <time>2020-01-27T08:09:36Z</time>
      </trkpt>
      <trkpt lat="44.20904" lon="7.52119">
        <ele>1152.76</ele>
        <time>2020-01-27T08:09:48Z</time>
      </trkpt>
      <trkpt lat="44.209" lon="7.52115">
        <ele>1151.32</ele>
        <time>2020-01-27T08:09:53Z</time>
      </trkpt>
      <trkpt lat="44.20899" lon="7.5211">
        <ele>1148.91</ele>
        <time>2020-01-27T08:09:57Z</time>
      </trkpt>
      <trkpt lat="44.20898" lon="7.521">
        <ele>1147.47</ele>
        <time>2020-01-27T08:10:07Z</time>
      </trkpt>
      <trkpt lat="44.20897" lon="7.52099">
        <ele>1146.99</ele>
        <time>2020-01-27T08:10:08Z</time>
      </trkpt>
      <trkpt lat="44.20895" lon="7.52082">
        <ele>1146.51</ele>
        <time>2020-01-27T08:10:22Z</time>
      </trkpt>
      <trkpt lat="44.20894" lon="7.52068">
        <ele>1150.35</ele>
        <time>2020-01-27T08:10:33Z</time>
      </trkpt>
      <trkpt lat="44.20892" lon="7.52056">
        <ele>1152.76</ele>
        <time>2020-01-27T08:10:44Z</time>
      </trkpt>
      <trkpt lat="44.20888" lon="7.5204">
        <ele>1146.51</ele>
        <time>2020-01-27T08:10:59Z</time>
      </trkpt>
      <trkpt lat="44.20882" lon="7.52031">
        <ele>1138.82</ele>
        <time>2020-01-27T08:11:10Z</time>
      </trkpt>
      <trkpt lat="44.20876" lon="7.52018">
        <ele>1126.32</ele>
        <time>2020-01-27T08:11:23Z</time>
      </trkpt>
      <trkpt lat="44.20874" lon="7.52014">
        <ele>1124.88</ele>
        <time>2020-01-27T08:11:36Z</time>
      </trkpt>
      <trkpt lat="44.2087" lon="7.52003">
        <ele>1124.88</ele>
        <time>2020-01-27T08:11:48Z</time>
      </trkpt>
      <trkpt lat="44.20868" lon="7.51999">
        <ele>1124.4</ele>
        <time>2020-01-27T08:11:53Z</time>
      </trkpt>
      <trkpt lat="44.20864" lon="7.51982">
        <ele>1122.96</ele>
        <time>2020-01-27T08:12:07Z</time>
      </trkpt>
      <trkpt lat="44.20859" lon="7.51971">
        <ele>1123.44</ele>
        <time>2020-01-27T08:12:21Z</time>
      </trkpt>
      <trkpt lat="44.20853" lon="7.51959">
        <ele>1122.96</ele>
        <time>2020-01-27T08:12:34Z</time>
      </trkpt>
      <trkpt lat="44.20843" lon="7.51954">
        <ele>1126.8</ele>
        <time>2020-01-27T08:12:47Z</time>
      </trkpt>
      <trkpt lat="44.20834" lon="7.51958">
        <ele>1127.28</ele>
        <time>2020-01-27T08:12:59Z</time>
      </trkpt>
      <trkpt lat="44.20832" lon="7.5196">
        <ele>1127.28</ele>
        <time>2020-01-27T08:13:02Z</time>
      </trkpt>
      <trkpt lat="44.20823" lon="7.51969">
        <ele>1131.61</ele>
        <time>2020-01-27T08:13:16Z</time>
      </trkpt>
      <trkpt lat="44.20819" lon="7.51971">
        <ele>1133.05</ele>
        <time>2020-01-27T08:13:22Z</time>
      </trkpt>
      <trkpt lat="44.20808" lon="7.51978">
        <ele>1133.05</ele>
        <time>2020-01-27T08:13:35Z</time>
      </trkpt>
      <trkpt lat="44.20798" lon="7.51988">
        <ele>1133.05</ele>
        <time>2020-01-27T08:13:48Z</time>
      </trkpt>
      <trkpt lat="44.2079" lon="7.51995">
        <ele>1133.53</ele>
        <time>2020-01-27T08:14:00Z</time>
      </trkpt>
      <trkpt lat="44.20787" lon="7.51996">
        <ele>1134.01</ele>
        <time>2020-01-27T08:14:04Z</time>
      </trkpt>
      <trkpt lat="44.20777" lon="7.52003">
        <ele>1135.45</ele>
        <time>2020-01-27T08:14:18Z</time>
      </trkpt>
      <trkpt lat="44.2077" lon="7.52004">
        <ele>1138.82</ele>
        <time>2020-01-27T08:14:32Z</time>
      </trkpt>
      <trkpt lat="44.2076" lon="7.52004">
        <ele>1141.7</ele>
        <time>2020-01-27T08:14:44Z</time>
      </trkpt>
      <trkpt lat="44.2075" lon="7.52005">
        <ele>1141.22</ele>
        <time>2020-01-27T08:14:56Z</time>
      </trkpt>
      <trkpt lat="44.20741" lon="7.51998">
        <ele>1142.66</ele>
        <time>2020-01-27T08:15:10Z</time>
      </trkpt>
      <trkpt lat="44.20739" lon="7.51996">
        <ele>1143.14</ele>
        <time>2020-01-27T08:15:20Z</time>
      </trkpt>
      <trkpt lat="44.20732" lon="7.51986">
        <ele>1144.11</ele>
        <time>2020-01-27T08:15:34Z</time>
      </trkpt>
      <trkpt lat="44.20725" lon="7.5199">
        <ele>1145.55</ele>
        <time>2020-01-27T08:15:44Z</time>
      </trkpt>
      <trkpt lat="44.20719" lon="7.51993">
        <ele>1146.51</ele>
        <time>2020-01-27T08:15:56Z</time>
      </trkpt>
      <trkpt lat="44.2071" lon="7.51995">
        <ele>1148.43</ele>
        <time>2020-01-27T08:16:11Z</time>
      </trkpt>
      <trkpt lat="44.20702" lon="7.51993">
        <ele>1151.32</ele>
        <time>2020-01-27T08:16:25Z</time>
      </trkpt>
      <trkpt lat="44.20697" lon="7.51986">
        <ele>1153.24</ele>
        <time>2020-01-27T08:16:39Z</time>
      </trkpt>
      <trkpt lat="44.20692" lon="7.51984">
        <ele>1152.76</ele>
        <time>2020-01-27T08:16:49Z</time>
      </trkpt>
      <trkpt lat="44.20685" lon="7.51983">
        <ele>1153.72</ele>
        <time>2020-01-27T08:16:59Z</time>
      </trkpt>
      <trkpt lat="44.20676" lon="7.51982">
        <ele>1157.08</ele>
        <time>2020-01-27T08:17:14Z</time>
      </trkpt>
      <trkpt lat="44.20673" lon="7.51982">
        <ele>1159.01</ele>
        <time>2020-01-27T08:17:19Z</time>
      </trkpt>
      <trkpt lat="44.20664" lon="7.51987">
        <ele>1159.01</ele>
        <time>2020-01-27T08:17:33Z</time>
      </trkpt>
      <trkpt lat="44.20654" lon="7.51989">
        <ele>1160.93</ele>
        <time>2020-01-27T08:17:47Z</time>
      </trkpt>
      <trkpt lat="44.20651" lon="7.51989">
        <ele>1162.85</ele>
        <time>2020-01-27T08:17:58Z</time>
      </trkpt>
      <trkpt lat="44.20644" lon="7.5199">
        <ele>1165.26</ele>
        <time>2020-01-27T08:18:16Z</time>
      </trkpt>
      <trkpt lat="44.20637" lon="7.51988">
        <ele>1165.74</ele>
        <time>2020-01-27T08:18:27Z</time>
      </trkpt>
      <trkpt lat="44.20634" lon="7.51987">
        <ele>1165.26</ele>
        <time>2020-01-27T08:18:31Z</time>
      </trkpt>
      <trkpt lat="44.20629" lon="7.51989">
        <ele>1168.14</ele>
        <time>2020-01-27T08:18:44Z</time>
      </trkpt>
      <trkpt lat="44.20621" lon="7.51997">
        <ele>1168.62</ele>
        <time>2020-01-27T08:18:57Z</time>
      </trkpt>
      <trkpt lat="44.20616" lon="7.52004">
        <ele>1169.58</ele>
        <time>2020-01-27T08:19:06Z</time>
      </trkpt>
      <trkpt lat="44.20609" lon="7.52012">
        <ele>1171.98</ele>
        <time>2020-01-27T08:19:20Z</time>
      </trkpt>
      <trkpt lat="44.20602" lon="7.52022">
        <ele>1173.43</ele>
        <time>2020-01-27T08:19:33Z</time>
      </trkpt>
      <trkpt lat="44.20601" lon="7.52029">
        <ele>1174.39</ele>
        <time>2020-01-27T08:19:40Z</time>
      </trkpt>
      <trkpt lat="44.20596" lon="7.52045">
        <ele>1175.83</ele>
        <time>2020-01-27T08:19:55Z</time>
      </trkpt>
      <trkpt lat="44.20594" lon="7.52047">
        <ele>1176.79</ele>
        <time>2020-01-27T08:19:59Z</time>
      </trkpt>
      <trkpt lat="44.20592" lon="7.5206">
        <ele>1176.79</ele>
        <time>2020-01-27T08:20:09Z</time>
      </trkpt>
      <trkpt lat="44.2059" lon="7.52074">
        <ele>1177.75</ele>
        <time>2020-01-27T08:20:22Z</time>
      </trkpt>
      <trkpt lat="44.20594" lon="7.5209">
        <ele>1179.19</ele>
        <time>2020-01-27T08:20:35Z</time>
      </trkpt>
      <trkpt lat="44.20599" lon="7.521">
        <ele>1182.56</ele>
        <time>2020-01-27T08:20:48Z</time>
      </trkpt>
      <trkpt lat="44.20606" lon="7.52112">
        <ele>1182.56</ele>
        <time>2020-01-27T08:21:03Z</time>
      </trkpt>
      <trkpt lat="44.20609" lon="7.5212">
        <ele>1184</ele>
        <time>2020-01-27T08:21:11Z</time>
      </trkpt>
      <trkpt lat="44.20612" lon="7.52137">
        <ele>1184</ele>
        <time>2020-01-27T08:21:26Z</time>
      </trkpt>
      <trkpt lat="44.20613" lon="7.52152">
        <ele>1185.44</ele>
        <time>2020-01-27T08:21:40Z</time>
      </trkpt>
      <trkpt lat="44.20614" lon="7.52167">
        <ele>1188.81</ele>
        <time>2020-01-27T08:21:55Z</time>
      </trkpt>
      <trkpt lat="44.20613" lon="7.52178">
        <ele>1191.69</ele>
        <time>2020-01-27T08:22:08Z</time>
      </trkpt>
      <trkpt lat="44.20611" lon="7.52188">
        <ele>1198.9</ele>
        <time>2020-01-27T08:22:22Z</time>
      </trkpt>
      <trkpt lat="44.20613" lon="7.52196">
        <ele>1205.15</ele>
        <time>2020-01-27T08:22:36Z</time>
      </trkpt>
      <trkpt lat="44.20612" lon="7.522">
        <ele>1208.03</ele>
        <time>2020-01-27T08:22:51Z</time>
      </trkpt>
      <trkpt lat="44.20609" lon="7.52202">
        <ele>1209</ele>
        <time>2020-01-27T08:23:00Z</time>
      </trkpt>
      <trkpt lat="44.20604" lon="7.52206">
        <ele>1209.48</ele>
        <time>2020-01-27T08:23:11Z</time>
      </trkpt>
      <trkpt lat="44.20599" lon="7.52209">
        <ele>1211.88</ele>
        <time>2020-01-27T08:23:22Z</time>
      </trkpt>
      <trkpt lat="44.20593" lon="7.52213">
        <ele>1214.28</ele>
        <time>2020-01-27T08:23:35Z</time>
      </trkpt>
      <trkpt lat="44.20587" lon="7.52216">
        <ele>1212.36</ele>
        <time>2020-01-27T08:23:49Z</time>
      </trkpt>
      <trkpt lat="44.20578" lon="7.5222">
        <ele>1213.32</ele>
        <time>2020-01-27T08:24:03Z</time>
      </trkpt>
      <trkpt lat="44.20569" lon="7.52228">
        <ele>1215.72</ele>
        <time>2020-01-27T08:24:17Z</time>
      </trkpt>
      <trkpt lat="44.20563" lon="7.52232">
        <ele>1216.21</ele>
        <time>2020-01-27T08:24:28Z</time>
      </trkpt>
      <trkpt lat="44.20558" lon="7.5223">
        <ele>1219.57</ele>
        <time>2020-01-27T08:24:41Z</time>
      </trkpt>
      <trkpt lat="44.20553" lon="7.52229">
        <ele>1217.17</ele>
        <time>2020-01-27T08:25:00Z</time>
      </trkpt>
      <trkpt lat="44.20545" lon="7.52232">
        <ele>1221.49</ele>
        <time>2020-01-27T08:25:14Z</time>
      </trkpt>
      <trkpt lat="44.20535" lon="7.52235">
        <ele>1223.9</ele>
        <time>2020-01-27T08:25:32Z</time>
      </trkpt>
      <trkpt lat="44.20528" lon="7.52238">
        <ele>1222.93</ele>
        <time>2020-01-27T08:25:43Z</time>
      </trkpt>
      <trkpt lat="44.20521" lon="7.52238">
        <ele>1224.38</ele>
        <time>2020-01-27T08:25:57Z</time>
      </trkpt>
      <trkpt lat="44.20513" lon="7.52241">
        <ele>1224.86</ele>
        <time>2020-01-27T08:26:09Z</time>
      </trkpt>
      <trkpt lat="44.20507" lon="7.52238">
        <ele>1225.82</ele>
        <time>2020-01-27T08:26:20Z</time>
      </trkpt>
      <trkpt lat="44.20507" lon="7.52252">
        <ele>1225.34</ele>
        <time>2020-01-27T08:26:32Z</time>
      </trkpt>
      <trkpt lat="44.20513" lon="7.52258">
        <ele>1224.38</ele>
        <time>2020-01-27T08:26:40Z</time>
      </trkpt>
      <trkpt lat="44.20519" lon="7.52268">
        <ele>1221.97</ele>
        <time>2020-01-27T08:26:54Z</time>
      </trkpt>
      <trkpt lat="44.20516" lon="7.52276">
        <ele>1223.42</ele>
        <time>2020-01-27T08:27:09Z</time>
      </trkpt>
      <trkpt lat="44.2051" lon="7.52275">
        <ele>1226.3</ele>
        <time>2020-01-27T08:27:23Z</time>
      </trkpt>
      <trkpt lat="44.20507" lon="7.52278">
        <ele>1229.18</ele>
        <time>2020-01-27T08:27:34Z</time>
      </trkpt>
      <trkpt lat="44.2051" lon="7.52289">
        <ele>1232.07</ele>
        <time>2020-01-27T08:27:45Z</time>
      </trkpt>
      <trkpt lat="44.20512" lon="7.52297">
        <ele>1232.07</ele>
        <time>2020-01-27T08:27:56Z</time>
      </trkpt>
      <trkpt lat="44.20511" lon="7.52298">
        <ele>1231.11</ele>
        <time>2020-01-27T08:28:04Z</time>
      </trkpt>
      <trkpt lat="44.2051" lon="7.523">
        <ele>1232.07</ele>
        <time>2020-01-27T08:28:15Z</time>
      </trkpt>
      <trkpt lat="44.20516" lon="7.52307">
        <ele>1234.47</ele>
        <time>2020-01-27T08:28:28Z</time>
      </trkpt>
      <trkpt lat="44.20514" lon="7.52309">
        <ele>1238.8</ele>
        <time>2020-01-27T08:28:41Z</time>
      </trkpt>
      <trkpt lat="44.20505" lon="7.52305">
        <ele>1242.16</ele>
        <time>2020-01-27T08:28:55Z</time>
      </trkpt>
      <trkpt lat="44.20498" lon="7.52301">
        <ele>1244.56</ele>
        <time>2020-01-27T08:29:07Z</time>
      </trkpt>
      <trkpt lat="44.20487" lon="7.52297">
        <ele>1242.16</ele>
        <time>2020-01-27T08:29:21Z</time>
      </trkpt>
      <trkpt lat="44.20477" lon="7.52292">
        <ele>1244.56</ele>
        <time>2020-01-27T08:29:35Z</time>
      </trkpt>
      <trkpt lat="44.20468" lon="7.52287">
        <ele>1247.93</ele>
        <time>2020-01-27T08:29:48Z</time>
      </trkpt>
      <trkpt lat="44.20459" lon="7.52285">
        <ele>1249.37</ele>
        <time>2020-01-27T08:30:00Z</time>
      </trkpt>
      <trkpt lat="44.2045" lon="7.52286">
        <ele>1253.7</ele>
        <time>2020-01-27T08:30:15Z</time>
      </trkpt>
      <trkpt lat="44.20443" lon="7.52285">
        <ele>1258.02</ele>
        <time>2020-01-27T08:30:27Z</time>
      </trkpt>
      <trkpt lat="44.20439" lon="7.52281">
        <ele>1260.91</ele>
        <time>2020-01-27T08:30:39Z</time>
      </trkpt>
      <trkpt lat="44.20432" lon="7.52272">
        <ele>1265.71</ele>
        <time>2020-01-27T08:30:52Z</time>
      </trkpt>
      <trkpt lat="44.2043" lon="7.52269">
        <ele>1269.56</ele>
        <time>2020-01-27T08:31:07Z</time>
      </trkpt>
      <trkpt lat="44.20423" lon="7.52258">
        <ele>1269.08</ele>
        <time>2020-01-27T08:31:22Z</time>
      </trkpt>
      <trkpt lat="44.20417" lon="7.52251">
        <ele>1270.04</ele>
        <time>2020-01-27T08:31:34Z</time>
      </trkpt>
      <trkpt lat="44.20407" lon="7.52245">
        <ele>1270.04</ele>
        <time>2020-01-27T08:31:48Z</time>
      </trkpt>
      <trkpt lat="44.20404" lon="7.5224">
        <ele>1269.08</ele>
        <time>2020-01-27T08:31:58Z</time>
      </trkpt>
      <trkpt lat="44.20396" lon="7.52241">
        <ele>1269.56</ele>
        <time>2020-01-27T08:32:11Z</time>
      </trkpt>
      <trkpt lat="44.20393" lon="7.52253">
        <ele>1269.08</ele>
        <time>2020-01-27T08:32:23Z</time>
      </trkpt>
      <trkpt lat="44.20389" lon="7.52252">
        <ele>1267.64</ele>
        <time>2020-01-27T08:32:36Z</time>
      </trkpt>
      <trkpt lat="44.20385" lon="7.52248">
        <ele>1271.96</ele>
        <time>2020-01-27T08:32:47Z</time>
      </trkpt>
      <trkpt lat="44.20381" lon="7.52243">
        <ele>1276.77</ele>
        <time>2020-01-27T08:32:57Z</time>
      </trkpt>
      <trkpt lat="44.20378" lon="7.52236">
        <ele>1279.17</ele>
        <time>2020-01-27T08:33:10Z</time>
      </trkpt>
      <trkpt lat="44.20374" lon="7.52229">
        <ele>1279.65</ele>
        <time>2020-01-27T08:33:21Z</time>
      </trkpt>
      <trkpt lat="44.2037" lon="7.52222">
        <ele>1280.61</ele>
        <time>2020-01-27T08:33:34Z</time>
      </trkpt>
      <trkpt lat="44.20366" lon="7.52212">
        <ele>1280.61</ele>
        <time>2020-01-27T08:33:47Z</time>
      </trkpt>
      <trkpt lat="44.20362" lon="7.52209">
        <ele>1281.09</ele>
        <time>2020-01-27T08:33:56Z</time>
      </trkpt>
      <trkpt lat="44.20357" lon="7.52208">
        <ele>1283.98</ele>
        <time>2020-01-27T08:34:06Z</time>
      </trkpt>
      <trkpt lat="44.20362" lon="7.52202">
        <ele>1282.54</ele>
        <time>2020-01-27T08:34:19Z</time>
      </trkpt>
      <trkpt lat="44.20369" lon="7.52196">
        <ele>1274.85</ele>
        <time>2020-01-27T08:34:33Z</time>
      </trkpt>
      <trkpt lat="44.2037" lon="7.52194">
        <ele>1273.88</ele>
        <time>2020-01-27T08:34:37Z</time>
      </trkpt>
      <trkpt lat="44.20375" lon="7.52183">
        <ele>1274.36</ele>
        <time>2020-01-27T08:34:50Z</time>
      </trkpt>
      <trkpt lat="44.20377" lon="7.52172">
        <ele>1274.85</ele>
        <time>2020-01-27T08:35:03Z</time>
      </trkpt>
      <trkpt lat="44.20379" lon="7.52162">
        <ele>1277.25</ele>
        <time>2020-01-27T08:35:14Z</time>
      </trkpt>
      <trkpt lat="44.2038" lon="7.52153">
        <ele>1278.69</ele>
        <time>2020-01-27T08:35:25Z</time>
      </trkpt>
      <trkpt lat="44.20378" lon="7.52149">
        <ele>1281.57</ele>
        <time>2020-01-27T08:35:36Z</time>
      </trkpt>
      <trkpt lat="44.20376" lon="7.5215">
        <ele>1282.54</ele>
        <time>2020-01-27T08:35:52Z</time>
      </trkpt>
      <trkpt lat="44.20376" lon="7.52145">
        <ele>1287.82</ele>
        <time>2020-01-27T08:36:12Z</time>
      </trkpt>
      <trkpt lat="44.20368" lon="7.52137">
        <ele>1291.19</ele>
        <time>2020-01-27T08:36:27Z</time>
      </trkpt>
      <trkpt lat="44.20366" lon="7.52137">
        <ele>1291.19</ele>
        <time>2020-01-27T08:36:42Z</time>
      </trkpt>
      <trkpt lat="44.2036" lon="7.52145">
        <ele>1292.15</ele>
        <time>2020-01-27T08:36:55Z</time>
      </trkpt>
      <trkpt lat="44.20352" lon="7.52147">
        <ele>1293.11</ele>
        <time>2020-01-27T08:37:07Z</time>
      </trkpt>
      <trkpt lat="44.20347" lon="7.52149">
        <ele>1295.51</ele>
        <time>2020-01-27T08:37:15Z</time>
      </trkpt>
      <trkpt lat="44.20336" lon="7.52158">
        <ele>1295.51</ele>
        <time>2020-01-27T08:37:30Z</time>
      </trkpt>
      <trkpt lat="44.20328" lon="7.52165">
        <ele>1299.36</ele>
        <time>2020-01-27T08:37:45Z</time>
      </trkpt>
      <trkpt lat="44.20323" lon="7.52174">
        <ele>1300.8</ele>
        <time>2020-01-27T08:37:57Z</time>
      </trkpt>
      <trkpt lat="44.20319" lon="7.52184">
        <ele>1303.2</ele>
        <time>2020-01-27T08:38:10Z</time>
      </trkpt>
      <trkpt lat="44.20307" lon="7.5219">
        <ele>1304.17</ele>
        <time>2020-01-27T08:38:28Z</time>
      </trkpt>
      <trkpt lat="44.20303" lon="7.5219">
        <ele>1307.53</ele>
        <time>2020-01-27T08:38:39Z</time>
      </trkpt>
      <trkpt lat="44.20297" lon="7.52192">
        <ele>1311.86</ele>
        <time>2020-01-27T08:38:54Z</time>
      </trkpt>
      <trkpt lat="44.20291" lon="7.52189">
        <ele>1316.66</ele>
        <time>2020-01-27T08:39:10Z</time>
      </trkpt>
      <trkpt lat="44.20285" lon="7.52192">
        <ele>1321.47</ele>
        <time>2020-01-27T08:39:25Z</time>
      </trkpt>
      <trkpt lat="44.2028" lon="7.52192">
        <ele>1323.87</ele>
        <time>2020-01-27T08:39:38Z</time>
      </trkpt>
      <trkpt lat="44.20272" lon="7.52193">
        <ele>1326.76</ele>
        <time>2020-01-27T08:39:51Z</time>
      </trkpt>
      <trkpt lat="44.20269" lon="7.52193">
        <ele>1327.24</ele>
        <time>2020-01-27T08:40:03Z</time>
      </trkpt>
      <trkpt lat="44.20266" lon="7.52189">
        <ele>1331.08</ele>
        <time>2020-01-27T08:40:17Z</time>
      </trkpt>
      <trkpt lat="44.20259" lon="7.52194">
        <ele>1331.56</ele>
        <time>2020-01-27T08:40:30Z</time>
      </trkpt>
      <trkpt lat="44.2025" lon="7.52197">
        <ele>1332.04</ele>
        <time>2020-01-27T08:40:45Z</time>
      </trkpt>
      <trkpt lat="44.20243" lon="7.52199">
        <ele>1332.04</ele>
        <time>2020-01-27T08:40:57Z</time>
      </trkpt>
      <trkpt lat="44.20238" lon="7.52197">
        <ele>1334.45</ele>
        <time>2020-01-27T08:41:07Z</time>
      </trkpt>
      <trkpt lat="44.2023" lon="7.52203">
        <ele>1337.33</ele>
        <time>2020-01-27T08:41:23Z</time>
      </trkpt>
      <trkpt lat="44.20221" lon="7.522">
        <ele>1338.77</ele>
        <time>2020-01-27T08:41:39Z</time>
      </trkpt>
      <trkpt lat="44.20214" lon="7.52196">
        <ele>1340.7</ele>
        <time>2020-01-27T08:41:50Z</time>
      </trkpt>
      <trkpt lat="44.20204" lon="7.52195">
        <ele>1343.1</ele>
        <time>2020-01-27T08:42:07Z</time>
      </trkpt>
      <trkpt lat="44.20194" lon="7.52196">
        <ele>1343.58</ele>
        <time>2020-01-27T08:42:22Z</time>
      </trkpt>
      <trkpt lat="44.2019" lon="7.52196">
        <ele>1346.46</ele>
        <time>2020-01-27T08:42:35Z</time>
      </trkpt>
      <trkpt lat="44.20184" lon="7.52194">
        <ele>1348.87</ele>
        <time>2020-01-27T08:42:49Z</time>
      </trkpt>
      <trkpt lat="44.20175" lon="7.52191">
        <ele>1349.83</ele>
        <time>2020-01-27T08:43:03Z</time>
      </trkpt>
      <trkpt lat="44.20167" lon="7.52191">
        <ele>1351.75</ele>
        <time>2020-01-27T08:43:19Z</time>
      </trkpt>
      <trkpt lat="44.20159" lon="7.52193">
        <ele>1353.19</ele>
        <time>2020-01-27T08:43:31Z</time>
      </trkpt>
      <trkpt lat="44.2015" lon="7.52186">
        <ele>1353.19</ele>
        <time>2020-01-27T08:43:46Z</time>
      </trkpt>
      <trkpt lat="44.20144" lon="7.52181">
        <ele>1356.56</ele>
        <time>2020-01-27T08:43:59Z</time>
      </trkpt>
      <trkpt lat="44.20136" lon="7.52176">
        <ele>1357.04</ele>
        <time>2020-01-27T08:44:15Z</time>
      </trkpt>
      <trkpt lat="44.20131" lon="7.52173">
        <ele>1359.92</ele>
        <time>2020-01-27T08:44:26Z</time>
      </trkpt>
      <trkpt lat="44.20122" lon="7.5217">
        <ele>1363.29</ele>
        <time>2020-01-27T08:44:42Z</time>
      </trkpt>
      <trkpt lat="44.2011" lon="7.52166">
        <ele>1364.73</ele>
        <time>2020-01-27T08:45:01Z</time>
      </trkpt>
      <trkpt lat="44.20103" lon="7.52164">
        <ele>1363.77</ele>
        <time>2020-01-27T08:45:12Z</time>
      </trkpt>
      <trkpt lat="44.20097" lon="7.52161">
        <ele>1365.21</ele>
        <time>2020-01-27T08:45:23Z</time>
      </trkpt>
      <trkpt lat="44.20092" lon="7.52151">
        <ele>1366.65</ele>
        <time>2020-01-27T08:45:37Z</time>
      </trkpt>
      <trkpt lat="44.20086" lon="7.52148">
        <ele>1370.02</ele>
        <time>2020-01-27T08:45:48Z</time>
      </trkpt>
      <trkpt lat="44.20079" lon="7.52143">
        <ele>1374.82</ele>
        <time>2020-01-27T08:46:02Z</time>
      </trkpt>
      <trkpt lat="44.20072" lon="7.52142">
        <ele>1377.23</ele>
        <time>2020-01-27T08:46:15Z</time>
      </trkpt>
      <trkpt lat="44.20064" lon="7.52141">
        <ele>1377.71</ele>
        <time>2020-01-27T08:46:27Z</time>
      </trkpt>
      <trkpt lat="44.20058" lon="7.52136">
        <ele>1380.59</ele>
        <time>2020-01-27T08:46:41Z</time>
      </trkpt>
      <trkpt lat="44.20054" lon="7.52133">
        <ele>1381.07</ele>
        <time>2020-01-27T08:46:50Z</time>
      </trkpt>
      <trkpt lat="44.20047" lon="7.52131">
        <ele>1383.47</ele>
        <time>2020-01-27T08:47:07Z</time>
      </trkpt>
      <trkpt lat="44.2004" lon="7.5213">
        <ele>1384.44</ele>
        <time>2020-01-27T08:47:18Z</time>
      </trkpt>
      <trkpt lat="44.20035" lon="7.52126">
        <ele>1384.44</ele>
        <time>2020-01-27T08:47:32Z</time>
      </trkpt>
      <trkpt lat="44.20029" lon="7.52124">
        <ele>1385.88</ele>
        <time>2020-01-27T08:47:43Z</time>
      </trkpt>
      <trkpt lat="44.20024" lon="7.52121">
        <ele>1388.28</ele>
        <time>2020-01-27T08:47:53Z</time>
      </trkpt>
      <trkpt lat="44.2002" lon="7.52118">
        <ele>1391.17</ele>
        <time>2020-01-27T08:48:04Z</time>
      </trkpt>
      <trkpt lat="44.20014" lon="7.52116">
        <ele>1392.61</ele>
        <time>2020-01-27T08:48:15Z</time>
      </trkpt>
      <trkpt lat="44.20008" lon="7.52115">
        <ele>1393.09</ele>
        <time>2020-01-27T08:48:28Z</time>
      </trkpt>
      <trkpt lat="44.20005" lon="7.52114">
        <ele>1395.49</ele>
        <time>2020-01-27T08:48:42Z</time>
      </trkpt>
      <trkpt lat="44.20002" lon="7.52111">
        <ele>1399.34</ele>
        <time>2020-01-27T08:48:54Z</time>
      </trkpt>
      <trkpt lat="44.19994" lon="7.52114">
        <ele>1398.86</ele>
        <time>2020-01-27T08:49:08Z</time>
      </trkpt>
      <trkpt lat="44.19986" lon="7.52114">
        <ele>1400.78</ele>
        <time>2020-01-27T08:49:21Z</time>
      </trkpt>
      <trkpt lat="44.1998" lon="7.52116">
        <ele>1403.66</ele>
        <time>2020-01-27T08:49:33Z</time>
      </trkpt>
      <trkpt lat="44.19973" lon="7.52115">
        <ele>1405.1</ele>
        <time>2020-01-27T08:49:44Z</time>
      </trkpt>
      <trkpt lat="44.19966" lon="7.52109">
        <ele>1407.99</ele>
        <time>2020-01-27T08:49:58Z</time>
      </trkpt>
      <trkpt lat="44.19959" lon="7.52102">
        <ele>1410.87</ele>
        <time>2020-01-27T08:50:10Z</time>
      </trkpt>
      <trkpt lat="44.19953" lon="7.52098">
        <ele>1411.83</ele>
        <time>2020-01-27T08:50:22Z</time>
      </trkpt>
      <trkpt lat="44.19947" lon="7.5209">
        <ele>1414.24</ele>
        <time>2020-01-27T08:50:34Z</time>
      </trkpt>
      <trkpt lat="44.19939" lon="7.52081">
        <ele>1416.16</ele>
        <time>2020-01-27T08:50:48Z</time>
      </trkpt>
      <trkpt lat="44.19931" lon="7.5208">
        <ele>1416.64</ele>
        <time>2020-01-27T08:51:03Z</time>
      </trkpt>
      <trkpt lat="44.19926" lon="7.52078">
        <ele>1417.12</ele>
        <time>2020-01-27T08:51:15Z</time>
      </trkpt>
      <trkpt lat="44.19923" lon="7.52077">
        <ele>1417.12</ele>
        <time>2020-01-27T08:51:20Z</time>
      </trkpt>
      <trkpt lat="44.19919" lon="7.52077">
        <ele>1415.68</ele>
        <time>2020-01-27T08:51:36Z</time>
      </trkpt>
      <trkpt lat="44.19919" lon="7.52076">
        <ele>1416.16</ele>
        <time>2020-01-27T08:51:52Z</time>
      </trkpt>
      <trkpt lat="44.19922" lon="7.52079">
        <ele>1413.28</ele>
        <time>2020-01-27T08:52:05Z</time>
      </trkpt>
      <trkpt lat="44.19923" lon="7.52082">
        <ele>1409.43</ele>
        <time>2020-01-27T08:52:34Z</time>
      </trkpt>
      <trkpt lat="44.19919" lon="7.52081">
        <ele>1410.87</ele>
        <time>2020-01-27T08:52:53Z</time>
      </trkpt>
      <trkpt lat="44.19921" lon="7.52078">
        <ele>1414.24</ele>
        <time>2020-01-27T08:53:15Z</time>
      </trkpt>
      <trkpt lat="44.19918" lon="7.52079">
        <ele>1414.72</ele>
        <time>2020-01-27T08:53:31Z</time>
      </trkpt>
      <trkpt lat="44.1992" lon="7.52076">
        <ele>1419.04</ele>
        <time>2020-01-27T08:54:08Z</time>
      </trkpt>
      <trkpt lat="44.19918" lon="7.52075">
        <ele>1419.04</ele>
        <time>2020-01-27T08:54:24Z</time>
      </trkpt>
      <trkpt lat="44.19915" lon="7.52075">
        <ele>1417.12</ele>
        <time>2020-01-27T08:54:33Z</time>
      </trkpt>
      <trkpt lat="44.19904" lon="7.52071">
        <ele>1416.16</ele>
        <time>2020-01-27T08:54:47Z</time>
      </trkpt>
      <trkpt lat="44.19893" lon="7.52068">
        <ele>1417.12</ele>
        <time>2020-01-27T08:55:01Z</time>
      </trkpt>
      <trkpt lat="44.19882" lon="7.52066">
        <ele>1417.12</ele>
        <time>2020-01-27T08:55:16Z</time>
      </trkpt>
      <trkpt lat="44.19871" lon="7.52063">
        <ele>1417.12</ele>
        <time>2020-01-27T08:55:29Z</time>
      </trkpt>
      <trkpt lat="44.19861" lon="7.5206">
        <ele>1418.56</ele>
        <time>2020-01-27T08:55:41Z</time>
      </trkpt>
      <trkpt lat="44.19851" lon="7.52056">
        <ele>1420.49</ele>
        <time>2020-01-27T08:55:54Z</time>
      </trkpt>
      <trkpt lat="44.19839" lon="7.52051">
        <ele>1421.93</ele>
        <time>2020-01-27T08:56:08Z</time>
      </trkpt>
      <trkpt lat="44.19837" lon="7.52051">
        <ele>1422.89</ele>
        <time>2020-01-27T08:56:10Z</time>
      </trkpt>
      <trkpt lat="44.19834" lon="7.52052">
        <ele>1423.37</ele>
        <time>2020-01-27T08:56:14Z</time>
      </trkpt>
      <trkpt lat="44.19828" lon="7.5205">
        <ele>1423.85</ele>
        <time>2020-01-27T08:56:23Z</time>
      </trkpt>
      <trkpt lat="44.19816" lon="7.52047">
        <ele>1424.81</ele>
        <time>2020-01-27T08:56:37Z</time>
      </trkpt>
      <trkpt lat="44.19805" lon="7.52047">
        <ele>1424.33</ele>
        <time>2020-01-27T08:56:50Z</time>
      </trkpt>
      <trkpt lat="44.19794" lon="7.52048">
        <ele>1425.29</ele>
        <time>2020-01-27T08:57:03Z</time>
      </trkpt>
      <trkpt lat="44.19792" lon="7.52048">
        <ele>1425.77</ele>
        <time>2020-01-27T08:57:07Z</time>
      </trkpt>
      <trkpt lat="44.19787" lon="7.52048">
        <ele>1427.21</ele>
        <time>2020-01-27T08:57:13Z</time>
      </trkpt>
      <trkpt lat="44.19777" lon="7.52052">
        <ele>1430.1</ele>
        <time>2020-01-27T08:57:27Z</time>
      </trkpt>
      <trkpt lat="44.19774" lon="7.52053">
        <ele>1431.54</ele>
        <time>2020-01-27T08:57:33Z</time>
      </trkpt>
      <trkpt lat="44.19765" lon="7.52058">
        <ele>1432.98</ele>
        <time>2020-01-27T08:57:46Z</time>
      </trkpt>
      <trkpt lat="44.19754" lon="7.52059">
        <ele>1434.91</ele>
        <time>2020-01-27T08:57:59Z</time>
      </trkpt>
      <trkpt lat="44.19746" lon="7.52054">
        <ele>1436.83</ele>
        <time>2020-01-27T08:58:11Z</time>
      </trkpt>
      <trkpt lat="44.19745" lon="7.52053">
        <ele>1437.79</ele>
        <time>2020-01-27T08:58:13Z</time>
      </trkpt>
      <trkpt lat="44.19734" lon="7.52044">
        <ele>1436.83</ele>
        <time>2020-01-27T08:58:28Z</time>
      </trkpt>
      <trkpt lat="44.19724" lon="7.52039">
        <ele>1435.39</ele>
        <time>2020-01-27T08:58:41Z</time>
      </trkpt>
      <trkpt lat="44.19718" lon="7.52034">
        <ele>1436.35</ele>
        <time>2020-01-27T08:58:50Z</time>
      </trkpt>
      <trkpt lat="44.19713" lon="7.52029">
        <ele>1436.35</ele>
        <time>2020-01-27T08:59:00Z</time>
      </trkpt>
      <trkpt lat="44.19704" lon="7.52024">
        <ele>1434.91</ele>
        <time>2020-01-27T08:59:13Z</time>
      </trkpt>
      <trkpt lat="44.19693" lon="7.52019">
        <ele>1435.39</ele>
        <time>2020-01-27T08:59:27Z</time>
      </trkpt>
      <trkpt lat="44.19687" lon="7.52015">
        <ele>1435.39</ele>
        <time>2020-01-27T08:59:35Z</time>
      </trkpt>
      <trkpt lat="44.19678" lon="7.52012">
        <ele>1435.39</ele>
        <time>2020-01-27T08:59:44Z</time>
      </trkpt>
      <trkpt lat="44.19665" lon="7.52009">
        <ele>1436.35</ele>
        <time>2020-01-27T08:59:59Z</time>
      </trkpt>
      <trkpt lat="44.19657" lon="7.52003">
        <ele>1437.31</ele>
        <time>2020-01-27T09:00:12Z</time>
      </trkpt>
      <trkpt lat="44.19647" lon="7.51999">
        <ele>1440.19</ele>
        <time>2020-01-27T09:00:26Z</time>
      </trkpt>
      <trkpt lat="44.19638" lon="7.51995">
        <ele>1440.19</ele>
        <time>2020-01-27T09:00:42Z</time>
      </trkpt>
      <trkpt lat="44.19629" lon="7.51991">
        <ele>1442.6</ele>
        <time>2020-01-27T09:00:56Z</time>
      </trkpt>
      <trkpt lat="44.19616" lon="7.51989">
        <ele>1445</ele>
        <time>2020-01-27T09:01:12Z</time>
      </trkpt>
      <trkpt lat="44.19609" lon="7.51989">
        <ele>1446.44</ele>
        <time>2020-01-27T09:01:21Z</time>
      </trkpt>
      <trkpt lat="44.19597" lon="7.51985">
        <ele>1446.44</ele>
        <time>2020-01-27T09:01:36Z</time>
      </trkpt>
      <trkpt lat="44.19595" lon="7.51985">
        <ele>1447.4</ele>
        <time>2020-01-27T09:01:38Z</time>
      </trkpt>
      <trkpt lat="44.19583" lon="7.51983">
        <ele>1447.88</ele>
        <time>2020-01-27T09:01:53Z</time>
      </trkpt>
      <trkpt lat="44.19576" lon="7.5198">
        <ele>1449.32</ele>
        <time>2020-01-27T09:02:05Z</time>
      </trkpt>
      <trkpt lat="44.19572" lon="7.51978">
        <ele>1452.69</ele>
        <time>2020-01-27T09:02:12Z</time>
      </trkpt>
      <trkpt lat="44.19561" lon="7.51978">
        <ele>1456.05</ele>
        <time>2020-01-27T09:02:26Z</time>
      </trkpt>
      <trkpt lat="44.19557" lon="7.51977">
        <ele>1456.05</ele>
        <time>2020-01-27T09:02:32Z</time>
      </trkpt>
      <trkpt lat="44.19547" lon="7.51978">
        <ele>1457.02</ele>
        <time>2020-01-27T09:02:47Z</time>
      </trkpt>
      <trkpt lat="44.19537" lon="7.51978">
        <ele>1458.46</ele>
        <time>2020-01-27T09:03:02Z</time>
      </trkpt>
      <trkpt lat="44.19532" lon="7.51981">
        <ele>1460.86</ele>
        <time>2020-01-27T09:03:09Z</time>
      </trkpt>
      <trkpt lat="44.19523" lon="7.51985">
        <ele>1466.15</ele>
        <time>2020-01-27T09:03:22Z</time>
      </trkpt>
      <trkpt lat="44.19512" lon="7.51986">
        <ele>1469.51</ele>
        <time>2020-01-27T09:03:35Z</time>
      </trkpt>
      <trkpt lat="44.19502" lon="7.51987">
        <ele>1472.88</ele>
        <time>2020-01-27T09:03:48Z</time>
      </trkpt>
      <trkpt lat="44.195" lon="7.51988">
        <ele>1472.88</ele>
        <time>2020-01-27T09:03:50Z</time>
      </trkpt>
      <trkpt lat="44.19489" lon="7.51992">
        <ele>1473.36</ele>
        <time>2020-01-27T09:04:05Z</time>
      </trkpt>
      <trkpt lat="44.19478" lon="7.51993">
        <ele>1475.76</ele>
        <time>2020-01-27T09:04:17Z</time>
      </trkpt>
      <trkpt lat="44.19467" lon="7.51991">
        <ele>1474.8</ele>
        <time>2020-01-27T09:04:30Z</time>
      </trkpt>
      <trkpt lat="44.19464" lon="7.51991">
        <ele>1474.32</ele>
        <time>2020-01-27T09:04:33Z</time>
      </trkpt>
      <trkpt lat="44.19452" lon="7.51989">
        <ele>1471.92</ele>
        <time>2020-01-27T09:04:47Z</time>
      </trkpt>
      <trkpt lat="44.19448" lon="7.51989">
        <ele>1471.44</ele>
        <time>2020-01-27T09:04:51Z</time>
      </trkpt>
      <trkpt lat="44.19442" lon="7.51988">
        <ele>1470.47</ele>
        <time>2020-01-27T09:04:57Z</time>
      </trkpt>
      <trkpt lat="44.19429" lon="7.51985">
        <ele>1466.15</ele>
        <time>2020-01-27T09:05:10Z</time>
      </trkpt>
      <trkpt lat="44.19418" lon="7.51985">
        <ele>1466.15</ele>
        <time>2020-01-27T09:05:23Z</time>
      </trkpt>
      <trkpt lat="44.19408" lon="7.51986">
        <ele>1467.59</ele>
        <time>2020-01-27T09:05:34Z</time>
      </trkpt>
      <trkpt lat="44.19397" lon="7.51985">
        <ele>1469.03</ele>
        <time>2020-01-27T09:05:46Z</time>
      </trkpt>
      <trkpt lat="44.19384" lon="7.51985">
        <ele>1467.59</ele>
        <time>2020-01-27T09:06:00Z</time>
      </trkpt>
      <trkpt lat="44.19373" lon="7.51984">
        <ele>1469.51</ele>
        <time>2020-01-27T09:06:12Z</time>
      </trkpt>
      <trkpt lat="44.19366" lon="7.51982">
        <ele>1469.03</ele>
        <time>2020-01-27T09:06:20Z</time>
      </trkpt>
      <trkpt lat="44.19358" lon="7.5198">
        <ele>1469.99</ele>
        <time>2020-01-27T09:06:31Z</time>
      </trkpt>
      <trkpt lat="44.19345" lon="7.51972">
        <ele>1471.92</ele>
        <time>2020-01-27T09:06:47Z</time>
      </trkpt>
      <trkpt lat="44.19338" lon="7.51969">
        <ele>1474.32</ele>
        <time>2020-01-27T09:07:00Z</time>
      </trkpt>
      <trkpt lat="44.19331" lon="7.51965">
        <ele>1476.72</ele>
        <time>2020-01-27T09:07:14Z</time>
      </trkpt>
      <trkpt lat="44.19323" lon="7.5196">
        <ele>1479.13</ele>
        <time>2020-01-27T09:07:29Z</time>
      </trkpt>
      <trkpt lat="44.19313" lon="7.51957">
        <ele>1479.13</ele>
        <time>2020-01-27T09:07:43Z</time>
      </trkpt>
      <trkpt lat="44.19307" lon="7.51955">
        <ele>1479.61</ele>
        <time>2020-01-27T09:07:53Z</time>
      </trkpt>
      <trkpt lat="44.19297" lon="7.51954">
        <ele>1479.61</ele>
        <time>2020-01-27T09:08:06Z</time>
      </trkpt>
      <trkpt lat="44.19287" lon="7.51951">
        <ele>1479.13</ele>
        <time>2020-01-27T09:08:18Z</time>
      </trkpt>
      <trkpt lat="44.19275" lon="7.51953">
        <ele>1480.57</ele>
        <time>2020-01-27T09:08:33Z</time>
      </trkpt>
      <trkpt lat="44.19263" lon="7.51953">
        <ele>1483.93</ele>
        <time>2020-01-27T09:08:49Z</time>
      </trkpt>
      <trkpt lat="44.19261" lon="7.51953">
        <ele>1484.41</ele>
        <time>2020-01-27T09:08:51Z</time>
      </trkpt>
      <trkpt lat="44.19255" lon="7.51952">
        <ele>1485.37</ele>
        <time>2020-01-27T09:08:59Z</time>
      </trkpt>
      <trkpt lat="44.19247" lon="7.51952">
        <ele>1488.74</ele>
        <time>2020-01-27T09:09:13Z</time>
      </trkpt>
      <trkpt lat="44.19238" lon="7.51956">
        <ele>1490.18</ele>
        <time>2020-01-27T09:09:26Z</time>
      </trkpt>
      <trkpt lat="44.1923" lon="7.51961">
        <ele>1491.62</ele>
        <time>2020-01-27T09:09:37Z</time>
      </trkpt>
      <trkpt lat="44.19221" lon="7.51964">
        <ele>1492.58</ele>
        <time>2020-01-27T09:09:49Z</time>
      </trkpt>
      <trkpt lat="44.19212" lon="7.51966">
        <ele>1494.03</ele>
        <time>2020-01-27T09:10:02Z</time>
      </trkpt>
      <trkpt lat="44.19205" lon="7.51971">
        <ele>1495.95</ele>
        <time>2020-01-27T09:10:16Z</time>
      </trkpt>
      <trkpt lat="44.19196" lon="7.51972">
        <ele>1499.31</ele>
        <time>2020-01-27T09:10:28Z</time>
      </trkpt>
      <trkpt lat="44.19187" lon="7.51975">
        <ele>1502.2</ele>
        <time>2020-01-27T09:10:42Z</time>
      </trkpt>
      <trkpt lat="44.19185" lon="7.51976">
        <ele>1502.68</ele>
        <time>2020-01-27T09:10:46Z</time>
      </trkpt>
      <trkpt lat="44.19175" lon="7.51976">
        <ele>1505.56</ele>
        <time>2020-01-27T09:11:00Z</time>
      </trkpt>
      <trkpt lat="44.19174" lon="7.51977">
        <ele>1505.56</ele>
        <time>2020-01-27T09:11:01Z</time>
      </trkpt>
      <trkpt lat="44.19163" lon="7.51977">
        <ele>1507.48</ele>
        <time>2020-01-27T09:11:16Z</time>
      </trkpt>
      <trkpt lat="44.19154" lon="7.51976">
        <ele>1510.37</ele>
        <time>2020-01-27T09:11:29Z</time>
      </trkpt>
      <trkpt lat="44.19144" lon="7.51976">
        <ele>1512.77</ele>
        <time>2020-01-27T09:11:43Z</time>
      </trkpt>
      <trkpt lat="44.19135" lon="7.51977">
        <ele>1512.29</ele>
        <time>2020-01-27T09:11:57Z</time>
      </trkpt>
      <trkpt lat="44.19125" lon="7.51979">
        <ele>1513.25</ele>
        <time>2020-01-27T09:12:10Z</time>
      </trkpt>
      <trkpt lat="44.19114" lon="7.51981">
        <ele>1513.73</ele>
        <time>2020-01-27T09:12:25Z</time>
      </trkpt>
      <trkpt lat="44.19101" lon="7.51982">
        <ele>1515.66</ele>
        <time>2020-01-27T09:12:41Z</time>
      </trkpt>
      <trkpt lat="44.1909" lon="7.51988">
        <ele>1512.77</ele>
        <time>2020-01-27T09:12:55Z</time>
      </trkpt>
      <trkpt lat="44.19081" lon="7.51993">
        <ele>1515.18</ele>
        <time>2020-01-27T09:13:07Z</time>
      </trkpt>
      <trkpt lat="44.19074" lon="7.51996">
        <ele>1516.62</ele>
        <time>2020-01-27T09:13:19Z</time>
      </trkpt>
      <trkpt lat="44.19066" lon="7.52001">
        <ele>1518.06</ele>
        <time>2020-01-27T09:13:31Z</time>
      </trkpt>
      <trkpt lat="44.19058" lon="7.52007">
        <ele>1519.5</ele>
        <time>2020-01-27T09:13:44Z</time>
      </trkpt>
      <trkpt lat="44.19055" lon="7.5201">
        <ele>1519.98</ele>
        <time>2020-01-27T09:13:49Z</time>
      </trkpt>
      <trkpt lat="44.19043" lon="7.52017">
        <ele>1521.42</ele>
        <time>2020-01-27T09:14:04Z</time>
      </trkpt>
      <trkpt lat="44.19033" lon="7.52021">
        <ele>1522.87</ele>
        <time>2020-01-27T09:14:18Z</time>
      </trkpt>
      <trkpt lat="44.19029" lon="7.52025">
        <ele>1522.87</ele>
        <time>2020-01-27T09:14:23Z</time>
      </trkpt>
      <trkpt lat="44.19022" lon="7.52034">
        <ele>1524.31</ele>
        <time>2020-01-27T09:14:37Z</time>
      </trkpt>
      <trkpt lat="44.19015" lon="7.52041">
        <ele>1524.79</ele>
        <time>2020-01-27T09:14:48Z</time>
      </trkpt>
      <trkpt lat="44.19007" lon="7.5205">
        <ele>1525.75</ele>
        <time>2020-01-27T09:15:01Z</time>
      </trkpt>
      <trkpt lat="44.19001" lon="7.5206">
        <ele>1527.19</ele>
        <time>2020-01-27T09:15:14Z</time>
      </trkpt>
      <trkpt lat="44.18994" lon="7.5207">
        <ele>1530.08</ele>
        <time>2020-01-27T09:15:28Z</time>
      </trkpt>
      <trkpt lat="44.18986" lon="7.52081">
        <ele>1531.04</ele>
        <time>2020-01-27T09:15:42Z</time>
      </trkpt>
      <trkpt lat="44.1898" lon="7.5209">
        <ele>1532.48</ele>
        <time>2020-01-27T09:15:55Z</time>
      </trkpt>
      <trkpt lat="44.18972" lon="7.52094">
        <ele>1536.8</ele>
        <time>2020-01-27T09:16:08Z</time>
      </trkpt>
      <trkpt lat="44.18972" lon="7.52083">
        <ele>1536.32</ele>
        <time>2020-01-27T09:16:21Z</time>
      </trkpt>
      <trkpt lat="44.18976" lon="7.52071">
        <ele>1534.88</ele>
        <time>2020-01-27T09:16:34Z</time>
      </trkpt>
      <trkpt lat="44.1898" lon="7.52061">
        <ele>1535.36</ele>
        <time>2020-01-27T09:16:47Z</time>
      </trkpt>
      <trkpt lat="44.18982" lon="7.5205">
        <ele>1535.36</ele>
        <time>2020-01-27T09:16:59Z</time>
      </trkpt>
      <trkpt lat="44.18984" lon="7.52036">
        <ele>1533.92</ele>
        <time>2020-01-27T09:17:13Z</time>
      </trkpt>
      <trkpt lat="44.18987" lon="7.52026">
        <ele>1533.92</ele>
        <time>2020-01-27T09:17:26Z</time>
      </trkpt>
      <trkpt lat="44.18986" lon="7.52016">
        <ele>1534.88</ele>
        <time>2020-01-27T09:17:37Z</time>
      </trkpt>
      <trkpt lat="44.18981" lon="7.52019">
        <ele>1536.32</ele>
        <time>2020-01-27T09:17:47Z</time>
      </trkpt>
      <trkpt lat="44.18976" lon="7.52027">
        <ele>1540.65</ele>
        <time>2020-01-27T09:17:59Z</time>
      </trkpt>
      <trkpt lat="44.18974" lon="7.52031">
        <ele>1541.61</ele>
        <time>2020-01-27T09:18:04Z</time>
      </trkpt>
      <trkpt lat="44.18969" lon="7.52046">
        <ele>1543.53</ele>
        <time>2020-01-27T09:18:18Z</time>
      </trkpt>
      <trkpt lat="44.18963" lon="7.52059">
        <ele>1546.42</ele>
        <time>2020-01-27T09:18:31Z</time>
      </trkpt>
      <trkpt lat="44.18957" lon="7.52073">
        <ele>1545.94</ele>
        <time>2020-01-27T09:18:45Z</time>
      </trkpt>
      <trkpt lat="44.18952" lon="7.52083">
        <ele>1546.42</ele>
        <time>2020-01-27T09:18:57Z</time>
      </trkpt>
      <trkpt lat="44.18943" lon="7.52094">
        <ele>1546.42</ele>
        <time>2020-01-27T09:19:10Z</time>
      </trkpt>
      <trkpt lat="44.18934" lon="7.52102">
        <ele>1549.3</ele>
        <time>2020-01-27T09:19:23Z</time>
      </trkpt>
      <trkpt lat="44.18924" lon="7.52108">
        <ele>1550.26</ele>
        <time>2020-01-27T09:19:36Z</time>
      </trkpt>
      <trkpt lat="44.18917" lon="7.52115">
        <ele>1551.71</ele>
        <time>2020-01-27T09:19:49Z</time>
      </trkpt>
      <trkpt lat="44.18908" lon="7.52119">
        <ele>1555.55</ele>
        <time>2020-01-27T09:20:03Z</time>
      </trkpt>
      <trkpt lat="44.18895" lon="7.52118">
        <ele>1551.71</ele>
        <time>2020-01-27T09:20:16Z</time>
      </trkpt>
      <trkpt lat="44.18886" lon="7.52123">
        <ele>1549.3</ele>
        <time>2020-01-27T09:20:29Z</time>
      </trkpt>
      <trkpt lat="44.18877" lon="7.52129">
        <ele>1548.82</ele>
        <time>2020-01-27T09:20:43Z</time>
      </trkpt>
      <trkpt lat="44.1887" lon="7.5213">
        <ele>1550.26</ele>
        <time>2020-01-27T09:20:55Z</time>
      </trkpt>
      <trkpt lat="44.1887" lon="7.52129">
        <ele>1551.22</ele>
        <time>2020-01-27T09:21:07Z</time>
      </trkpt>
      <trkpt lat="44.18864" lon="7.52128">
        <ele>1551.71</ele>
        <time>2020-01-27T09:21:15Z</time>
      </trkpt>
      <trkpt lat="44.18856" lon="7.52124">
        <ele>1551.22</ele>
        <time>2020-01-27T09:21:26Z</time>
      </trkpt>
      <trkpt lat="44.18853" lon="7.52116">
        <ele>1550.74</ele>
        <time>2020-01-27T09:21:39Z</time>
      </trkpt>
      <trkpt lat="44.18853" lon="7.52114">
        <ele>1550.74</ele>
        <time>2020-01-27T09:21:56Z</time>
      </trkpt>
      <trkpt lat="44.18851" lon="7.52112">
        <ele>1552.19</ele>
        <time>2020-01-27T09:22:20Z</time>
      </trkpt>
      <trkpt lat="44.18848" lon="7.52108">
        <ele>1554.11</ele>
        <time>2020-01-27T09:22:36Z</time>
      </trkpt>
      <trkpt lat="44.18847" lon="7.52108">
        <ele>1554.11</ele>
        <time>2020-01-27T09:22:37Z</time>
      </trkpt>
      <trkpt lat="44.18831" lon="7.52093">
        <ele>1554.11</ele>
        <time>2020-01-27T09:22:53Z</time>
      </trkpt>
      <trkpt lat="44.18829" lon="7.52092">
        <ele>1553.63</ele>
        <time>2020-01-27T09:23:04Z</time>
      </trkpt>
      <trkpt lat="44.18827" lon="7.52089">
        <ele>1553.63</ele>
        <time>2020-01-27T09:23:14Z</time>
      </trkpt>
      <trkpt lat="44.18818" lon="7.52082">
        <ele>1554.59</ele>
        <time>2020-01-27T09:23:27Z</time>
      </trkpt>
      <trkpt lat="44.1881" lon="7.52074">
        <ele>1556.99</ele>
        <time>2020-01-27T09:23:39Z</time>
      </trkpt>
      <trkpt lat="44.18799" lon="7.52068">
        <ele>1556.99</ele>
        <time>2020-01-27T09:23:52Z</time>
      </trkpt>
      <trkpt lat="44.18787" lon="7.5206">
        <ele>1556.99</ele>
        <time>2020-01-27T09:24:04Z</time>
      </trkpt>
      <trkpt lat="44.18775" lon="7.52057">
        <ele>1556.99</ele>
        <time>2020-01-27T09:24:16Z</time>
      </trkpt>
      <trkpt lat="44.18768" lon="7.52055">
        <ele>1558.92</ele>
        <time>2020-01-27T09:24:30Z</time>
      </trkpt>
      <trkpt lat="44.18762" lon="7.52062">
        <ele>1557.47</ele>
        <time>2020-01-27T09:24:40Z</time>
      </trkpt>
      <trkpt lat="44.18759" lon="7.52067">
        <ele>1556.99</ele>
        <time>2020-01-27T09:24:45Z</time>
      </trkpt>
      <trkpt lat="44.18756" lon="7.52071">
        <ele>1557.47</ele>
        <time>2020-01-27T09:24:49Z</time>
      </trkpt>
      <trkpt lat="44.18744" lon="7.52082">
        <ele>1559.4</ele>
        <time>2020-01-27T09:25:03Z</time>
      </trkpt>
      <trkpt lat="44.18734" lon="7.52087">
        <ele>1562.76</ele>
        <time>2020-01-27T09:25:16Z</time>
      </trkpt>
      <trkpt lat="44.18721" lon="7.52089">
        <ele>1563.72</ele>
        <time>2020-01-27T09:25:29Z</time>
      </trkpt>
      <trkpt lat="44.18719" lon="7.5209">
        <ele>1563.72</ele>
        <time>2020-01-27T09:25:31Z</time>
      </trkpt>
      <trkpt lat="44.18712" lon="7.52098">
        <ele>1565.64</ele>
        <time>2020-01-27T09:25:43Z</time>
      </trkpt>
      <trkpt lat="44.18705" lon="7.52104">
        <ele>1566.12</ele>
        <time>2020-01-27T09:25:55Z</time>
      </trkpt>
      <trkpt lat="44.18704" lon="7.52105">
        <ele>1566.12</ele>
        <time>2020-01-27T09:25:57Z</time>
      </trkpt>
      <trkpt lat="44.18698" lon="7.52107">
        <ele>1568.53</ele>
        <time>2020-01-27T09:26:10Z</time>
      </trkpt>
      <trkpt lat="44.18697" lon="7.52107">
        <ele>1569.01</ele>
        <time>2020-01-27T09:26:19Z</time>
      </trkpt>
      <trkpt lat="44.18684" lon="7.52111">
        <ele>1569.49</ele>
        <time>2020-01-27T09:26:34Z</time>
      </trkpt>
      <trkpt lat="44.18672" lon="7.52119">
        <ele>1571.41</ele>
        <time>2020-01-27T09:26:47Z</time>
      </trkpt>
      <trkpt lat="44.18664" lon="7.52127">
        <ele>1574.3</ele>
        <time>2020-01-27T09:27:00Z</time>
      </trkpt>
      <trkpt lat="44.18657" lon="7.52133">
        <ele>1575.74</ele>
        <time>2020-01-27T09:27:11Z</time>
      </trkpt>
      <trkpt lat="44.18649" lon="7.5214">
        <ele>1578.62</ele>
        <time>2020-01-27T09:27:24Z</time>
      </trkpt>
      <trkpt lat="44.18642" lon="7.52146">
        <ele>1581.03</ele>
        <time>2020-01-27T09:27:38Z</time>
      </trkpt>
      <trkpt lat="44.18633" lon="7.52147">
        <ele>1582.95</ele>
        <time>2020-01-27T09:27:52Z</time>
      </trkpt>
      <trkpt lat="44.18625" lon="7.52157">
        <ele>1582.47</ele>
        <time>2020-01-27T09:28:06Z</time>
      </trkpt>
      <trkpt lat="44.18616" lon="7.52158">
        <ele>1582.47</ele>
        <time>2020-01-27T09:28:21Z</time>
      </trkpt>
      <trkpt lat="44.18608" lon="7.5216">
        <ele>1583.43</ele>
        <time>2020-01-27T09:28:31Z</time>
      </trkpt>
      <trkpt lat="44.18602" lon="7.52168">
        <ele>1585.35</ele>
        <time>2020-01-27T09:28:45Z</time>
      </trkpt>
      <trkpt lat="44.18593" lon="7.5217">
        <ele>1587.27</ele>
        <time>2020-01-27T09:29:00Z</time>
      </trkpt>
      <trkpt lat="44.18582" lon="7.5217">
        <ele>1589.68</ele>
        <time>2020-01-27T09:29:17Z</time>
      </trkpt>
      <trkpt lat="44.18582" lon="7.52173">
        <ele>1589.2</ele>
        <time>2020-01-27T09:29:20Z</time>
      </trkpt>
      <trkpt lat="44.18576" lon="7.52172">
        <ele>1589.2</ele>
        <time>2020-01-27T09:29:32Z</time>
      </trkpt>
      <trkpt lat="44.18575" lon="7.52171">
        <ele>1589.68</ele>
        <time>2020-01-27T09:29:34Z</time>
      </trkpt>
      <trkpt lat="44.18565" lon="7.52169">
        <ele>1590.64</ele>
        <time>2020-01-27T09:29:46Z</time>
      </trkpt>
      <trkpt lat="44.18556" lon="7.52166">
        <ele>1591.6</ele>
        <time>2020-01-27T09:29:57Z</time>
      </trkpt>
      <trkpt lat="44.18555" lon="7.52166">
        <ele>1592.08</ele>
        <time>2020-01-27T09:29:58Z</time>
      </trkpt>
      <trkpt lat="44.18549" lon="7.52168">
        <ele>1592.56</ele>
        <time>2020-01-27T09:30:12Z</time>
      </trkpt>
      <trkpt lat="44.18542" lon="7.52173">
        <ele>1594.48</ele>
        <time>2020-01-27T09:30:24Z</time>
      </trkpt>
      <trkpt lat="44.18536" lon="7.5218">
        <ele>1596.41</ele>
        <time>2020-01-27T09:30:35Z</time>
      </trkpt>
      <trkpt lat="44.18526" lon="7.52182">
        <ele>1597.85</ele>
        <time>2020-01-27T09:30:51Z</time>
      </trkpt>
      <trkpt lat="44.18518" lon="7.52186">
        <ele>1599.29</ele>
        <time>2020-01-27T09:31:03Z</time>
      </trkpt>
      <trkpt lat="44.18514" lon="7.52187">
        <ele>1600.73</ele>
        <time>2020-01-27T09:31:12Z</time>
      </trkpt>
      <trkpt lat="44.18507" lon="7.52189">
        <ele>1603.14</ele>
        <time>2020-01-27T09:31:22Z</time>
      </trkpt>
      <trkpt lat="44.18502" lon="7.52197">
        <ele>1604.58</ele>
        <time>2020-01-27T09:31:34Z</time>
      </trkpt>
      <trkpt lat="44.185" lon="7.52198">
        <ele>1605.06</ele>
        <time>2020-01-27T09:31:36Z</time>
      </trkpt>
      <trkpt lat="44.18489" lon="7.52198">
        <ele>1605.54</ele>
        <time>2020-01-27T09:31:49Z</time>
      </trkpt>
      <trkpt lat="44.1848" lon="7.52198">
        <ele>1606.98</ele>
        <time>2020-01-27T09:32:02Z</time>
      </trkpt>
      <trkpt lat="44.18471" lon="7.52199">
        <ele>1609.38</ele>
        <time>2020-01-27T09:32:14Z</time>
      </trkpt>
      <trkpt lat="44.18469" lon="7.52199">
        <ele>1609.86</ele>
        <time>2020-01-27T09:32:17Z</time>
      </trkpt>
      <trkpt lat="44.1846" lon="7.52201">
        <ele>1613.23</ele>
        <time>2020-01-27T09:32:29Z</time>
      </trkpt>
      <trkpt lat="44.18458" lon="7.52201">
        <ele>1613.71</ele>
        <time>2020-01-27T09:32:31Z</time>
      </trkpt>
      <trkpt lat="44.18448" lon="7.52205">
        <ele>1615.15</ele>
        <time>2020-01-27T09:32:46Z</time>
      </trkpt>
      <trkpt lat="44.18441" lon="7.5221">
        <ele>1617.07</ele>
        <time>2020-01-27T09:32:58Z</time>
      </trkpt>
      <trkpt lat="44.18435" lon="7.52216">
        <ele>1620.44</ele>
        <time>2020-01-27T09:33:12Z</time>
      </trkpt>
      <trkpt lat="44.18435" lon="7.52226">
        <ele>1625.73</ele>
        <time>2020-01-27T09:33:27Z</time>
      </trkpt>
      <trkpt lat="44.18428" lon="7.52232">
        <ele>1627.17</ele>
        <time>2020-01-27T09:33:40Z</time>
      </trkpt>
      <trkpt lat="44.18419" lon="7.52234">
        <ele>1627.17</ele>
        <time>2020-01-27T09:33:53Z</time>
      </trkpt>
      <trkpt lat="44.18419" lon="7.52235">
        <ele>1625.73</ele>
        <time>2020-01-27T09:34:06Z</time>
      </trkpt>
      <trkpt lat="44.18413" lon="7.52234">
        <ele>1624.77</ele>
        <time>2020-01-27T09:34:17Z</time>
      </trkpt>
      <trkpt lat="44.18408" lon="7.5224">
        <ele>1626.21</ele>
        <time>2020-01-27T09:34:29Z</time>
      </trkpt>
      <trkpt lat="44.18405" lon="7.52245">
        <ele>1627.17</ele>
        <time>2020-01-27T09:34:41Z</time>
      </trkpt>
      <trkpt lat="44.184" lon="7.52244">
        <ele>1627.65</ele>
        <time>2020-01-27T09:34:51Z</time>
      </trkpt>
      <trkpt lat="44.18402" lon="7.52244">
        <ele>1627.65</ele>
        <time>2020-01-27T09:35:10Z</time>
      </trkpt>
      <trkpt lat="44.18395" lon="7.52244">
        <ele>1629.57</ele>
        <time>2020-01-27T09:35:22Z</time>
      </trkpt>
      <trkpt lat="44.18392" lon="7.52244">
        <ele>1630.53</ele>
        <time>2020-01-27T09:35:34Z</time>
      </trkpt>
      <trkpt lat="44.18391" lon="7.52243">
        <ele>1630.53</ele>
        <time>2020-01-27T09:35:35Z</time>
      </trkpt>
      <trkpt lat="44.18383" lon="7.52247">
        <ele>1629.57</ele>
        <time>2020-01-27T09:35:48Z</time>
      </trkpt>
      <trkpt lat="44.18376" lon="7.5225">
        <ele>1630.05</ele>
        <time>2020-01-27T09:36:00Z</time>
      </trkpt>
      <trkpt lat="44.18368" lon="7.52255">
        <ele>1630.53</ele>
        <time>2020-01-27T09:36:11Z</time>
      </trkpt>
      <trkpt lat="44.18361" lon="7.52258">
        <ele>1632.46</ele>
        <time>2020-01-27T09:36:22Z</time>
      </trkpt>
      <trkpt lat="44.1836" lon="7.52262">
        <ele>1634.86</ele>
        <time>2020-01-27T09:36:37Z</time>
      </trkpt>
      <trkpt lat="44.18357" lon="7.5227">
        <ele>1635.82</ele>
        <time>2020-01-27T09:36:46Z</time>
      </trkpt>
      <trkpt lat="44.18351" lon="7.52275">
        <ele>1636.78</ele>
        <time>2020-01-27T09:37:00Z</time>
      </trkpt>
      <trkpt lat="44.18344" lon="7.52278">
        <ele>1634.86</ele>
        <time>2020-01-27T09:37:23Z</time>
      </trkpt>
      <trkpt lat="44.1834" lon="7.52279">
        <ele>1634.86</ele>
        <time>2020-01-27T09:37:27Z</time>
      </trkpt>
      <trkpt lat="44.18337" lon="7.5228">
        <ele>1633.42</ele>
        <time>2020-01-27T09:37:40Z</time>
      </trkpt>
      <trkpt lat="44.18337" lon="7.52281">
        <ele>1634.38</ele>
        <time>2020-01-27T09:38:01Z</time>
      </trkpt>
      <trkpt lat="44.18337" lon="7.52278">
        <ele>1634.86</ele>
        <time>2020-01-27T09:38:27Z</time>
      </trkpt>
      <trkpt lat="44.18337" lon="7.52279">
        <ele>1632.46</ele>
        <time>2020-01-27T09:38:49Z</time>
      </trkpt>
      <trkpt lat="44.18332" lon="7.52276">
        <ele>1634.38</ele>
        <time>2020-01-27T09:39:01Z</time>
      </trkpt>
      <trkpt lat="44.18331" lon="7.52276">
        <ele>1634.38</ele>
        <time>2020-01-27T09:39:04Z</time>
      </trkpt>
      <trkpt lat="44.18323" lon="7.52275">
        <ele>1637.26</ele>
        <time>2020-01-27T09:39:16Z</time>
      </trkpt>
      <trkpt lat="44.18321" lon="7.52273">
        <ele>1638.7</ele>
        <time>2020-01-27T09:39:20Z</time>
      </trkpt>
      <trkpt lat="44.18315" lon="7.52271">
        <ele>1640.63</ele>
        <time>2020-01-27T09:39:31Z</time>
      </trkpt>
      <trkpt lat="44.1831" lon="7.52275">
        <ele>1645.43</ele>
        <time>2020-01-27T09:39:42Z</time>
      </trkpt>
      <trkpt lat="44.18308" lon="7.52284">
        <ele>1647.84</ele>
        <time>2020-01-27T09:39:55Z</time>
      </trkpt>
      <trkpt lat="44.18303" lon="7.52284">
        <ele>1649.28</ele>
        <time>2020-01-27T09:40:07Z</time>
      </trkpt>
      <trkpt lat="44.18298" lon="7.52279">
        <ele>1649.76</ele>
        <time>2020-01-27T09:40:19Z</time>
      </trkpt>
      <trkpt lat="44.18294" lon="7.52276">
        <ele>1650.24</ele>
        <time>2020-01-27T09:40:32Z</time>
      </trkpt>
      <trkpt lat="44.1829" lon="7.52272">
        <ele>1652.16</ele>
        <time>2020-01-27T09:40:44Z</time>
      </trkpt>
      <trkpt lat="44.18287" lon="7.52267">
        <ele>1654.57</ele>
        <time>2020-01-27T09:40:58Z</time>
      </trkpt>
      <trkpt lat="44.18283" lon="7.52261">
        <ele>1656.01</ele>
        <time>2020-01-27T09:41:12Z</time>
      </trkpt>
      <trkpt lat="44.1828" lon="7.52255">
        <ele>1656.97</ele>
        <time>2020-01-27T09:41:28Z</time>
      </trkpt>
      <trkpt lat="44.18275" lon="7.52254">
        <ele>1659.37</ele>
        <time>2020-01-27T09:41:39Z</time>
      </trkpt>
      <trkpt lat="44.18272" lon="7.52257">
        <ele>1661.78</ele>
        <time>2020-01-27T09:41:50Z</time>
      </trkpt>
      <trkpt lat="44.18266" lon="7.52255">
        <ele>1662.74</ele>
        <time>2020-01-27T09:42:02Z</time>
      </trkpt>
      <trkpt lat="44.1826" lon="7.52253">
        <ele>1665.62</ele>
        <time>2020-01-27T09:42:13Z</time>
      </trkpt>
      <trkpt lat="44.18255" lon="7.52253">
        <ele>1668.02</ele>
        <time>2020-01-27T09:42:24Z</time>
      </trkpt>
      <trkpt lat="44.1825" lon="7.52252">
        <ele>1669.95</ele>
        <time>2020-01-27T09:42:36Z</time>
      </trkpt>
      <trkpt lat="44.18244" lon="7.52252">
        <ele>1670.43</ele>
        <time>2020-01-27T09:42:47Z</time>
      </trkpt>
      <trkpt lat="44.18241" lon="7.52252">
        <ele>1672.35</ele>
        <time>2020-01-27T09:42:58Z</time>
      </trkpt>
      <trkpt lat="44.18237" lon="7.52249">
        <ele>1672.83</ele>
        <time>2020-01-27T09:43:10Z</time>
      </trkpt>
      <trkpt lat="44.18231" lon="7.52245">
        <ele>1673.79</ele>
        <time>2020-01-27T09:43:21Z</time>
      </trkpt>
      <trkpt lat="44.18229" lon="7.52243">
        <ele>1673.79</ele>
        <time>2020-01-27T09:43:31Z</time>
      </trkpt>
      <trkpt lat="44.18228" lon="7.52247">
        <ele>1673.31</ele>
        <time>2020-01-27T09:43:40Z</time>
      </trkpt>
      <trkpt lat="44.18228" lon="7.5225">
        <ele>1674.75</ele>
        <time>2020-01-27T09:43:54Z</time>
      </trkpt>
      <trkpt lat="44.18222" lon="7.52246">
        <ele>1675.23</ele>
        <time>2020-01-27T09:44:03Z</time>
      </trkpt>
      <trkpt lat="44.18215" lon="7.52239">
        <ele>1676.2</ele>
        <time>2020-01-27T09:44:19Z</time>
      </trkpt>
      <trkpt lat="44.18209" lon="7.52234">
        <ele>1675.72</ele>
        <time>2020-01-27T09:44:28Z</time>
      </trkpt>
      <trkpt lat="44.18201" lon="7.52229">
        <ele>1675.23</ele>
        <time>2020-01-27T09:44:38Z</time>
      </trkpt>
      <trkpt lat="44.18196" lon="7.52225">
        <ele>1678.6</ele>
        <time>2020-01-27T09:44:49Z</time>
      </trkpt>
      <trkpt lat="44.1819" lon="7.52222">
        <ele>1680.04</ele>
        <time>2020-01-27T09:45:02Z</time>
      </trkpt>
      <trkpt lat="44.18187" lon="7.52221">
        <ele>1681.48</ele>
        <time>2020-01-27T09:45:10Z</time>
      </trkpt>
      <trkpt lat="44.18181" lon="7.52218">
        <ele>1684.37</ele>
        <time>2020-01-27T09:45:23Z</time>
      </trkpt>
      <trkpt lat="44.18178" lon="7.52217">
        <ele>1685.33</ele>
        <time>2020-01-27T09:45:35Z</time>
      </trkpt>
      <trkpt lat="44.18174" lon="7.52214">
        <ele>1686.77</ele>
        <time>2020-01-27T09:45:46Z</time>
      </trkpt>
      <trkpt lat="44.18171" lon="7.52211">
        <ele>1688.21</ele>
        <time>2020-01-27T09:45:57Z</time>
      </trkpt>
      <trkpt lat="44.18169" lon="7.52209">
        <ele>1690.62</ele>
        <time>2020-01-27T09:46:08Z</time>
      </trkpt>
      <trkpt lat="44.18168" lon="7.52216">
        <ele>1692.54</ele>
        <time>2020-01-27T09:46:17Z</time>
      </trkpt>
      <trkpt lat="44.18163" lon="7.52217">
        <ele>1694.46</ele>
        <time>2020-01-27T09:46:31Z</time>
      </trkpt>
      <trkpt lat="44.18158" lon="7.52211">
        <ele>1697.34</ele>
        <time>2020-01-27T09:46:42Z</time>
      </trkpt>
      <trkpt lat="44.18153" lon="7.5221">
        <ele>1698.31</ele>
        <time>2020-01-27T09:46:52Z</time>
      </trkpt>
      <trkpt lat="44.18149" lon="7.52214">
        <ele>1699.27</ele>
        <time>2020-01-27T09:47:01Z</time>
      </trkpt>
      <trkpt lat="44.18147" lon="7.52212">
        <ele>1698.79</ele>
        <time>2020-01-27T09:47:05Z</time>
      </trkpt>
      <trkpt lat="44.18148" lon="7.52205">
        <ele>1700.23</ele>
        <time>2020-01-27T09:47:16Z</time>
      </trkpt>
      <trkpt lat="44.18149" lon="7.52199">
        <ele>1702.63</ele>
        <time>2020-01-27T09:47:27Z</time>
      </trkpt>
      <trkpt lat="44.18149" lon="7.5219">
        <ele>1706.48</ele>
        <time>2020-01-27T09:47:39Z</time>
      </trkpt>
      <trkpt lat="44.18148" lon="7.52184">
        <ele>1708.4</ele>
        <time>2020-01-27T09:47:50Z</time>
      </trkpt>
      <trkpt lat="44.18142" lon="7.52183">
        <ele>1712.25</ele>
        <time>2020-01-27T09:48:02Z</time>
      </trkpt>
      <trkpt lat="44.18134" lon="7.52189">
        <ele>1716.57</ele>
        <time>2020-01-27T09:48:15Z</time>
      </trkpt>
      <trkpt lat="44.18131" lon="7.52195">
        <ele>1718.97</ele>
        <time>2020-01-27T09:48:27Z</time>
      </trkpt>
      <trkpt lat="44.18127" lon="7.522">
        <ele>1721.38</ele>
        <time>2020-01-27T09:48:39Z</time>
      </trkpt>
      <trkpt lat="44.18125" lon="7.52204">
        <ele>1722.82</ele>
        <time>2020-01-27T09:48:52Z</time>
      </trkpt>
      <trkpt lat="44.18118" lon="7.52206">
        <ele>1726.18</ele>
        <time>2020-01-27T09:49:06Z</time>
      </trkpt>
      <trkpt lat="44.18114" lon="7.52202">
        <ele>1726.18</ele>
        <time>2020-01-27T09:49:17Z</time>
      </trkpt>
      <trkpt lat="44.18108" lon="7.52198">
        <ele>1727.15</ele>
        <time>2020-01-27T09:49:28Z</time>
      </trkpt>
      <trkpt lat="44.18102" lon="7.52193">
        <ele>1726.67</ele>
        <time>2020-01-27T09:49:41Z</time>
      </trkpt>
      <trkpt lat="44.18097" lon="7.52189">
        <ele>1728.11</ele>
        <time>2020-01-27T09:49:51Z</time>
      </trkpt>
      <trkpt lat="44.181" lon="7.52187">
        <ele>1729.07</ele>
        <time>2020-01-27T09:50:06Z</time>
      </trkpt>
      <trkpt lat="44.18098" lon="7.52185">
        <ele>1730.03</ele>
        <time>2020-01-27T09:50:10Z</time>
      </trkpt>
      <trkpt lat="44.18097" lon="7.52181">
        <ele>1731.47</ele>
        <time>2020-01-27T09:50:16Z</time>
      </trkpt>
      <trkpt lat="44.18102" lon="7.52171">
        <ele>1733.88</ele>
        <time>2020-01-27T09:50:29Z</time>
      </trkpt>
      <trkpt lat="44.18105" lon="7.52161">
        <ele>1735.32</ele>
        <time>2020-01-27T09:50:39Z</time>
      </trkpt>
      <trkpt lat="44.18105" lon="7.52161">
        <ele>1735.8</ele>
        <time>2020-01-27T09:50:40Z</time>
      </trkpt>
      <trkpt lat="44.18109" lon="7.52144">
        <ele>1736.76</ele>
        <time>2020-01-27T09:50:56Z</time>
      </trkpt>
      <trkpt lat="44.18111" lon="7.52133">
        <ele>1737.72</ele>
        <time>2020-01-27T09:51:07Z</time>
      </trkpt>
      <trkpt lat="44.18112" lon="7.52122">
        <ele>1739.64</ele>
        <time>2020-01-27T09:51:20Z</time>
      </trkpt>
      <trkpt lat="44.18111" lon="7.52114">
        <ele>1741.08</ele>
        <time>2020-01-27T09:51:30Z</time>
      </trkpt>
      <trkpt lat="44.18109" lon="7.52109">
        <ele>1742.05</ele>
        <time>2020-01-27T09:51:40Z</time>
      </trkpt>
      <trkpt lat="44.1811" lon="7.52105">
        <ele>1744.93</ele>
        <time>2020-01-27T09:51:52Z</time>
      </trkpt>
      <trkpt lat="44.18107" lon="7.52096">
        <ele>1745.41</ele>
        <time>2020-01-27T09:52:03Z</time>
      </trkpt>
      <trkpt lat="44.18102" lon="7.52093">
        <ele>1745.89</ele>
        <time>2020-01-27T09:52:15Z</time>
      </trkpt>
      <trkpt lat="44.181" lon="7.52089">
        <ele>1747.81</ele>
        <time>2020-01-27T09:52:22Z</time>
      </trkpt>
      <trkpt lat="44.18097" lon="7.52077">
        <ele>1749.74</ele>
        <time>2020-01-27T09:52:35Z</time>
      </trkpt>
      <trkpt lat="44.18097" lon="7.52075">
        <ele>1749.74</ele>
        <time>2020-01-27T09:52:37Z</time>
      </trkpt>
      <trkpt lat="44.18099" lon="7.52058">
        <ele>1749.74</ele>
        <time>2020-01-27T09:52:51Z</time>
      </trkpt>
      <trkpt lat="44.18099" lon="7.52048">
        <ele>1751.18</ele>
        <time>2020-01-27T09:53:05Z</time>
      </trkpt>
      <trkpt lat="44.18102" lon="7.52038">
        <ele>1752.62</ele>
        <time>2020-01-27T09:53:19Z</time>
      </trkpt>
      <trkpt lat="44.18103" lon="7.52037">
        <ele>1752.62</ele>
        <time>2020-01-27T09:53:22Z</time>
      </trkpt>
      <trkpt lat="44.18105" lon="7.52029">
        <ele>1753.58</ele>
        <time>2020-01-27T09:53:36Z</time>
      </trkpt>
      <trkpt lat="44.18102" lon="7.52023">
        <ele>1755.5</ele>
        <time>2020-01-27T09:53:48Z</time>
      </trkpt>
      <trkpt lat="44.18102" lon="7.52022">
        <ele>1755.5</ele>
        <time>2020-01-27T09:53:49Z</time>
      </trkpt>
      <trkpt lat="44.18102" lon="7.52013">
        <ele>1758.39</ele>
        <time>2020-01-27T09:54:02Z</time>
      </trkpt>
      <trkpt lat="44.18096" lon="7.5201">
        <ele>1758.87</ele>
        <time>2020-01-27T09:54:15Z</time>
      </trkpt>
      <trkpt lat="44.18095" lon="7.52006">
        <ele>1757.91</ele>
        <time>2020-01-27T09:54:25Z</time>
      </trkpt>
      <trkpt lat="44.18095" lon="7.52004">
        <ele>1758.39</ele>
        <time>2020-01-27T09:54:28Z</time>
      </trkpt>
      <trkpt lat="44.181" lon="7.51997">
        <ele>1761.75</ele>
        <time>2020-01-27T09:54:41Z</time>
      </trkpt>
      <trkpt lat="44.18104" lon="7.51991">
        <ele>1762.23</ele>
        <time>2020-01-27T09:54:55Z</time>
      </trkpt>
      <trkpt lat="44.18105" lon="7.51983">
        <ele>1762.23</ele>
        <time>2020-01-27T09:55:06Z</time>
      </trkpt>
      <trkpt lat="44.18099" lon="7.5198">
        <ele>1758.87</ele>
        <time>2020-01-27T09:55:21Z</time>
      </trkpt>
      <trkpt lat="44.18089" lon="7.51977">
        <ele>1757.91</ele>
        <time>2020-01-27T09:55:34Z</time>
      </trkpt>
      <trkpt lat="44.18091" lon="7.51969">
        <ele>1760.31</ele>
        <time>2020-01-27T09:55:48Z</time>
      </trkpt>
      <trkpt lat="44.18094" lon="7.51963">
        <ele>1760.79</ele>
        <time>2020-01-27T09:55:58Z</time>
      </trkpt>
      <trkpt lat="44.18094" lon="7.51959">
        <ele>1761.75</ele>
        <time>2020-01-27T09:56:11Z</time>
      </trkpt>
      <trkpt lat="44.18093" lon="7.51951">
        <ele>1762.71</ele>
        <time>2020-01-27T09:56:21Z</time>
      </trkpt>
      <trkpt lat="44.18084" lon="7.51949">
        <ele>1766.08</ele>
        <time>2020-01-27T09:56:35Z</time>
      </trkpt>
      <trkpt lat="44.18084" lon="7.51943">
        <ele>1767.04</ele>
        <time>2020-01-27T09:56:47Z</time>
      </trkpt>
      <trkpt lat="44.18083" lon="7.51936">
        <ele>1767.04</ele>
        <time>2020-01-27T09:56:59Z</time>
      </trkpt>
      <trkpt lat="44.18078" lon="7.51926">
        <ele>1768</ele>
        <time>2020-01-27T09:57:12Z</time>
      </trkpt>
      <trkpt lat="44.18071" lon="7.51925">
        <ele>1769.44</ele>
        <time>2020-01-27T09:57:26Z</time>
      </trkpt>
      <trkpt lat="44.18066" lon="7.51921">
        <ele>1773.29</ele>
        <time>2020-01-27T09:57:34Z</time>
      </trkpt>
      <trkpt lat="44.18057" lon="7.5192">
        <ele>1776.17</ele>
        <time>2020-01-27T09:57:46Z</time>
      </trkpt>
      <trkpt lat="44.18051" lon="7.5192">
        <ele>1780.5</ele>
        <time>2020-01-27T09:58:03Z</time>
      </trkpt>
      <trkpt lat="44.18044" lon="7.51921">
        <ele>1781.46</ele>
        <time>2020-01-27T09:58:15Z</time>
      </trkpt>
      <trkpt lat="44.18044" lon="7.51921">
        <ele>1781.46</ele>
        <time>2020-01-27T09:58:18Z</time>
      </trkpt>
      <trkpt lat="44.18039" lon="7.51926">
        <ele>1781.94</ele>
        <time>2020-01-27T09:58:28Z</time>
      </trkpt>
      <trkpt lat="44.18034" lon="7.51939">
        <ele>1781.94</ele>
        <time>2020-01-27T09:58:44Z</time>
      </trkpt>
      <trkpt lat="44.18033" lon="7.5194">
        <ele>1782.42</ele>
        <time>2020-01-27T09:58:46Z</time>
      </trkpt>
      <trkpt lat="44.18026" lon="7.51944">
        <ele>1782.9</ele>
        <time>2020-01-27T09:58:54Z</time>
      </trkpt>
      <trkpt lat="44.18021" lon="7.51952">
        <ele>1783.38</ele>
        <time>2020-01-27T09:59:09Z</time>
      </trkpt>
      <trkpt lat="44.18018" lon="7.51961">
        <ele>1784.34</ele>
        <time>2020-01-27T09:59:19Z</time>
      </trkpt>
      <trkpt lat="44.18015" lon="7.51972">
        <ele>1784.34</ele>
        <time>2020-01-27T09:59:35Z</time>
      </trkpt>
      <trkpt lat="44.18012" lon="7.5198">
        <ele>1786.27</ele>
        <time>2020-01-27T09:59:48Z</time>
      </trkpt>
      <trkpt lat="44.18007" lon="7.51989">
        <ele>1790.59</ele>
        <time>2020-01-27T10:00:00Z</time>
      </trkpt>
      <trkpt lat="44.18002" lon="7.51992">
        <ele>1792.03</ele>
        <time>2020-01-27T10:00:16Z</time>
      </trkpt>
      <trkpt lat="44.18" lon="7.51988">
        <ele>1793</ele>
        <time>2020-01-27T10:00:24Z</time>
      </trkpt>
      <trkpt lat="44.17998" lon="7.51978">
        <ele>1795.88</ele>
        <time>2020-01-27T10:00:37Z</time>
      </trkpt>
      <trkpt lat="44.17995" lon="7.51971">
        <ele>1798.28</ele>
        <time>2020-01-27T10:00:46Z</time>
      </trkpt>
      <trkpt lat="44.17992" lon="7.51968">
        <ele>1801.17</ele>
        <time>2020-01-27T10:00:57Z</time>
      </trkpt>
      <trkpt lat="44.17983" lon="7.51969">
        <ele>1802.13</ele>
        <time>2020-01-27T10:01:13Z</time>
      </trkpt>
      <trkpt lat="44.17979" lon="7.51971">
        <ele>1802.61</ele>
        <time>2020-01-27T10:01:24Z</time>
      </trkpt>
      <trkpt lat="44.17975" lon="7.51966">
        <ele>1805.97</ele>
        <time>2020-01-27T10:01:41Z</time>
      </trkpt>
      <trkpt lat="44.17971" lon="7.5196">
        <ele>1806.45</ele>
        <time>2020-01-27T10:01:53Z</time>
      </trkpt>
      <trkpt lat="44.17966" lon="7.51955">
        <ele>1806.94</ele>
        <time>2020-01-27T10:02:07Z</time>
      </trkpt>
      <trkpt lat="44.17966" lon="7.51958">
        <ele>1806.45</ele>
        <time>2020-01-27T10:02:24Z</time>
      </trkpt>
      <trkpt lat="44.17966" lon="7.5196">
        <ele>1806.45</ele>
        <time>2020-01-27T10:02:43Z</time>
      </trkpt>
      <trkpt lat="44.17967" lon="7.51957">
        <ele>1805.97</ele>
        <time>2020-01-27T10:03:05Z</time>
      </trkpt>
      <trkpt lat="44.17965" lon="7.51955">
        <ele>1806.45</ele>
        <time>2020-01-27T10:03:20Z</time>
      </trkpt>
      <trkpt lat="44.17963" lon="7.51954">
        <ele>1809.82</ele>
        <time>2020-01-27T10:03:33Z</time>
      </trkpt>
      <trkpt lat="44.17962" lon="7.51954">
        <ele>1807.42</ele>
        <time>2020-01-27T10:03:57Z</time>
      </trkpt>
      <trkpt lat="44.17962" lon="7.51954">
        <ele>1807.42</ele>
        <time>2020-01-27T10:04:23Z</time>
      </trkpt>
      <trkpt lat="44.17963" lon="7.51955">
        <ele>1808.38</ele>
        <time>2020-01-27T10:04:48Z</time>
      </trkpt>
      <trkpt lat="44.1796" lon="7.51951">
        <ele>1808.86</ele>
        <time>2020-01-27T10:05:09Z</time>
      </trkpt>
      <trkpt lat="44.17956" lon="7.51944">
        <ele>1810.3</ele>
        <time>2020-01-27T10:05:21Z</time>
      </trkpt>
      <trkpt lat="44.17949" lon="7.51939">
        <ele>1810.78</ele>
        <time>2020-01-27T10:05:32Z</time>
      </trkpt>
      <trkpt lat="44.17946" lon="7.51937">
        <ele>1811.26</ele>
        <time>2020-01-27T10:05:38Z</time>
      </trkpt>
      <trkpt lat="44.17938" lon="7.5193">
        <ele>1814.15</ele>
        <time>2020-01-27T10:05:51Z</time>
      </trkpt>
      <trkpt lat="44.1793" lon="7.5193">
        <ele>1816.07</ele>
        <time>2020-01-27T10:06:04Z</time>
      </trkpt>
      <trkpt lat="44.17922" lon="7.51932">
        <ele>1818.47</ele>
        <time>2020-01-27T10:06:15Z</time>
      </trkpt>
      <trkpt lat="44.17913" lon="7.51936">
        <ele>1820.87</ele>
        <time>2020-01-27T10:06:29Z</time>
      </trkpt>
      <trkpt lat="44.17908" lon="7.51938">
        <ele>1819.43</ele>
        <time>2020-01-27T10:06:34Z</time>
      </trkpt>
      <trkpt lat="44.17903" lon="7.51941">
        <ele>1817.99</ele>
        <time>2020-01-27T10:06:40Z</time>
      </trkpt>
      <trkpt lat="44.17893" lon="7.51936">
        <ele>1816.55</ele>
        <time>2020-01-27T10:06:49Z</time>
      </trkpt>
      <trkpt lat="44.17888" lon="7.51931">
        <ele>1816.55</ele>
        <time>2020-01-27T10:07:00Z</time>
      </trkpt>
      <trkpt lat="44.17886" lon="7.51922">
        <ele>1817.51</ele>
        <time>2020-01-27T10:07:12Z</time>
      </trkpt>
      <trkpt lat="44.17883" lon="7.51913">
        <ele>1818.47</ele>
        <time>2020-01-27T10:07:25Z</time>
      </trkpt>
      <trkpt lat="44.17881" lon="7.51905">
        <ele>1819.91</ele>
        <time>2020-01-27T10:07:37Z</time>
      </trkpt>
      <trkpt lat="44.17878" lon="7.51896">
        <ele>1822.32</ele>
        <time>2020-01-27T10:07:47Z</time>
      </trkpt>
      <trkpt lat="44.17877" lon="7.51886">
        <ele>1823.28</ele>
        <time>2020-01-27T10:07:59Z</time>
      </trkpt>
      <trkpt lat="44.17872" lon="7.51877">
        <ele>1823.76</ele>
        <time>2020-01-27T10:08:11Z</time>
      </trkpt>
      <trkpt lat="44.17869" lon="7.51871">
        <ele>1825.2</ele>
        <time>2020-01-27T10:08:18Z</time>
      </trkpt>
      <trkpt lat="44.17862" lon="7.51863">
        <ele>1826.16</ele>
        <time>2020-01-27T10:08:30Z</time>
      </trkpt>
      <trkpt lat="44.17858" lon="7.51858">
        <ele>1827.6</ele>
        <time>2020-01-27T10:08:40Z</time>
      </trkpt>
      <trkpt lat="44.17852" lon="7.51848">
        <ele>1829.05</ele>
        <time>2020-01-27T10:08:54Z</time>
      </trkpt>
      <trkpt lat="44.17849" lon="7.51839">
        <ele>1832.41</ele>
        <time>2020-01-27T10:09:11Z</time>
      </trkpt>
      <trkpt lat="44.17845" lon="7.51836">
        <ele>1833.37</ele>
        <time>2020-01-27T10:09:20Z</time>
      </trkpt>
      <trkpt lat="44.17836" lon="7.51837">
        <ele>1836.74</ele>
        <time>2020-01-27T10:09:34Z</time>
      </trkpt>
      <trkpt lat="44.17832" lon="7.51838">
        <ele>1839.62</ele>
        <time>2020-01-27T10:09:45Z</time>
      </trkpt>
      <trkpt lat="44.17827" lon="7.51838">
        <ele>1840.1</ele>
        <time>2020-01-27T10:09:58Z</time>
      </trkpt>
      <trkpt lat="44.17831" lon="7.5183">
        <ele>1841.54</ele>
        <time>2020-01-27T10:10:12Z</time>
      </trkpt>
      <trkpt lat="44.17831" lon="7.51819">
        <ele>1843.95</ele>
        <time>2020-01-27T10:10:26Z</time>
      </trkpt>
      <trkpt lat="44.17831" lon="7.5181">
        <ele>1844.43</ele>
        <time>2020-01-27T10:10:39Z</time>
      </trkpt>
      <trkpt lat="44.17828" lon="7.51806">
        <ele>1844.43</ele>
        <time>2020-01-27T10:10:50Z</time>
      </trkpt>
      <trkpt lat="44.17821" lon="7.51811">
        <ele>1847.79</ele>
        <time>2020-01-27T10:11:04Z</time>
      </trkpt>
      <trkpt lat="44.17816" lon="7.51813">
        <ele>1850.19</ele>
        <time>2020-01-27T10:11:16Z</time>
      </trkpt>
      <trkpt lat="44.17805" lon="7.51812">
        <ele>1852.12</ele>
        <time>2020-01-27T10:11:30Z</time>
      </trkpt>
      <trkpt lat="44.17801" lon="7.51807">
        <ele>1855.48</ele>
        <time>2020-01-27T10:11:43Z</time>
      </trkpt>
      <trkpt lat="44.17804" lon="7.51794">
        <ele>1855</ele>
        <time>2020-01-27T10:11:57Z</time>
      </trkpt>
      <trkpt lat="44.17805" lon="7.51787">
        <ele>1856.92</ele>
        <time>2020-01-27T10:12:12Z</time>
      </trkpt>
      <trkpt lat="44.17806" lon="7.51783">
        <ele>1857.4</ele>
        <time>2020-01-27T10:12:26Z</time>
      </trkpt>
      <trkpt lat="44.17807" lon="7.5178">
        <ele>1857.89</ele>
        <time>2020-01-27T10:12:36Z</time>
      </trkpt>
      <trkpt lat="44.178" lon="7.51778">
        <ele>1860.77</ele>
        <time>2020-01-27T10:12:49Z</time>
      </trkpt>
      <trkpt lat="44.1779" lon="7.51777">
        <ele>1864.61</ele>
        <time>2020-01-27T10:13:05Z</time>
      </trkpt>
      <trkpt lat="44.17786" lon="7.51779">
        <ele>1866.06</ele>
        <time>2020-01-27T10:13:23Z</time>
      </trkpt>
      <trkpt lat="44.1778" lon="7.51777">
        <ele>1868.46</ele>
        <time>2020-01-27T10:13:38Z</time>
      </trkpt>
      <trkpt lat="44.17782" lon="7.51775">
        <ele>1869.9</ele>
        <time>2020-01-27T10:13:46Z</time>
      </trkpt>
      <trkpt lat="44.17786" lon="7.51772">
        <ele>1871.82</ele>
        <time>2020-01-27T10:14:01Z</time>
      </trkpt>
      <trkpt lat="44.17787" lon="7.51767">
        <ele>1872.79</ele>
        <time>2020-01-27T10:14:17Z</time>
      </trkpt>
      <trkpt lat="44.17786" lon="7.51766">
        <ele>1875.19</ele>
        <time>2020-01-27T10:14:32Z</time>
      </trkpt>
      <trkpt lat="44.1778" lon="7.51766">
        <ele>1875.19</ele>
        <time>2020-01-27T10:14:49Z</time>
      </trkpt>
      <trkpt lat="44.17775" lon="7.51764">
        <ele>1876.63</ele>
        <time>2020-01-27T10:15:02Z</time>
      </trkpt>
      <trkpt lat="44.17773" lon="7.51763">
        <ele>1877.11</ele>
        <time>2020-01-27T10:15:27Z</time>
      </trkpt>
      <trkpt lat="44.1777" lon="7.51761">
        <ele>1876.63</ele>
        <time>2020-01-27T10:15:33Z</time>
      </trkpt>
      <trkpt lat="44.17768" lon="7.51753">
        <ele>1878.55</ele>
        <time>2020-01-27T10:15:46Z</time>
      </trkpt>
      <trkpt lat="44.1776" lon="7.51746">
        <ele>1879.51</ele>
        <time>2020-01-27T10:15:59Z</time>
      </trkpt>
      <trkpt lat="44.17753" lon="7.51744">
        <ele>1882.4</ele>
        <time>2020-01-27T10:16:11Z</time>
      </trkpt>
      <trkpt lat="44.17749" lon="7.51741">
        <ele>1884.8</ele>
        <time>2020-01-27T10:16:25Z</time>
      </trkpt>
      <trkpt lat="44.1775" lon="7.51732">
        <ele>1888.17</ele>
        <time>2020-01-27T10:16:39Z</time>
      </trkpt>
      <trkpt lat="44.17746" lon="7.51724">
        <ele>1889.13</ele>
        <time>2020-01-27T10:16:52Z</time>
      </trkpt>
      <trkpt lat="44.17739" lon="7.51727">
        <ele>1890.09</ele>
        <time>2020-01-27T10:17:04Z</time>
      </trkpt>
      <trkpt lat="44.17734" lon="7.51735">
        <ele>1892.49</ele>
        <time>2020-01-27T10:17:18Z</time>
      </trkpt>
      <trkpt lat="44.17729" lon="7.51733">
        <ele>1894.9</ele>
        <time>2020-01-27T10:17:31Z</time>
      </trkpt>
      <trkpt lat="44.17725" lon="7.51734">
        <ele>1897.3</ele>
        <time>2020-01-27T10:17:42Z</time>
      </trkpt>
      <trkpt lat="44.17716" lon="7.51739">
        <ele>1898.26</ele>
        <time>2020-01-27T10:17:56Z</time>
      </trkpt>
      <trkpt lat="44.17714" lon="7.51732">
        <ele>1898.26</ele>
        <time>2020-01-27T10:18:08Z</time>
      </trkpt>
      <trkpt lat="44.17712" lon="7.51722">
        <ele>1898.74</ele>
        <time>2020-01-27T10:18:21Z</time>
      </trkpt>
      <trkpt lat="44.17708" lon="7.51713">
        <ele>1899.7</ele>
        <time>2020-01-27T10:18:35Z</time>
      </trkpt>
      <trkpt lat="44.17698" lon="7.51707">
        <ele>1900.66</ele>
        <time>2020-01-27T10:18:49Z</time>
      </trkpt>
      <trkpt lat="44.17694" lon="7.51707">
        <ele>1903.07</ele>
        <time>2020-01-27T10:19:04Z</time>
      </trkpt>
      <trkpt lat="44.17695" lon="7.51707">
        <ele>1903.55</ele>
        <time>2020-01-27T10:19:19Z</time>
      </trkpt>
      <trkpt lat="44.17694" lon="7.51707">
        <ele>1904.03</ele>
        <time>2020-01-27T10:19:44Z</time>
      </trkpt>
      <trkpt lat="44.17689" lon="7.51703">
        <ele>1905.47</ele>
        <time>2020-01-27T10:19:59Z</time>
      </trkpt>
      <trkpt lat="44.17683" lon="7.51701">
        <ele>1906.91</ele>
        <time>2020-01-27T10:20:06Z</time>
      </trkpt>
      <trkpt lat="44.17676" lon="7.51699">
        <ele>1907.87</ele>
        <time>2020-01-27T10:20:14Z</time>
      </trkpt>
      <trkpt lat="44.17668" lon="7.51699">
        <ele>1910.76</ele>
        <time>2020-01-27T10:20:27Z</time>
      </trkpt>
      <trkpt lat="44.17663" lon="7.51702">
        <ele>1912.68</ele>
        <time>2020-01-27T10:20:38Z</time>
      </trkpt>
      <trkpt lat="44.17659" lon="7.51703">
        <ele>1914.12</ele>
        <time>2020-01-27T10:20:53Z</time>
      </trkpt>
      <trkpt lat="44.17658" lon="7.51706">
        <ele>1914.6</ele>
        <time>2020-01-27T10:21:03Z</time>
      </trkpt>
      <trkpt lat="44.17665" lon="7.51715">
        <ele>1915.08</ele>
        <time>2020-01-27T10:21:17Z</time>
      </trkpt>
      <trkpt lat="44.17667" lon="7.51721">
        <ele>1917.49</ele>
        <time>2020-01-27T10:21:33Z</time>
      </trkpt>
      <trkpt lat="44.17667" lon="7.51723">
        <ele>1918.93</ele>
        <time>2020-01-27T10:21:36Z</time>
      </trkpt>
      <trkpt lat="44.17666" lon="7.51721">
        <ele>1918.45</ele>
        <time>2020-01-27T10:21:45Z</time>
      </trkpt>
      <trkpt lat="44.17656" lon="7.5172">
        <ele>1920.85</ele>
        <time>2020-01-27T10:21:58Z</time>
      </trkpt>
      <trkpt lat="44.1765" lon="7.51722">
        <ele>1921.81</ele>
        <time>2020-01-27T10:22:08Z</time>
      </trkpt>
      <trkpt lat="44.17654" lon="7.5173">
        <ele>1921.81</ele>
        <time>2020-01-27T10:22:19Z</time>
      </trkpt>
      <trkpt lat="44.1766" lon="7.51738">
        <ele>1924.22</ele>
        <time>2020-01-27T10:22:36Z</time>
      </trkpt>
      <trkpt lat="44.17663" lon="7.51743">
        <ele>1927.58</ele>
        <time>2020-01-27T10:22:51Z</time>
      </trkpt>
      <trkpt lat="44.17664" lon="7.51747">
        <ele>1929.5</ele>
        <time>2020-01-27T10:23:04Z</time>
      </trkpt>
      <trkpt lat="44.17661" lon="7.51742">
        <ele>1929.98</ele>
        <time>2020-01-27T10:23:13Z</time>
      </trkpt>
      <trkpt lat="44.17659" lon="7.5174">
        <ele>1931.91</ele>
        <time>2020-01-27T10:23:32Z</time>
      </trkpt>
      <trkpt lat="44.17653" lon="7.51741">
        <ele>1933.83</ele>
        <time>2020-01-27T10:23:46Z</time>
      </trkpt>
      <trkpt lat="44.17654" lon="7.51748">
        <ele>1933.83</ele>
        <time>2020-01-27T10:24:01Z</time>
      </trkpt>
      <trkpt lat="44.17657" lon="7.51757">
        <ele>1933.83</ele>
        <time>2020-01-27T10:24:14Z</time>
      </trkpt>
      <trkpt lat="44.17654" lon="7.51762">
        <ele>1936.23</ele>
        <time>2020-01-27T10:24:28Z</time>
      </trkpt>
      <trkpt lat="44.17648" lon="7.5177">
        <ele>1938.16</ele>
        <time>2020-01-27T10:24:41Z</time>
      </trkpt>
      <trkpt lat="44.17642" lon="7.51777">
        <ele>1941.04</ele>
        <time>2020-01-27T10:24:55Z</time>
      </trkpt>
      <trkpt lat="44.17638" lon="7.51784">
        <ele>1941.52</ele>
        <time>2020-01-27T10:25:11Z</time>
      </trkpt>
      <trkpt lat="44.17631" lon="7.5179">
        <ele>1943.44</ele>
        <time>2020-01-27T10:25:25Z</time>
      </trkpt>
      <trkpt lat="44.17623" lon="7.51797">
        <ele>1944.88</ele>
        <time>2020-01-27T10:25:39Z</time>
      </trkpt>
      <trkpt lat="44.17619" lon="7.51803">
        <ele>1945.85</ele>
        <time>2020-01-27T10:25:50Z</time>
      </trkpt>
      <trkpt lat="44.17614" lon="7.5181">
        <ele>1947.29</ele>
        <time>2020-01-27T10:26:02Z</time>
      </trkpt>
      <trkpt lat="44.17608" lon="7.51818">
        <ele>1947.77</ele>
        <time>2020-01-27T10:26:14Z</time>
      </trkpt>
      <trkpt lat="44.17609" lon="7.5182">
        <ele>1946.33</ele>
        <time>2020-01-27T10:26:28Z</time>
      </trkpt>
      <trkpt lat="44.17609" lon="7.51821">
        <ele>1947.29</ele>
        <time>2020-01-27T10:26:46Z</time>
      </trkpt>
      <trkpt lat="44.17608" lon="7.51819">
        <ele>1947.29</ele>
        <time>2020-01-27T10:27:05Z</time>
      </trkpt>
      <trkpt lat="44.17608" lon="7.51823">
        <ele>1947.29</ele>
        <time>2020-01-27T10:27:19Z</time>
      </trkpt>
      <trkpt lat="44.17607" lon="7.51825">
        <ele>1947.29</ele>
        <time>2020-01-27T10:27:21Z</time>
      </trkpt>
      <trkpt lat="44.17603" lon="7.51823">
        <ele>1950.17</ele>
        <time>2020-01-27T10:27:31Z</time>
      </trkpt>
      <trkpt lat="44.17601" lon="7.51812">
        <ele>1952.57</ele>
        <time>2020-01-27T10:27:45Z</time>
      </trkpt>
      <trkpt lat="44.17598" lon="7.5182">
        <ele>1953.54</ele>
        <time>2020-01-27T10:27:53Z</time>
      </trkpt>
      <trkpt lat="44.17596" lon="7.51825">
        <ele>1954.02</ele>
        <time>2020-01-27T10:28:07Z</time>
      </trkpt>
      <trkpt lat="44.17596" lon="7.51831">
        <ele>1955.46</ele>
        <time>2020-01-27T10:28:25Z</time>
      </trkpt>
      <trkpt lat="44.17592" lon="7.51846">
        <ele>1955.94</ele>
        <time>2020-01-27T10:28:40Z</time>
      </trkpt>
      <trkpt lat="44.17589" lon="7.51853">
        <ele>1957.38</ele>
        <time>2020-01-27T10:28:51Z</time>
      </trkpt>
      <trkpt lat="44.17587" lon="7.51857">
        <ele>1960.27</ele>
        <time>2020-01-27T10:29:05Z</time>
      </trkpt>
      <trkpt lat="44.17586" lon="7.51855">
        <ele>1960.75</ele>
        <time>2020-01-27T10:29:18Z</time>
      </trkpt>
      <trkpt lat="44.17584" lon="7.51842">
        <ele>1963.15</ele>
        <time>2020-01-27T10:29:32Z</time>
      </trkpt>
      <trkpt lat="44.17582" lon="7.51833">
        <ele>1964.11</ele>
        <time>2020-01-27T10:29:45Z</time>
      </trkpt>
      <trkpt lat="44.17576" lon="7.5183">
        <ele>1964.11</ele>
        <time>2020-01-27T10:29:59Z</time>
      </trkpt>
      <trkpt lat="44.17567" lon="7.51831">
        <ele>1967.96</ele>
        <time>2020-01-27T10:30:16Z</time>
      </trkpt>
      <trkpt lat="44.17565" lon="7.51832">
        <ele>1968.44</ele>
        <time>2020-01-27T10:30:21Z</time>
      </trkpt>
      <trkpt lat="44.17557" lon="7.51833">
        <ele>1969.88</ele>
        <time>2020-01-27T10:30:37Z</time>
      </trkpt>
      <trkpt lat="44.17551" lon="7.51832">
        <ele>1972.28</ele>
        <time>2020-01-27T10:30:52Z</time>
      </trkpt>
      <trkpt lat="44.17546" lon="7.51835">
        <ele>1972.76</ele>
        <time>2020-01-27T10:31:02Z</time>
      </trkpt>
      <trkpt lat="44.17541" lon="7.51839">
        <ele>1974.69</ele>
        <time>2020-01-27T10:31:12Z</time>
      </trkpt>
      <trkpt lat="44.17537" lon="7.51841">
        <ele>1975.17</ele>
        <time>2020-01-27T10:31:16Z</time>
      </trkpt>
      <trkpt lat="44.17525" lon="7.5185">
        <ele>1973.24</ele>
        <time>2020-01-27T10:31:29Z</time>
      </trkpt>
      <trkpt lat="44.17514" lon="7.51856">
        <ele>1973.24</ele>
        <time>2020-01-27T10:31:43Z</time>
      </trkpt>
      <trkpt lat="44.17506" lon="7.51861">
        <ele>1975.17</ele>
        <time>2020-01-27T10:31:56Z</time>
      </trkpt>
      <trkpt lat="44.17501" lon="7.51864">
        <ele>1977.57</ele>
        <time>2020-01-27T10:32:10Z</time>
      </trkpt>
      <trkpt lat="44.17491" lon="7.51868">
        <ele>1981.9</ele>
        <time>2020-01-27T10:32:27Z</time>
      </trkpt>
      <trkpt lat="44.17484" lon="7.51872">
        <ele>1983.34</ele>
        <time>2020-01-27T10:32:43Z</time>
      </trkpt>
      <trkpt lat="44.17475" lon="7.51875">
        <ele>1983.82</ele>
        <time>2020-01-27T10:32:56Z</time>
      </trkpt>
      <trkpt lat="44.17468" lon="7.51877">
        <ele>1984.3</ele>
        <time>2020-01-27T10:33:09Z</time>
      </trkpt>
      <trkpt lat="44.1746" lon="7.51874">
        <ele>1987.18</ele>
        <time>2020-01-27T10:33:23Z</time>
      </trkpt>
      <trkpt lat="44.17452" lon="7.51872">
        <ele>1985.74</ele>
        <time>2020-01-27T10:33:36Z</time>
      </trkpt>
      <trkpt lat="44.17449" lon="7.51871">
        <ele>1986.7</ele>
        <time>2020-01-27T10:33:53Z</time>
      </trkpt>
      <trkpt lat="44.17443" lon="7.51865">
        <ele>1987.66</ele>
        <time>2020-01-27T10:34:07Z</time>
      </trkpt>
      <trkpt lat="44.1744" lon="7.51861">
        <ele>1988.14</ele>
        <time>2020-01-27T10:34:19Z</time>
      </trkpt>
      <trkpt lat="44.17441" lon="7.51859">
        <ele>1990.55</ele>
        <time>2020-01-27T10:34:39Z</time>
      </trkpt>
      <trkpt lat="44.17442" lon="7.5186">
        <ele>1989.1</ele>
        <time>2020-01-27T10:35:01Z</time>
      </trkpt>
      <trkpt lat="44.17441" lon="7.51863">
        <ele>1990.07</ele>
        <time>2020-01-27T10:35:21Z</time>
      </trkpt>
      <trkpt lat="44.1744" lon="7.51861">
        <ele>1989.59</ele>
        <time>2020-01-27T10:35:37Z</time>
      </trkpt>
      <trkpt lat="44.17438" lon="7.51863">
        <ele>1990.55</ele>
        <time>2020-01-27T10:35:49Z</time>
      </trkpt>
      <trkpt lat="44.17439" lon="7.51876">
        <ele>1992.95</ele>
        <time>2020-01-27T10:36:04Z</time>
      </trkpt>
      <trkpt lat="44.17438" lon="7.51882">
        <ele>1993.43</ele>
        <time>2020-01-27T10:36:17Z</time>
      </trkpt>
      <trkpt lat="44.17432" lon="7.51878">
        <ele>1995.83</ele>
        <time>2020-01-27T10:36:28Z</time>
      </trkpt>
      <trkpt lat="44.17425" lon="7.51871">
        <ele>1997.28</ele>
        <time>2020-01-27T10:36:42Z</time>
      </trkpt>
      <trkpt lat="44.17421" lon="7.5187">
        <ele>1998.24</ele>
        <time>2020-01-27T10:36:53Z</time>
      </trkpt>
      <trkpt lat="44.17422" lon="7.5188">
        <ele>2000.16</ele>
        <time>2020-01-27T10:37:07Z</time>
      </trkpt>
      <trkpt lat="44.17422" lon="7.5189">
        <ele>2000.64</ele>
        <time>2020-01-27T10:37:26Z</time>
      </trkpt>
      <trkpt lat="44.1742" lon="7.51892">
        <ele>2001.12</ele>
        <time>2020-01-27T10:37:36Z</time>
      </trkpt>
      <trkpt lat="44.17414" lon="7.51883">
        <ele>2002.56</ele>
        <time>2020-01-27T10:37:49Z</time>
      </trkpt>
      <trkpt lat="44.17409" lon="7.51879">
        <ele>2003.52</ele>
        <time>2020-01-27T10:38:05Z</time>
      </trkpt>
      <trkpt lat="44.17409" lon="7.51891">
        <ele>2004.97</ele>
        <time>2020-01-27T10:38:19Z</time>
      </trkpt>
      <trkpt lat="44.17409" lon="7.519">
        <ele>2008.33</ele>
        <time>2020-01-27T10:38:33Z</time>
      </trkpt>
      <trkpt lat="44.17409" lon="7.51906">
        <ele>2009.77</ele>
        <time>2020-01-27T10:38:46Z</time>
      </trkpt>
      <trkpt lat="44.17406" lon="7.51906">
        <ele>2011.22</ele>
        <time>2020-01-27T10:38:58Z</time>
      </trkpt>
      <trkpt lat="44.17401" lon="7.51903">
        <ele>2012.66</ele>
        <time>2020-01-27T10:39:06Z</time>
      </trkpt>
      <trkpt lat="44.17395" lon="7.51898">
        <ele>2014.58</ele>
        <time>2020-01-27T10:39:17Z</time>
      </trkpt>
      <trkpt lat="44.17392" lon="7.51894">
        <ele>2014.58</ele>
        <time>2020-01-27T10:39:29Z</time>
      </trkpt>
      <trkpt lat="44.17388" lon="7.51895">
        <ele>2015.06</ele>
        <time>2020-01-27T10:39:39Z</time>
      </trkpt>
      <trkpt lat="44.17389" lon="7.51908">
        <ele>2016.98</ele>
        <time>2020-01-27T10:39:54Z</time>
      </trkpt>
      <trkpt lat="44.1739" lon="7.51916">
        <ele>2019.87</ele>
        <time>2020-01-27T10:40:08Z</time>
      </trkpt>
      <trkpt lat="44.17387" lon="7.51913">
        <ele>2019.87</ele>
        <time>2020-01-27T10:40:15Z</time>
      </trkpt>
      <trkpt lat="44.17381" lon="7.51902">
        <ele>2021.31</ele>
        <time>2020-01-27T10:40:29Z</time>
      </trkpt>
      <trkpt lat="44.17378" lon="7.51894">
        <ele>2021.31</ele>
        <time>2020-01-27T10:40:47Z</time>
      </trkpt>
      <trkpt lat="44.17372" lon="7.51884">
        <ele>2022.75</ele>
        <time>2020-01-27T10:41:05Z</time>
      </trkpt>
      <trkpt lat="44.1737" lon="7.51891">
        <ele>2024.67</ele>
        <time>2020-01-27T10:41:14Z</time>
      </trkpt>
      <trkpt lat="44.17368" lon="7.51902">
        <ele>2027.08</ele>
        <time>2020-01-27T10:41:27Z</time>
      </trkpt>
      <trkpt lat="44.17368" lon="7.51906">
        <ele>2027.08</ele>
        <time>2020-01-27T10:41:31Z</time>
      </trkpt>
      <trkpt lat="44.17367" lon="7.51919">
        <ele>2027.56</ele>
        <time>2020-01-27T10:41:44Z</time>
      </trkpt>
      <trkpt lat="44.17366" lon="7.51921">
        <ele>2028.52</ele>
        <time>2020-01-27T10:41:55Z</time>
      </trkpt>
      <trkpt lat="44.17359" lon="7.51913">
        <ele>2031.4</ele>
        <time>2020-01-27T10:42:08Z</time>
      </trkpt>
      <trkpt lat="44.17355" lon="7.51909">
        <ele>2033.81</ele>
        <time>2020-01-27T10:42:19Z</time>
      </trkpt>
      <trkpt lat="44.17351" lon="7.51904">
        <ele>2035.73</ele>
        <time>2020-01-27T10:42:31Z</time>
      </trkpt>
      <trkpt lat="44.17349" lon="7.519">
        <ele>2036.21</ele>
        <time>2020-01-27T10:42:49Z</time>
      </trkpt>
      <trkpt lat="44.17344" lon="7.51895">
        <ele>2038.61</ele>
        <time>2020-01-27T10:43:00Z</time>
      </trkpt>
      <trkpt lat="44.17342" lon="7.51889">
        <ele>2041.5</ele>
        <time>2020-01-27T10:43:10Z</time>
      </trkpt>
      <trkpt lat="44.17339" lon="7.51879">
        <ele>2042.94</ele>
        <time>2020-01-27T10:43:25Z</time>
      </trkpt>
      <trkpt lat="44.17337" lon="7.51874">
        <ele>2043.9</ele>
        <time>2020-01-27T10:43:32Z</time>
      </trkpt>
      <trkpt lat="44.17331" lon="7.51868">
        <ele>2045.34</ele>
        <time>2020-01-27T10:43:44Z</time>
      </trkpt>
      <trkpt lat="44.17327" lon="7.5188">
        <ele>2048.23</ele>
        <time>2020-01-27T10:43:58Z</time>
      </trkpt>
      <trkpt lat="44.17325" lon="7.5189">
        <ele>2051.59</ele>
        <time>2020-01-27T10:44:11Z</time>
      </trkpt>
      <trkpt lat="44.17324" lon="7.51889">
        <ele>2051.59</ele>
        <time>2020-01-27T10:44:19Z</time>
      </trkpt>
      <trkpt lat="44.17318" lon="7.51876">
        <ele>2053.03</ele>
        <time>2020-01-27T10:44:34Z</time>
      </trkpt>
      <trkpt lat="44.17315" lon="7.51869">
        <ele>2054.96</ele>
        <time>2020-01-27T10:44:46Z</time>
      </trkpt>
      <trkpt lat="44.1731" lon="7.51863">
        <ele>2054.96</ele>
        <time>2020-01-27T10:45:01Z</time>
      </trkpt>
      <trkpt lat="44.17307" lon="7.51863">
        <ele>2056.4</ele>
        <time>2020-01-27T10:45:12Z</time>
      </trkpt>
      <trkpt lat="44.17306" lon="7.51875">
        <ele>2059.76</ele>
        <time>2020-01-27T10:45:23Z</time>
      </trkpt>
      <trkpt lat="44.17304" lon="7.51884">
        <ele>2062.65</ele>
        <time>2020-01-27T10:45:36Z</time>
      </trkpt>
      <trkpt lat="44.17303" lon="7.51893">
        <ele>2064.09</ele>
        <time>2020-01-27T10:45:53Z</time>
      </trkpt>
      <trkpt lat="44.173" lon="7.51892">
        <ele>2065.53</ele>
        <time>2020-01-27T10:46:03Z</time>
      </trkpt>
      <trkpt lat="44.17297" lon="7.51884">
        <ele>2068.41</ele>
        <time>2020-01-27T10:46:13Z</time>
      </trkpt>
      <trkpt lat="44.17295" lon="7.51876">
        <ele>2069.38</ele>
        <time>2020-01-27T10:46:30Z</time>
      </trkpt>
      <trkpt lat="44.17292" lon="7.51868">
        <ele>2069.38</ele>
        <time>2020-01-27T10:46:43Z</time>
      </trkpt>
      <trkpt lat="44.17288" lon="7.51877">
        <ele>2069.38</ele>
        <time>2020-01-27T10:46:56Z</time>
      </trkpt>
      <trkpt lat="44.17286" lon="7.51887">
        <ele>2070.82</ele>
        <time>2020-01-27T10:47:07Z</time>
      </trkpt>
      <trkpt lat="44.17285" lon="7.51886">
        <ele>2071.78</ele>
        <time>2020-01-27T10:47:25Z</time>
      </trkpt>
      <trkpt lat="44.17285" lon="7.51887">
        <ele>2073.7</ele>
        <time>2020-01-27T10:47:46Z</time>
      </trkpt>
      <trkpt lat="44.17283" lon="7.51882">
        <ele>2072.74</ele>
        <time>2020-01-27T10:47:57Z</time>
      </trkpt>
      <trkpt lat="44.17283" lon="7.51881">
        <ele>2072.74</ele>
        <time>2020-01-27T10:47:58Z</time>
      </trkpt>
      <trkpt lat="44.17281" lon="7.51868">
        <ele>2073.22</ele>
        <time>2020-01-27T10:48:12Z</time>
      </trkpt>
      <trkpt lat="44.1728" lon="7.51864">
        <ele>2073.7</ele>
        <time>2020-01-27T10:48:24Z</time>
      </trkpt>
      <trkpt lat="44.1728" lon="7.51861">
        <ele>2073.22</ele>
        <time>2020-01-27T10:48:28Z</time>
      </trkpt>
      <trkpt lat="44.17278" lon="7.51866">
        <ele>2075.14</ele>
        <time>2020-01-27T10:48:41Z</time>
      </trkpt>
      <trkpt lat="44.17276" lon="7.51871">
        <ele>2076.1</ele>
        <time>2020-01-27T10:48:55Z</time>
      </trkpt>
      <trkpt lat="44.17276" lon="7.51869">
        <ele>2078.03</ele>
        <time>2020-01-27T10:49:17Z</time>
      </trkpt>
      <trkpt lat="44.17272" lon="7.51877">
        <ele>2079.95</ele>
        <time>2020-01-27T10:49:32Z</time>
      </trkpt>
      <trkpt lat="44.17271" lon="7.51879">
        <ele>2080.91</ele>
        <time>2020-01-27T10:49:46Z</time>
      </trkpt>
      <trkpt lat="44.1727" lon="7.51882">
        <ele>2081.87</ele>
        <time>2020-01-27T10:50:01Z</time>
      </trkpt>
      <trkpt lat="44.17268" lon="7.51874">
        <ele>2081.39</ele>
        <time>2020-01-27T10:50:11Z</time>
      </trkpt>
      <trkpt lat="44.17266" lon="7.51869">
        <ele>2080.91</ele>
        <time>2020-01-27T10:50:24Z</time>
      </trkpt>
      <trkpt lat="44.17263" lon="7.51881">
        <ele>2082.83</ele>
        <time>2020-01-27T10:50:38Z</time>
      </trkpt>
      <trkpt lat="44.17263" lon="7.51888">
        <ele>2083.79</ele>
        <time>2020-01-27T10:50:51Z</time>
      </trkpt>
      <trkpt lat="44.17259" lon="7.51884">
        <ele>2084.28</ele>
        <time>2020-01-27T10:51:03Z</time>
      </trkpt>
      <trkpt lat="44.17257" lon="7.51877">
        <ele>2084.28</ele>
        <time>2020-01-27T10:51:17Z</time>
      </trkpt>
      <trkpt lat="44.17256" lon="7.51864">
        <ele>2085.24</ele>
        <time>2020-01-27T10:51:31Z</time>
      </trkpt>
      <trkpt lat="44.17257" lon="7.51858">
        <ele>2085.72</ele>
        <time>2020-01-27T10:51:46Z</time>
      </trkpt>
      <trkpt lat="44.17258" lon="7.51851">
        <ele>2087.16</ele>
        <time>2020-01-27T10:51:59Z</time>
      </trkpt>
      <trkpt lat="44.17258" lon="7.51841">
        <ele>2087.64</ele>
        <time>2020-01-27T10:52:14Z</time>
      </trkpt>
      <trkpt lat="44.17255" lon="7.51834">
        <ele>2088.6</ele>
        <time>2020-01-27T10:52:28Z</time>
      </trkpt>
      <trkpt lat="44.1725" lon="7.51825">
        <ele>2089.08</ele>
        <time>2020-01-27T10:52:46Z</time>
      </trkpt>
      <trkpt lat="44.17247" lon="7.5182">
        <ele>2091</ele>
        <time>2020-01-27T10:53:01Z</time>
      </trkpt>
      <trkpt lat="44.17244" lon="7.51815">
        <ele>2093.41</ele>
        <time>2020-01-27T10:53:17Z</time>
      </trkpt>
      <trkpt lat="44.17242" lon="7.51814">
        <ele>2094.37</ele>
        <time>2020-01-27T10:53:30Z</time>
      </trkpt>
      <trkpt lat="44.17238" lon="7.51826">
        <ele>2096.29</ele>
        <time>2020-01-27T10:53:46Z</time>
      </trkpt>
      <trkpt lat="44.17236" lon="7.5183">
        <ele>2097.73</ele>
        <time>2020-01-27T10:53:58Z</time>
      </trkpt>
      <trkpt lat="44.17234" lon="7.51821">
        <ele>2099.18</ele>
        <time>2020-01-27T10:54:09Z</time>
      </trkpt>
      <trkpt lat="44.17234" lon="7.51815">
        <ele>2098.21</ele>
        <time>2020-01-27T10:54:22Z</time>
      </trkpt>
      <trkpt lat="44.17232" lon="7.51814">
        <ele>2099.18</ele>
        <time>2020-01-27T10:54:36Z</time>
      </trkpt>
      <trkpt lat="44.17229" lon="7.51821">
        <ele>2101.1</ele>
        <time>2020-01-27T10:54:47Z</time>
      </trkpt>
      <trkpt lat="44.17227" lon="7.51825">
        <ele>2102.54</ele>
        <time>2020-01-27T10:54:59Z</time>
      </trkpt>
      <trkpt lat="44.17226" lon="7.51815">
        <ele>2103.5</ele>
        <time>2020-01-27T10:55:10Z</time>
      </trkpt>
      <trkpt lat="44.17221" lon="7.51816">
        <ele>2105.42</ele>
        <time>2020-01-27T10:55:23Z</time>
      </trkpt>
      <trkpt lat="44.17217" lon="7.51827">
        <ele>2107.83</ele>
        <time>2020-01-27T10:55:36Z</time>
      </trkpt>
      <trkpt lat="44.17212" lon="7.51826">
        <ele>2110.71</ele>
        <time>2020-01-27T10:55:48Z</time>
      </trkpt>
      <trkpt lat="44.17208" lon="7.51819">
        <ele>2113.12</ele>
        <time>2020-01-27T10:56:01Z</time>
      </trkpt>
      <trkpt lat="44.17203" lon="7.51814">
        <ele>2115.52</ele>
        <time>2020-01-27T10:56:13Z</time>
      </trkpt>
      <trkpt lat="44.17201" lon="7.5181">
        <ele>2115.04</ele>
        <time>2020-01-27T10:56:24Z</time>
      </trkpt>
      <trkpt lat="44.17198" lon="7.51816">
        <ele>2117.44</ele>
        <time>2020-01-27T10:56:34Z</time>
      </trkpt>
      <trkpt lat="44.17194" lon="7.51823">
        <ele>2119.84</ele>
        <time>2020-01-27T10:56:47Z</time>
      </trkpt>
      <trkpt lat="44.17192" lon="7.51828">
        <ele>2121.77</ele>
        <time>2020-01-27T10:57:01Z</time>
      </trkpt>
      <trkpt lat="44.17191" lon="7.5183">
        <ele>2122.73</ele>
        <time>2020-01-27T10:57:13Z</time>
      </trkpt>
      <trkpt lat="44.17191" lon="7.51829">
        <ele>2121.77</ele>
        <time>2020-01-27T10:57:35Z</time>
      </trkpt>
      <trkpt lat="44.17188" lon="7.51829">
        <ele>2123.69</ele>
        <time>2020-01-27T10:57:48Z</time>
      </trkpt>
      <trkpt lat="44.17185" lon="7.51818">
        <ele>2125.13</ele>
        <time>2020-01-27T10:58:03Z</time>
      </trkpt>
      <trkpt lat="44.17176" lon="7.51811">
        <ele>2127.53</ele>
        <time>2020-01-27T10:58:21Z</time>
      </trkpt>
      <trkpt lat="44.17171" lon="7.51805">
        <ele>2127.53</ele>
        <time>2020-01-27T10:58:33Z</time>
      </trkpt>
      <trkpt lat="44.17167" lon="7.51801">
        <ele>2128.5</ele>
        <time>2020-01-27T10:58:45Z</time>
      </trkpt>
      <trkpt lat="44.17166" lon="7.51808">
        <ele>2131.38</ele>
        <time>2020-01-27T10:58:55Z</time>
      </trkpt>
      <trkpt lat="44.17166" lon="7.51819">
        <ele>2134.26</ele>
        <time>2020-01-27T10:59:10Z</time>
      </trkpt>
      <trkpt lat="44.17164" lon="7.51823">
        <ele>2135.71</ele>
        <time>2020-01-27T10:59:23Z</time>
      </trkpt>
      <trkpt lat="44.17163" lon="7.51827">
        <ele>2136.67</ele>
        <time>2020-01-27T10:59:39Z</time>
      </trkpt>
      <trkpt lat="44.17162" lon="7.51828">
        <ele>2138.11</ele>
        <time>2020-01-27T10:59:53Z</time>
      </trkpt>
      <trkpt lat="44.1716" lon="7.51824">
        <ele>2138.11</ele>
        <time>2020-01-27T11:00:03Z</time>
      </trkpt>
      <trkpt lat="44.17155" lon="7.51817">
        <ele>2139.07</ele>
        <time>2020-01-27T11:00:16Z</time>
      </trkpt>
      <trkpt lat="44.1715" lon="7.51807">
        <ele>2141.47</ele>
        <time>2020-01-27T11:00:34Z</time>
      </trkpt>
      <trkpt lat="44.17146" lon="7.51799">
        <ele>2143.4</ele>
        <time>2020-01-27T11:00:47Z</time>
      </trkpt>
      <trkpt lat="44.17142" lon="7.51793">
        <ele>2145.32</ele>
        <time>2020-01-27T11:01:00Z</time>
      </trkpt>
      <trkpt lat="44.17138" lon="7.51787">
        <ele>2147.72</ele>
        <time>2020-01-27T11:01:13Z</time>
      </trkpt>
      <trkpt lat="44.17135" lon="7.5178">
        <ele>2149.65</ele>
        <time>2020-01-27T11:01:24Z</time>
      </trkpt>
      <trkpt lat="44.17132" lon="7.51775">
        <ele>2151.09</ele>
        <time>2020-01-27T11:01:41Z</time>
      </trkpt>
      <trkpt lat="44.1713" lon="7.51771">
        <ele>2152.53</ele>
        <time>2020-01-27T11:01:52Z</time>
      </trkpt>
      <trkpt lat="44.17129" lon="7.51767">
        <ele>2154.93</ele>
        <time>2020-01-27T11:02:06Z</time>
      </trkpt>
      <trkpt lat="44.17128" lon="7.51765">
        <ele>2155.89</ele>
        <time>2020-01-27T11:02:21Z</time>
      </trkpt>
      <trkpt lat="44.17127" lon="7.51763">
        <ele>2155.41</ele>
        <time>2020-01-27T11:02:32Z</time>
      </trkpt>
      <trkpt lat="44.17124" lon="7.51766">
        <ele>2157.34</ele>
        <time>2020-01-27T11:02:44Z</time>
      </trkpt>
      <trkpt lat="44.17122" lon="7.51772">
        <ele>2158.78</ele>
        <time>2020-01-27T11:02:58Z</time>
      </trkpt>
      <trkpt lat="44.17119" lon="7.51782">
        <ele>2160.22</ele>
        <time>2020-01-27T11:03:12Z</time>
      </trkpt>
      <trkpt lat="44.17117" lon="7.51785">
        <ele>2163.1</ele>
        <time>2020-01-27T11:03:28Z</time>
      </trkpt>
      <trkpt lat="44.17117" lon="7.51789">
        <ele>2165.03</ele>
        <time>2020-01-27T11:03:47Z</time>
      </trkpt>
      <trkpt lat="44.17115" lon="7.51788">
        <ele>2165.99</ele>
        <time>2020-01-27T11:03:59Z</time>
      </trkpt>
      <trkpt lat="44.17112" lon="7.5178">
        <ele>2166.47</ele>
        <time>2020-01-27T11:04:13Z</time>
      </trkpt>
      <trkpt lat="44.17108" lon="7.51769">
        <ele>2167.91</ele>
        <time>2020-01-27T11:04:26Z</time>
      </trkpt>
      <trkpt lat="44.17106" lon="7.51761">
        <ele>2169.83</ele>
        <time>2020-01-27T11:04:40Z</time>
      </trkpt>
      <trkpt lat="44.17105" lon="7.51756">
        <ele>2170.79</ele>
        <time>2020-01-27T11:04:53Z</time>
      </trkpt>
      <trkpt lat="44.17105" lon="7.51752">
        <ele>2172.24</ele>
        <time>2020-01-27T11:05:08Z</time>
      </trkpt>
      <trkpt lat="44.17101" lon="7.51756">
        <ele>2174.16</ele>
        <time>2020-01-27T11:05:20Z</time>
      </trkpt>
      <trkpt lat="44.17096" lon="7.51763">
        <ele>2176.56</ele>
        <time>2020-01-27T11:05:33Z</time>
      </trkpt>
      <trkpt lat="44.17096" lon="7.51761">
        <ele>2176.56</ele>
        <time>2020-01-27T11:05:48Z</time>
      </trkpt>
      <trkpt lat="44.17095" lon="7.51754">
        <ele>2176.08</ele>
        <time>2020-01-27T11:06:02Z</time>
      </trkpt>
      <trkpt lat="44.17093" lon="7.51745">
        <ele>2178</ele>
        <time>2020-01-27T11:06:13Z</time>
      </trkpt>
      <trkpt lat="44.17092" lon="7.51746">
        <ele>2180.41</ele>
        <time>2020-01-27T11:06:38Z</time>
      </trkpt>
      <trkpt lat="44.17091" lon="7.51737">
        <ele>2181.85</ele>
        <time>2020-01-27T11:06:50Z</time>
      </trkpt>
      <trkpt lat="44.17089" lon="7.51736">
        <ele>2181.85</ele>
        <time>2020-01-27T11:06:53Z</time>
      </trkpt>
      <trkpt lat="44.17083" lon="7.51729">
        <ele>2184.25</ele>
        <time>2020-01-27T11:07:05Z</time>
      </trkpt>
      <trkpt lat="44.17075" lon="7.5172">
        <ele>2185.21</ele>
        <time>2020-01-27T11:07:23Z</time>
      </trkpt>
      <trkpt lat="44.17071" lon="7.51709">
        <ele>2187.14</ele>
        <time>2020-01-27T11:07:39Z</time>
      </trkpt>
      <trkpt lat="44.17067" lon="7.51701">
        <ele>2188.58</ele>
        <time>2020-01-27T11:07:49Z</time>
      </trkpt>
      <trkpt lat="44.17063" lon="7.51692">
        <ele>2190.5</ele>
        <time>2020-01-27T11:08:01Z</time>
      </trkpt>
      <trkpt lat="44.1706" lon="7.51682">
        <ele>2192.42</ele>
        <time>2020-01-27T11:08:17Z</time>
      </trkpt>
      <trkpt lat="44.17054" lon="7.51673">
        <ele>2194.35</ele>
        <time>2020-01-27T11:08:32Z</time>
      </trkpt>
      <trkpt lat="44.17049" lon="7.51665">
        <ele>2195.79</ele>
        <time>2020-01-27T11:08:45Z</time>
      </trkpt>
      <trkpt lat="44.17044" lon="7.5166">
        <ele>2198.67</ele>
        <time>2020-01-27T11:08:58Z</time>
      </trkpt>
      <trkpt lat="44.17036" lon="7.51647">
        <ele>2200.59</ele>
        <time>2020-01-27T11:09:16Z</time>
      </trkpt>
      <trkpt lat="44.17032" lon="7.51637">
        <ele>2201.08</ele>
        <time>2020-01-27T11:09:30Z</time>
      </trkpt>
      <trkpt lat="44.1703" lon="7.51627">
        <ele>2206.84</ele>
        <time>2020-01-27T11:09:47Z</time>
      </trkpt>
      <trkpt lat="44.17028" lon="7.51615">
        <ele>2208.29</ele>
        <time>2020-01-27T11:10:03Z</time>
      </trkpt>
      <trkpt lat="44.17026" lon="7.51604">
        <ele>2211.17</ele>
        <time>2020-01-27T11:10:19Z</time>
      </trkpt>
      <trkpt lat="44.17024" lon="7.51593">
        <ele>2214.53</ele>
        <time>2020-01-27T11:10:34Z</time>
      </trkpt>
      <trkpt lat="44.17023" lon="7.51585">
        <ele>2215.98</ele>
        <time>2020-01-27T11:10:47Z</time>
      </trkpt>
      <trkpt lat="44.17022" lon="7.51577">
        <ele>2218.38</ele>
        <time>2020-01-27T11:10:59Z</time>
      </trkpt>
      <trkpt lat="44.17022" lon="7.51572">
        <ele>2218.86</ele>
        <time>2020-01-27T11:11:14Z</time>
      </trkpt>
      <trkpt lat="44.17018" lon="7.51578">
        <ele>2219.82</ele>
        <time>2020-01-27T11:11:24Z</time>
      </trkpt>
      <trkpt lat="44.17014" lon="7.51587">
        <ele>2223.19</ele>
        <time>2020-01-27T11:11:35Z</time>
      </trkpt>
      <trkpt lat="44.17009" lon="7.51593">
        <ele>2227.99</ele>
        <time>2020-01-27T11:11:50Z</time>
      </trkpt>
      <trkpt lat="44.17009" lon="7.51584">
        <ele>2227.99</ele>
        <time>2020-01-27T11:12:02Z</time>
      </trkpt>
      <trkpt lat="44.17009" lon="7.51571">
        <ele>2228.95</ele>
        <time>2020-01-27T11:12:21Z</time>
      </trkpt>
      <trkpt lat="44.17006" lon="7.51557">
        <ele>2230.88</ele>
        <time>2020-01-27T11:12:37Z</time>
      </trkpt>
      <trkpt lat="44.17004" lon="7.5155">
        <ele>2230.4</ele>
        <time>2020-01-27T11:12:51Z</time>
      </trkpt>
      <trkpt lat="44.16999" lon="7.51557">
        <ele>2234.24</ele>
        <time>2020-01-27T11:13:02Z</time>
      </trkpt>
      <trkpt lat="44.16994" lon="7.51566">
        <ele>2236.16</ele>
        <time>2020-01-27T11:13:19Z</time>
      </trkpt>
      <trkpt lat="44.16993" lon="7.51563">
        <ele>2237.61</ele>
        <time>2020-01-27T11:13:31Z</time>
      </trkpt>
      <trkpt lat="44.16991" lon="7.51552">
        <ele>2239.05</ele>
        <time>2020-01-27T11:13:45Z</time>
      </trkpt>
      <trkpt lat="44.16991" lon="7.51552">
        <ele>2239.05</ele>
        <time>2020-01-27T11:13:46Z</time>
      </trkpt>
      <trkpt lat="44.16988" lon="7.51558">
        <ele>2241.45</ele>
        <time>2020-01-27T11:13:57Z</time>
      </trkpt>
      <trkpt lat="44.16986" lon="7.51569">
        <ele>2243.37</ele>
        <time>2020-01-27T11:14:11Z</time>
      </trkpt>
      <trkpt lat="44.16981" lon="7.51576">
        <ele>2246.26</ele>
        <time>2020-01-27T11:14:23Z</time>
      </trkpt>
      <trkpt lat="44.16978" lon="7.5158">
        <ele>2251.06</ele>
        <time>2020-01-27T11:14:35Z</time>
      </trkpt>
      <trkpt lat="44.16976" lon="7.51578">
        <ele>2250.58</ele>
        <time>2020-01-27T11:14:58Z</time>
      </trkpt>
      <trkpt lat="44.16974" lon="7.51587">
        <ele>2250.1</ele>
        <time>2020-01-27T11:15:12Z</time>
      </trkpt>
      <trkpt lat="44.1697" lon="7.51591">
        <ele>2251.06</ele>
        <time>2020-01-27T11:15:23Z</time>
      </trkpt>
      <trkpt lat="44.16968" lon="7.51585">
        <ele>2250.1</ele>
        <time>2020-01-27T11:15:36Z</time>
      </trkpt>
      <trkpt lat="44.16966" lon="7.51579">
        <ele>2251.54</ele>
        <time>2020-01-27T11:15:59Z</time>
      </trkpt>
      <trkpt lat="44.16965" lon="7.51581">
        <ele>2252.51</ele>
        <time>2020-01-27T11:16:17Z</time>
      </trkpt>
      <trkpt lat="44.16962" lon="7.51592">
        <ele>2254.43</ele>
        <time>2020-01-27T11:16:29Z</time>
      </trkpt>
      <trkpt lat="44.16959" lon="7.516">
        <ele>2255.39</ele>
        <time>2020-01-27T11:16:42Z</time>
      </trkpt>
      <trkpt lat="44.16957" lon="7.51605">
        <ele>2256.83</ele>
        <time>2020-01-27T11:17:00Z</time>
      </trkpt>
      <trkpt lat="44.16955" lon="7.51601">
        <ele>2256.83</ele>
        <time>2020-01-27T11:17:13Z</time>
      </trkpt>
      <trkpt lat="44.16953" lon="7.51593">
        <ele>2256.83</ele>
        <time>2020-01-27T11:17:28Z</time>
      </trkpt>
      <trkpt lat="44.1695" lon="7.51598">
        <ele>2257.79</ele>
        <time>2020-01-27T11:17:37Z</time>
      </trkpt>
      <trkpt lat="44.16949" lon="7.51601">
        <ele>2261.16</ele>
        <time>2020-01-27T11:18:01Z</time>
      </trkpt>
      <trkpt lat="44.16946" lon="7.51615">
        <ele>2260.68</ele>
        <time>2020-01-27T11:18:18Z</time>
      </trkpt>
      <trkpt lat="44.16945" lon="7.51624">
        <ele>2263.08</ele>
        <time>2020-01-27T11:18:33Z</time>
      </trkpt>
      <trkpt lat="44.16942" lon="7.5163">
        <ele>2264.52</ele>
        <time>2020-01-27T11:18:44Z</time>
      </trkpt>
      <trkpt lat="44.16938" lon="7.51619">
        <ele>2265.48</ele>
        <time>2020-01-27T11:18:56Z</time>
      </trkpt>
      <trkpt lat="44.16936" lon="7.5161">
        <ele>2268.85</ele>
        <time>2020-01-27T11:19:08Z</time>
      </trkpt>
      <trkpt lat="44.16934" lon="7.51617">
        <ele>2269.81</ele>
        <time>2020-01-27T11:19:21Z</time>
      </trkpt>
      <trkpt lat="44.16932" lon="7.51626">
        <ele>2271.73</ele>
        <time>2020-01-27T11:19:34Z</time>
      </trkpt>
      <trkpt lat="44.16929" lon="7.5164">
        <ele>2271.73</ele>
        <time>2020-01-27T11:19:51Z</time>
      </trkpt>
      <trkpt lat="44.16927" lon="7.51644">
        <ele>2272.69</ele>
        <time>2020-01-27T11:20:05Z</time>
      </trkpt>
      <trkpt lat="44.16926" lon="7.51649">
        <ele>2274.14</ele>
        <time>2020-01-27T11:20:25Z</time>
      </trkpt>
      <trkpt lat="44.16925" lon="7.51649">
        <ele>2277.02</ele>
        <time>2020-01-27T11:20:44Z</time>
      </trkpt>
      <trkpt lat="44.1692" lon="7.51642">
        <ele>2277.5</ele>
        <time>2020-01-27T11:20:55Z</time>
      </trkpt>
      <trkpt lat="44.16919" lon="7.51637">
        <ele>2276.54</ele>
        <time>2020-01-27T11:21:14Z</time>
      </trkpt>
      <trkpt lat="44.16917" lon="7.51633">
        <ele>2276.54</ele>
        <time>2020-01-27T11:21:19Z</time>
      </trkpt>
      <trkpt lat="44.16914" lon="7.51633">
        <ele>2277.5</ele>
        <time>2020-01-27T11:21:27Z</time>
      </trkpt>
      <trkpt lat="44.16912" lon="7.51649">
        <ele>2279.9</ele>
        <time>2020-01-27T11:21:42Z</time>
      </trkpt>
      <trkpt lat="44.16911" lon="7.5166">
        <ele>2281.35</ele>
        <time>2020-01-27T11:21:54Z</time>
      </trkpt>
      <trkpt lat="44.1691" lon="7.51657">
        <ele>2282.31</ele>
        <time>2020-01-27T11:22:04Z</time>
      </trkpt>
      <trkpt lat="44.16908" lon="7.51652">
        <ele>2283.27</ele>
        <time>2020-01-27T11:22:11Z</time>
      </trkpt>
      <trkpt lat="44.16902" lon="7.5164">
        <ele>2284.71</ele>
        <time>2020-01-27T11:22:24Z</time>
      </trkpt>
      <trkpt lat="44.16901" lon="7.51635">
        <ele>2285.19</ele>
        <time>2020-01-27T11:22:36Z</time>
      </trkpt>
      <trkpt lat="44.16899" lon="7.51644">
        <ele>2286.63</ele>
        <time>2020-01-27T11:22:49Z</time>
      </trkpt>
      <trkpt lat="44.16896" lon="7.51655">
        <ele>2289.04</ele>
        <time>2020-01-27T11:23:02Z</time>
      </trkpt>
      <trkpt lat="44.16894" lon="7.51656">
        <ele>2290.48</ele>
        <time>2020-01-27T11:23:16Z</time>
      </trkpt>
      <trkpt lat="44.16894" lon="7.51656">
        <ele>2292.4</ele>
        <time>2020-01-27T11:23:29Z</time>
      </trkpt>
      <trkpt lat="44.16892" lon="7.51649">
        <ele>2293.84</ele>
        <time>2020-01-27T11:23:46Z</time>
      </trkpt>
      <trkpt lat="44.1689" lon="7.51642">
        <ele>2296.73</ele>
        <time>2020-01-27T11:23:59Z</time>
      </trkpt>
      <trkpt lat="44.16888" lon="7.51637">
        <ele>2297.69</ele>
        <time>2020-01-27T11:24:12Z</time>
      </trkpt>
      <trkpt lat="44.16887" lon="7.51635">
        <ele>2297.69</ele>
        <time>2020-01-27T11:24:17Z</time>
      </trkpt>
      <trkpt lat="44.16884" lon="7.51644">
        <ele>2299.61</ele>
        <time>2020-01-27T11:24:30Z</time>
      </trkpt>
      <trkpt lat="44.1688" lon="7.51652">
        <ele>2302.49</ele>
        <time>2020-01-27T11:24:46Z</time>
      </trkpt>
      <trkpt lat="44.16877" lon="7.51656">
        <ele>2303.94</ele>
        <time>2020-01-27T11:25:01Z</time>
      </trkpt>
      <trkpt lat="44.16877" lon="7.51654">
        <ele>2304.9</ele>
        <time>2020-01-27T11:25:14Z</time>
      </trkpt>
      <trkpt lat="44.16876" lon="7.51643">
        <ele>2305.38</ele>
        <time>2020-01-27T11:25:27Z</time>
      </trkpt>
      <trkpt lat="44.16875" lon="7.51631">
        <ele>2305.86</ele>
        <time>2020-01-27T11:25:45Z</time>
      </trkpt>
      <trkpt lat="44.16873" lon="7.51623">
        <ele>2307.78</ele>
        <time>2020-01-27T11:26:00Z</time>
      </trkpt>
      <trkpt lat="44.16874" lon="7.51619">
        <ele>2308.74</ele>
        <time>2020-01-27T11:26:15Z</time>
      </trkpt>
      <trkpt lat="44.16872" lon="7.51621">
        <ele>2309.7</ele>
        <time>2020-01-27T11:26:31Z</time>
      </trkpt>
      <trkpt lat="44.1687" lon="7.51629">
        <ele>2311.15</ele>
        <time>2020-01-27T11:26:43Z</time>
      </trkpt>
      <trkpt lat="44.16868" lon="7.51637">
        <ele>2313.07</ele>
        <time>2020-01-27T11:26:56Z</time>
      </trkpt>
      <trkpt lat="44.16868" lon="7.51641">
        <ele>2314.03</ele>
        <time>2020-01-27T11:27:16Z</time>
      </trkpt>
      <trkpt lat="44.16868" lon="7.51638">
        <ele>2313.55</ele>
        <time>2020-01-27T11:27:32Z</time>
      </trkpt>
      <trkpt lat="44.16867" lon="7.5163">
        <ele>2315.47</ele>
        <time>2020-01-27T11:27:46Z</time>
      </trkpt>
      <trkpt lat="44.16866" lon="7.51622">
        <ele>2316.91</ele>
        <time>2020-01-27T11:28:03Z</time>
      </trkpt>
      <trkpt lat="44.16866" lon="7.5162">
        <ele>2317.4</ele>
        <time>2020-01-27T11:28:18Z</time>
      </trkpt>
      <trkpt lat="44.16865" lon="7.51623">
        <ele>2316.91</ele>
        <time>2020-01-27T11:28:31Z</time>
      </trkpt>
      <trkpt lat="44.16863" lon="7.51627">
        <ele>2317.4</ele>
        <time>2020-01-27T11:28:44Z</time>
      </trkpt>
      <trkpt lat="44.16859" lon="7.51637">
        <ele>2319.8</ele>
        <time>2020-01-27T11:29:00Z</time>
      </trkpt>
      <trkpt lat="44.16859" lon="7.51635">
        <ele>2319.8</ele>
        <time>2020-01-27T11:29:12Z</time>
      </trkpt>
      <trkpt lat="44.16858" lon="7.51626">
        <ele>2323.16</ele>
        <time>2020-01-27T11:29:27Z</time>
      </trkpt>
      <trkpt lat="44.16857" lon="7.51616">
        <ele>2326.53</ele>
        <time>2020-01-27T11:29:43Z</time>
      </trkpt>
      <trkpt lat="44.16856" lon="7.51618">
        <ele>2327.01</ele>
        <time>2020-01-27T11:29:58Z</time>
      </trkpt>
      <trkpt lat="44.16855" lon="7.51622">
        <ele>2328.45</ele>
        <time>2020-01-27T11:30:12Z</time>
      </trkpt>
      <trkpt lat="44.16852" lon="7.51628">
        <ele>2329.41</ele>
        <time>2020-01-27T11:30:25Z</time>
      </trkpt>
      <trkpt lat="44.16852" lon="7.51625">
        <ele>2329.89</ele>
        <time>2020-01-27T11:30:42Z</time>
      </trkpt>
      <trkpt lat="44.16852" lon="7.51615">
        <ele>2330.85</ele>
        <time>2020-01-27T11:30:55Z</time>
      </trkpt>
      <trkpt lat="44.1685" lon="7.51604">
        <ele>2333.26</ele>
        <time>2020-01-27T11:31:11Z</time>
      </trkpt>
      <trkpt lat="44.1685" lon="7.51596">
        <ele>2334.7</ele>
        <time>2020-01-27T11:31:25Z</time>
      </trkpt>
      <trkpt lat="44.16848" lon="7.51589">
        <ele>2336.62</ele>
        <time>2020-01-27T11:31:40Z</time>
      </trkpt>
      <trkpt lat="44.16845" lon="7.51594">
        <ele>2337.58</ele>
        <time>2020-01-27T11:31:56Z</time>
      </trkpt>
      <trkpt lat="44.16842" lon="7.51599">
        <ele>2340.47</ele>
        <time>2020-01-27T11:32:08Z</time>
      </trkpt>
      <trkpt lat="44.16842" lon="7.51597">
        <ele>2341.43</ele>
        <time>2020-01-27T11:32:23Z</time>
      </trkpt>
      <trkpt lat="44.16841" lon="7.51587">
        <ele>2343.83</ele>
        <time>2020-01-27T11:32:38Z</time>
      </trkpt>
      <trkpt lat="44.1684" lon="7.51584">
        <ele>2343.35</ele>
        <time>2020-01-27T11:33:04Z</time>
      </trkpt>
      <trkpt lat="44.16838" lon="7.51581">
        <ele>2344.79</ele>
        <time>2020-01-27T11:33:19Z</time>
      </trkpt>
      <trkpt lat="44.16836" lon="7.51586">
        <ele>2346.72</ele>
        <time>2020-01-27T11:33:33Z</time>
      </trkpt>
      <trkpt lat="44.16834" lon="7.51588">
        <ele>2347.68</ele>
        <time>2020-01-27T11:33:47Z</time>
      </trkpt>
      <trkpt lat="44.16834" lon="7.51583">
        <ele>2348.16</ele>
        <time>2020-01-27T11:34:01Z</time>
      </trkpt>
      <trkpt lat="44.16831" lon="7.51571">
        <ele>2349.12</ele>
        <time>2020-01-27T11:34:18Z</time>
      </trkpt>
      <trkpt lat="44.16831" lon="7.51565">
        <ele>2349.12</ele>
        <time>2020-01-27T11:34:33Z</time>
      </trkpt>
      <trkpt lat="44.16831" lon="7.51562">
        <ele>2348.64</ele>
        <time>2020-01-27T11:34:54Z</time>
      </trkpt>
      <trkpt lat="44.16829" lon="7.51564">
        <ele>2349.12</ele>
        <time>2020-01-27T11:35:10Z</time>
      </trkpt>
      <trkpt lat="44.16827" lon="7.51567">
        <ele>2350.08</ele>
        <time>2020-01-27T11:35:26Z</time>
      </trkpt>
      <trkpt lat="44.16827" lon="7.51565">
        <ele>2350.56</ele>
        <time>2020-01-27T11:35:43Z</time>
      </trkpt>
      <trkpt lat="44.16828" lon="7.51558">
        <ele>2351.52</ele>
        <time>2020-01-27T11:36:00Z</time>
      </trkpt>
      <trkpt lat="44.16827" lon="7.51558">
        <ele>2351.04</ele>
        <time>2020-01-27T11:36:15Z</time>
      </trkpt>
      <trkpt lat="44.16825" lon="7.5156">
        <ele>2352.48</ele>
        <time>2020-01-27T11:36:30Z</time>
      </trkpt>
      <trkpt lat="44.16823" lon="7.51563">
        <ele>2352.96</ele>
        <time>2020-01-27T11:36:47Z</time>
      </trkpt>
      <trkpt lat="44.16822" lon="7.51565">
        <ele>2354.41</ele>
        <time>2020-01-27T11:37:02Z</time>
      </trkpt>
      <trkpt lat="44.16822" lon="7.51567">
        <ele>2354.41</ele>
        <time>2020-01-27T11:37:17Z</time>
      </trkpt>
      <trkpt lat="44.16823" lon="7.51566">
        <ele>2353.44</ele>
        <time>2020-01-27T11:37:35Z</time>
      </trkpt>
      <trkpt lat="44.16822" lon="7.51563">
        <ele>2355.37</ele>
        <time>2020-01-27T11:37:53Z</time>
      </trkpt>
      <trkpt lat="44.16822" lon="7.51562">
        <ele>2355.37</ele>
        <time>2020-01-27T11:38:19Z</time>
      </trkpt>
      <trkpt lat="44.16822" lon="7.5156">
        <ele>2355.37</ele>
        <time>2020-01-27T11:38:38Z</time>
      </trkpt>
      <trkpt lat="44.16821" lon="7.51557">
        <ele>2355.85</ele>
        <time>2020-01-27T11:38:55Z</time>
      </trkpt>
      <trkpt lat="44.16822" lon="7.51555">
        <ele>2356.81</ele>
        <time>2020-01-27T11:39:11Z</time>
      </trkpt>
      <trkpt lat="44.16822" lon="7.51554">
        <ele>2356.33</ele>
        <time>2020-01-27T11:39:29Z</time>
      </trkpt>
      <trkpt lat="44.16824" lon="7.51553">
        <ele>2357.29</ele>
        <time>2020-01-27T11:39:49Z</time>
      </trkpt>
      <trkpt lat="44.16824" lon="7.51552">
        <ele>2357.29</ele>
        <time>2020-01-27T11:40:05Z</time>
      </trkpt>
      <trkpt lat="44.16825" lon="7.51549">
        <ele>2358.25</ele>
        <time>2020-01-27T11:40:20Z</time>
      </trkpt>
      <trkpt lat="44.16825" lon="7.51548">
        <ele>2358.25</ele>
        <time>2020-01-27T11:40:38Z</time>
      </trkpt>
      <trkpt lat="44.16825" lon="7.51546">
        <ele>2358.25</ele>
        <time>2020-01-27T11:40:51Z</time>
      </trkpt>
      <trkpt lat="44.16824" lon="7.51545">
        <ele>2358.73</ele>
        <time>2020-01-27T11:41:07Z</time>
      </trkpt>
      <trkpt lat="44.16824" lon="7.51543">
        <ele>2359.21</ele>
        <time>2020-01-27T11:41:23Z</time>
      </trkpt>
      <trkpt lat="44.16824" lon="7.5154">
        <ele>2360.17</ele>
        <time>2020-01-27T11:41:44Z</time>
      </trkpt>
      <trkpt lat="44.16824" lon="7.51538">
        <ele>2361.62</ele>
        <time>2020-01-27T11:42:00Z</time>
      </trkpt>
      <trkpt lat="44.16824" lon="7.51533">
        <ele>2364.5</ele>
        <time>2020-01-27T11:42:15Z</time>
      </trkpt>
      <trkpt lat="44.16823" lon="7.51531">
        <ele>2365.46</ele>
        <time>2020-01-27T11:42:29Z</time>
      </trkpt>
      <trkpt lat="44.16822" lon="7.51532">
        <ele>2366.9</ele>
        <time>2020-01-27T11:42:47Z</time>
      </trkpt>
      <trkpt lat="44.16821" lon="7.51533">
        <ele>2367.38</ele>
        <time>2020-01-27T11:43:03Z</time>
      </trkpt>
      <trkpt lat="44.16819" lon="7.51535">
        <ele>2368.83</ele>
        <time>2020-01-27T11:43:18Z</time>
      </trkpt>
      <trkpt lat="44.16816" lon="7.51537">
        <ele>2370.75</ele>
        <time>2020-01-27T11:43:34Z</time>
      </trkpt>
      <trkpt lat="44.16813" lon="7.51541">
        <ele>2370.75</ele>
        <time>2020-01-27T11:43:48Z</time>
      </trkpt>
      <trkpt lat="44.16813" lon="7.51544">
        <ele>2367.38</ele>
        <time>2020-01-27T11:44:01Z</time>
      </trkpt>
      <trkpt lat="44.1681" lon="7.51544">
        <ele>2366.9</ele>
        <time>2020-01-27T11:44:14Z</time>
      </trkpt>
      <trkpt lat="44.16811" lon="7.51544">
        <ele>2366.42</ele>
        <time>2020-01-27T11:44:31Z</time>
      </trkpt>
      <trkpt lat="44.16811" lon="7.51544">
        <ele>2366.42</ele>
        <time>2020-01-27T11:44:48Z</time>
      </trkpt>
      <trkpt lat="44.1681" lon="7.51544">
        <ele>2366.9</ele>
        <time>2020-01-27T11:45:02Z</time>
      </trkpt>
      <trkpt lat="44.1681" lon="7.51547">
        <ele>2365.46</ele>
        <time>2020-01-27T11:45:22Z</time>
      </trkpt>
      <trkpt lat="44.16809" lon="7.51548">
        <ele>2365.46</ele>
        <time>2020-01-27T11:45:41Z</time>
      </trkpt>
      <trkpt lat="44.16806" lon="7.51555">
        <ele>2365.46</ele>
        <time>2020-01-27T11:45:54Z</time>
      </trkpt>
      <trkpt lat="44.16806" lon="7.51554">
        <ele>2364.02</ele>
        <time>2020-01-27T11:46:16Z</time>
      </trkpt>
      <trkpt lat="44.16804" lon="7.51559">
        <ele>2365.94</ele>
        <time>2020-01-27T11:46:29Z</time>
      </trkpt>
      <trkpt lat="44.16803" lon="7.51561">
        <ele>2367.86</ele>
        <time>2020-01-27T11:46:44Z</time>
      </trkpt>
      <trkpt lat="44.16802" lon="7.51564">
        <ele>2369.31</ele>
        <time>2020-01-27T11:47:07Z</time>
      </trkpt>
      <trkpt lat="44.16802" lon="7.51571">
        <ele>2369.31</ele>
        <time>2020-01-27T11:47:22Z</time>
      </trkpt>
      <trkpt lat="44.16803" lon="7.51579">
        <ele>2371.71</ele>
        <time>2020-01-27T11:47:35Z</time>
      </trkpt>
      <trkpt lat="44.16804" lon="7.51587">
        <ele>2369.79</ele>
        <time>2020-01-27T11:47:52Z</time>
      </trkpt>
      <trkpt lat="44.16804" lon="7.51587">
        <ele>2367.86</ele>
        <time>2020-01-27T11:48:12Z</time>
      </trkpt>
      <trkpt lat="44.16803" lon="7.51587">
        <ele>2366.42</ele>
        <time>2020-01-27T11:48:30Z</time>
      </trkpt>
      <trkpt lat="44.16804" lon="7.51587">
        <ele>2366.9</ele>
        <time>2020-01-27T11:48:44Z</time>
      </trkpt>
      <trkpt lat="44.16806" lon="7.51587">
        <ele>2364.02</ele>
        <time>2020-01-27T11:49:02Z</time>
      </trkpt>
      <trkpt lat="44.16806" lon="7.51584">
        <ele>2365.46</ele>
        <time>2020-01-27T11:49:30Z</time>
      </trkpt>
      <trkpt lat="44.16805" lon="7.51583">
        <ele>2366.42</ele>
        <time>2020-01-27T11:49:59Z</time>
      </trkpt>
      <trkpt lat="44.16806" lon="7.51584">
        <ele>2367.38</ele>
        <time>2020-01-27T11:50:31Z</time>
      </trkpt>
      <trkpt lat="44.16807" lon="7.51582">
        <ele>2368.83</ele>
        <time>2020-01-27T11:51:01Z</time>
      </trkpt>
      <trkpt lat="44.16807" lon="7.51582">
        <ele>2369.31</ele>
        <time>2020-01-27T11:51:38Z</time>
      </trkpt>
      <trkpt lat="44.16804" lon="7.51585">
        <ele>2368.35</ele>
        <time>2020-01-27T11:52:01Z</time>
      </trkpt>
      <trkpt lat="44.16804" lon="7.51587">
        <ele>2367.38</ele>
        <time>2020-01-27T11:52:54Z</time>
      </trkpt>
      <trkpt lat="44.16804" lon="7.51587">
        <ele>2367.38</ele>
        <time>2020-01-27T11:53:37Z</time>
      </trkpt>
      <trkpt lat="44.16804" lon="7.51587">
        <ele>2368.35</ele>
        <time>2020-01-27T11:54:19Z</time>
      </trkpt>
      <trkpt lat="44.16804" lon="7.51586">
        <ele>2366.9</ele>
        <time>2020-01-27T11:54:57Z</time>
      </trkpt>
      <trkpt lat="44.16804" lon="7.51587">
        <ele>2367.38</ele>
        <time>2020-01-27T11:55:35Z</time>
      </trkpt>
      <trkpt lat="44.16803" lon="7.51587">
        <ele>2368.83</ele>
        <time>2020-01-27T11:56:26Z</time>
      </trkpt>
      <trkpt lat="44.16803" lon="7.51587">
        <ele>2368.83</ele>
        <time>2020-01-27T11:57:08Z</time>
      </trkpt>
      <trkpt lat="44.16804" lon="7.51586">
        <ele>2368.83</ele>
        <time>2020-01-27T11:57:46Z</time>
      </trkpt>
      <trkpt lat="44.16803" lon="7.51587">
        <ele>2370.75</ele>
        <time>2020-01-27T11:58:35Z</time>
      </trkpt>
      <trkpt lat="44.16805" lon="7.51584">
        <ele>2369.79</ele>
        <time>2020-01-27T11:59:13Z</time>
      </trkpt>
      <trkpt lat="44.16807" lon="7.51582">
        <ele>2369.79</ele>
        <time>2020-01-27T11:59:56Z</time>
      </trkpt>
      <trkpt lat="44.16805" lon="7.51585">
        <ele>2368.35</ele>
        <time>2020-01-27T12:00:34Z</time>
      </trkpt>
      <trkpt lat="44.16806" lon="7.51584">
        <ele>2368.35</ele>
        <time>2020-01-27T12:01:11Z</time>
      </trkpt>
      <trkpt lat="44.16804" lon="7.51586">
        <ele>2368.83</ele>
        <time>2020-01-27T12:01:38Z</time>
      </trkpt>
      <trkpt lat="44.16804" lon="7.51587">
        <ele>2370.27</ele>
        <time>2020-01-27T12:02:05Z</time>
      </trkpt>
      <trkpt lat="44.16804" lon="7.51587">
        <ele>2370.75</ele>
        <time>2020-01-27T12:02:36Z</time>
      </trkpt>
      <trkpt lat="44.16802" lon="7.51586">
        <ele>2370.75</ele>
        <time>2020-01-27T12:03:02Z</time>
      </trkpt>
      <trkpt lat="44.16802" lon="7.51587">
        <ele>2370.75</ele>
        <time>2020-01-27T12:03:32Z</time>
      </trkpt>
      <trkpt lat="44.16804" lon="7.51585">
        <ele>2371.23</ele>
        <time>2020-01-27T12:04:05Z</time>
      </trkpt>
      <trkpt lat="44.16803" lon="7.51585">
        <ele>2369.79</ele>
        <time>2020-01-27T12:04:28Z</time>
      </trkpt>
      <trkpt lat="44.16804" lon="7.51585">
        <ele>2368.35</ele>
        <time>2020-01-27T12:04:47Z</time>
      </trkpt>
      <trkpt lat="44.16804" lon="7.51584">
        <ele>2369.79</ele>
        <time>2020-01-27T12:05:06Z</time>
      </trkpt>
      <trkpt lat="44.16805" lon="7.51583">
        <ele>2368.35</ele>
        <time>2020-01-27T12:05:49Z</time>
      </trkpt>
      <trkpt lat="44.16804" lon="7.51583">
        <ele>2368.83</ele>
        <time>2020-01-27T12:06:29Z</time>
      </trkpt>
      <trkpt lat="44.16804" lon="7.51584">
        <ele>2369.79</ele>
        <time>2020-01-27T12:07:12Z</time>
      </trkpt>
      <trkpt lat="44.16803" lon="7.51584">
        <ele>2368.35</ele>
        <time>2020-01-27T12:07:51Z</time>
      </trkpt>
      <trkpt lat="44.16804" lon="7.51583">
        <ele>2368.83</ele>
        <time>2020-01-27T12:08:29Z</time>
      </trkpt>
      <trkpt lat="44.16804" lon="7.51583">
        <ele>2368.83</ele>
        <time>2020-01-27T12:09:08Z</time>
      </trkpt>
      <trkpt lat="44.16805" lon="7.51583">
        <ele>2368.35</ele>
        <time>2020-01-27T12:09:51Z</time>
      </trkpt>
      <trkpt lat="44.16806" lon="7.51585">
        <ele>2368.83</ele>
        <time>2020-01-27T12:10:09Z</time>
      </trkpt>
      <trkpt lat="44.16809" lon="7.51586">
        <ele>2367.86</ele>
        <time>2020-01-27T12:10:22Z</time>
      </trkpt>
      <trkpt lat="44.16807" lon="7.51581">
        <ele>2368.35</ele>
        <time>2020-01-27T12:10:36Z</time>
      </trkpt>
      <trkpt lat="44.16807" lon="7.51579">
        <ele>2368.83</ele>
        <time>2020-01-27T12:10:53Z</time>
      </trkpt>
      <trkpt lat="44.16805" lon="7.51578">
        <ele>2368.35</ele>
        <time>2020-01-27T12:11:11Z</time>
      </trkpt>
      <trkpt lat="44.16805" lon="7.51581">
        <ele>2367.86</ele>
        <time>2020-01-27T12:11:24Z</time>
      </trkpt>
      <trkpt lat="44.16806" lon="7.51582">
        <ele>2366.9</ele>
        <time>2020-01-27T12:11:48Z</time>
      </trkpt>
      <trkpt lat="44.16809" lon="7.51584">
        <ele>2367.86</ele>
        <time>2020-01-27T12:12:10Z</time>
      </trkpt>
      <trkpt lat="44.16811" lon="7.51582">
        <ele>2369.79</ele>
        <time>2020-01-27T12:12:29Z</time>
      </trkpt>
      <trkpt lat="44.16809" lon="7.51581">
        <ele>2368.35</ele>
        <time>2020-01-27T12:12:46Z</time>
      </trkpt>
      <trkpt lat="44.16815" lon="7.51582">
        <ele>2368.83</ele>
        <time>2020-01-27T12:13:00Z</time>
      </trkpt>
      <trkpt lat="44.16825" lon="7.51577">
        <ele>2374.59</ele>
        <time>2020-01-27T12:13:23Z</time>
      </trkpt>
      <trkpt lat="44.16813" lon="7.51577">
        <ele>2374.11</ele>
        <time>2020-01-27T12:13:36Z</time>
      </trkpt>
      <trkpt lat="44.16809" lon="7.51579">
        <ele>2370.75</ele>
        <time>2020-01-27T12:13:57Z</time>
      </trkpt>
      <trkpt lat="44.16806" lon="7.51577">
        <ele>2368.83</ele>
        <time>2020-01-27T12:14:12Z</time>
      </trkpt>
      <trkpt lat="44.16803" lon="7.51574">
        <ele>2368.83</ele>
        <time>2020-01-27T12:14:30Z</time>
      </trkpt>
      <trkpt lat="44.16806" lon="7.51572">
        <ele>2367.86</ele>
        <time>2020-01-27T12:14:39Z</time>
      </trkpt>
      <trkpt lat="44.16806" lon="7.51567">
        <ele>2367.38</ele>
        <time>2020-01-27T12:14:43Z</time>
      </trkpt>
      <trkpt lat="44.16807" lon="7.51561">
        <ele>2366.9</ele>
        <time>2020-01-27T12:14:48Z</time>
      </trkpt>
      <trkpt lat="44.16811" lon="7.5155">
        <ele>2364.98</ele>
        <time>2020-01-27T12:14:56Z</time>
      </trkpt>
      <trkpt lat="44.1681" lon="7.5155">
        <ele>2364.98</ele>
        <time>2020-01-27T12:15:09Z</time>
      </trkpt>
      <trkpt lat="44.16809" lon="7.5155">
        <ele>2364.02</ele>
        <time>2020-01-27T12:15:24Z</time>
      </trkpt>
      <trkpt lat="44.16808" lon="7.5155">
        <ele>2364.02</ele>
        <time>2020-01-27T12:15:55Z</time>
      </trkpt>
      <trkpt lat="44.16807" lon="7.51551">
        <ele>2364.98</ele>
        <time>2020-01-27T12:16:17Z</time>
      </trkpt>
      <trkpt lat="44.16808" lon="7.5155">
        <ele>2364.5</ele>
        <time>2020-01-27T12:16:37Z</time>
      </trkpt>
      <trkpt lat="44.16809" lon="7.51549">
        <ele>2364.02</ele>
        <time>2020-01-27T12:16:54Z</time>
      </trkpt>
      <trkpt lat="44.1681" lon="7.5155">
        <ele>2363.54</ele>
        <time>2020-01-27T12:17:17Z</time>
      </trkpt>
      <trkpt lat="44.16813" lon="7.5155">
        <ele>2362.1</ele>
        <time>2020-01-27T12:17:23Z</time>
      </trkpt>
      <trkpt lat="44.16825" lon="7.51534">
        <ele>2358.73</ele>
        <time>2020-01-27T12:17:38Z</time>
      </trkpt>
      <trkpt lat="44.16829" lon="7.51525">
        <ele>2356.81</ele>
        <time>2020-01-27T12:17:49Z</time>
      </trkpt>
      <trkpt lat="44.16834" lon="7.51519">
        <ele>2354.41</ele>
        <time>2020-01-27T12:17:59Z</time>
      </trkpt>
      <trkpt lat="44.16835" lon="7.51519">
        <ele>2353.93</ele>
        <time>2020-01-27T12:18:01Z</time>
      </trkpt>
      <trkpt lat="44.16838" lon="7.51531">
        <ele>2349.6</ele>
        <time>2020-01-27T12:18:08Z</time>
      </trkpt>
      <trkpt lat="44.16838" lon="7.51534">
        <ele>2349.12</ele>
        <time>2020-01-27T12:18:09Z</time>
      </trkpt>
      <trkpt lat="44.16838" lon="7.51539">
        <ele>2346.72</ele>
        <time>2020-01-27T12:18:15Z</time>
      </trkpt>
      <trkpt lat="44.16836" lon="7.5156">
        <ele>2341.91</ele>
        <time>2020-01-27T12:18:24Z</time>
      </trkpt>
      <trkpt lat="44.16837" lon="7.5156">
        <ele>2341.43</ele>
        <time>2020-01-27T12:18:48Z</time>
      </trkpt>
      <trkpt lat="44.16838" lon="7.5156">
        <ele>2341.91</ele>
        <time>2020-01-27T12:18:53Z</time>
      </trkpt>
      <trkpt lat="44.16848" lon="7.51554">
        <ele>2338.54</ele>
        <time>2020-01-27T12:18:59Z</time>
      </trkpt>
      <trkpt lat="44.16857" lon="7.51563">
        <ele>2331.81</ele>
        <time>2020-01-27T12:19:05Z</time>
      </trkpt>
      <trkpt lat="44.16857" lon="7.51559">
        <ele>2329.89</ele>
        <time>2020-01-27T12:19:07Z</time>
      </trkpt>
      <trkpt lat="44.16857" lon="7.51558">
        <ele>2328.93</ele>
        <time>2020-01-27T12:19:23Z</time>
      </trkpt>
      <trkpt lat="44.16859" lon="7.51557">
        <ele>2330.85</ele>
        <time>2020-01-27T12:19:52Z</time>
      </trkpt>
      <trkpt lat="44.16858" lon="7.51559">
        <ele>2330.85</ele>
        <time>2020-01-27T12:20:09Z</time>
      </trkpt>
      <trkpt lat="44.16858" lon="7.51559">
        <ele>2330.85</ele>
        <time>2020-01-27T12:20:32Z</time>
      </trkpt>
      <trkpt lat="44.16859" lon="7.51558">
        <ele>2330.37</ele>
        <time>2020-01-27T12:20:43Z</time>
      </trkpt>
      <trkpt lat="44.16866" lon="7.51554">
        <ele>2327.01</ele>
        <time>2020-01-27T12:20:49Z</time>
      </trkpt>
      <trkpt lat="44.16865" lon="7.51577">
        <ele>2320.76</ele>
        <time>2020-01-27T12:20:56Z</time>
      </trkpt>
      <trkpt lat="44.16875" lon="7.51587">
        <ele>2311.63</ele>
        <time>2020-01-27T12:21:03Z</time>
      </trkpt>
      <trkpt lat="44.16881" lon="7.51584">
        <ele>2305.86</ele>
        <time>2020-01-27T12:21:08Z</time>
      </trkpt>
      <trkpt lat="44.16881" lon="7.51583">
        <ele>2305.38</ele>
        <time>2020-01-27T12:21:09Z</time>
      </trkpt>
      <trkpt lat="44.16886" lon="7.51587">
        <ele>2301.53</ele>
        <time>2020-01-27T12:21:13Z</time>
      </trkpt>
      <trkpt lat="44.16897" lon="7.51592">
        <ele>2295.77</ele>
        <time>2020-01-27T12:21:20Z</time>
      </trkpt>
      <trkpt lat="44.16894" lon="7.51595">
        <ele>2293.36</ele>
        <time>2020-01-27T12:21:28Z</time>
      </trkpt>
      <trkpt lat="44.16896" lon="7.51593">
        <ele>2294.8</ele>
        <time>2020-01-27T12:21:47Z</time>
      </trkpt>
      <trkpt lat="44.16894" lon="7.51594">
        <ele>2293.84</ele>
        <time>2020-01-27T12:21:58Z</time>
      </trkpt>
      <trkpt lat="44.16899" lon="7.51622">
        <ele>2289.52</ele>
        <time>2020-01-27T12:22:07Z</time>
      </trkpt>
      <trkpt lat="44.16898" lon="7.51622">
        <ele>2289.52</ele>
        <time>2020-01-27T12:22:22Z</time>
      </trkpt>
      <trkpt lat="44.169" lon="7.5162">
        <ele>2292.4</ele>
        <time>2020-01-27T12:22:49Z</time>
      </trkpt>
      <trkpt lat="44.16899" lon="7.51621">
        <ele>2291.44</ele>
        <time>2020-01-27T12:22:58Z</time>
      </trkpt>
      <trkpt lat="44.16908" lon="7.51621">
        <ele>2288.08</ele>
        <time>2020-01-27T12:23:04Z</time>
      </trkpt>
      <trkpt lat="44.1692" lon="7.51619">
        <ele>2283.75</ele>
        <time>2020-01-27T12:23:08Z</time>
      </trkpt>
      <trkpt lat="44.16935" lon="7.51621">
        <ele>2277.5</ele>
        <time>2020-01-27T12:23:12Z</time>
      </trkpt>
      <trkpt lat="44.16939" lon="7.51615">
        <ele>2273.17</ele>
        <time>2020-01-27T12:23:16Z</time>
      </trkpt>
      <trkpt lat="44.16956" lon="7.51603">
        <ele>2269.33</ele>
        <time>2020-01-27T12:23:21Z</time>
      </trkpt>
      <trkpt lat="44.16969" lon="7.51593">
        <ele>2263.56</ele>
        <time>2020-01-27T12:23:26Z</time>
      </trkpt>
      <trkpt lat="44.16982" lon="7.51585">
        <ele>2252.99</ele>
        <time>2020-01-27T12:23:33Z</time>
      </trkpt>
      <trkpt lat="44.16985" lon="7.5157">
        <ele>2248.66</ele>
        <time>2020-01-27T12:23:36Z</time>
      </trkpt>
      <trkpt lat="44.1699" lon="7.51554">
        <ele>2244.82</ele>
        <time>2020-01-27T12:23:40Z</time>
      </trkpt>
      <trkpt lat="44.16999" lon="7.51552">
        <ele>2240.01</ele>
        <time>2020-01-27T12:23:44Z</time>
      </trkpt>
      <trkpt lat="44.17013" lon="7.51546">
        <ele>2233.28</ele>
        <time>2020-01-27T12:23:50Z</time>
      </trkpt>
      <trkpt lat="44.17019" lon="7.51534">
        <ele>2231.36</ele>
        <time>2020-01-27T12:23:52Z</time>
      </trkpt>
      <trkpt lat="44.17021" lon="7.51532">
        <ele>2228.47</ele>
        <time>2020-01-27T12:23:54Z</time>
      </trkpt>
      <trkpt lat="44.17022" lon="7.51547">
        <ele>2225.59</ele>
        <time>2020-01-27T12:24:08Z</time>
      </trkpt>
      <trkpt lat="44.17025" lon="7.51548">
        <ele>2224.63</ele>
        <time>2020-01-27T12:24:37Z</time>
      </trkpt>
      <trkpt lat="44.17021" lon="7.51548">
        <ele>2223.19</ele>
        <time>2020-01-27T12:24:57Z</time>
      </trkpt>
      <trkpt lat="44.1702" lon="7.51547">
        <ele>2222.71</ele>
        <time>2020-01-27T12:25:12Z</time>
      </trkpt>
      <trkpt lat="44.17019" lon="7.51547">
        <ele>2221.26</ele>
        <time>2020-01-27T12:25:29Z</time>
      </trkpt>
      <trkpt lat="44.17018" lon="7.51548">
        <ele>2221.74</ele>
        <time>2020-01-27T12:25:39Z</time>
      </trkpt>
      <trkpt lat="44.17024" lon="7.51547">
        <ele>2220.3</ele>
        <time>2020-01-27T12:25:43Z</time>
      </trkpt>
      <trkpt lat="44.17036" lon="7.51529">
        <ele>2217.42</ele>
        <time>2020-01-27T12:25:55Z</time>
      </trkpt>
      <trkpt lat="44.17038" lon="7.51524">
        <ele>2216.46</ele>
        <time>2020-01-27T12:25:58Z</time>
      </trkpt>
      <trkpt lat="44.17047" lon="7.51532">
        <ele>2212.61</ele>
        <time>2020-01-27T12:26:02Z</time>
      </trkpt>
      <trkpt lat="44.17058" lon="7.51553">
        <ele>2206.36</ele>
        <time>2020-01-27T12:26:09Z</time>
      </trkpt>
      <trkpt lat="44.17061" lon="7.51553">
        <ele>2204.92</ele>
        <time>2020-01-27T12:26:11Z</time>
      </trkpt>
      <trkpt lat="44.17068" lon="7.51541">
        <ele>2202.04</ele>
        <time>2020-01-27T12:26:15Z</time>
      </trkpt>
      <trkpt lat="44.1708" lon="7.51539">
        <ele>2196.27</ele>
        <time>2020-01-27T12:26:21Z</time>
      </trkpt>
      <trkpt lat="44.17081" lon="7.51544">
        <ele>2195.79</ele>
        <time>2020-01-27T12:26:22Z</time>
      </trkpt>
      <trkpt lat="44.17084" lon="7.51558">
        <ele>2194.35</ele>
        <time>2020-01-27T12:26:26Z</time>
      </trkpt>
      <trkpt lat="44.17095" lon="7.51549">
        <ele>2190.98</ele>
        <time>2020-01-27T12:26:33Z</time>
      </trkpt>
      <trkpt lat="44.17098" lon="7.51546">
        <ele>2190.02</ele>
        <time>2020-01-27T12:26:42Z</time>
      </trkpt>
      <trkpt lat="44.17098" lon="7.51546">
        <ele>2191.94</ele>
        <time>2020-01-27T12:27:08Z</time>
      </trkpt>
      <trkpt lat="44.17104" lon="7.51566">
        <ele>2186.18</ele>
        <time>2020-01-27T12:27:15Z</time>
      </trkpt>
      <trkpt lat="44.17111" lon="7.51569">
        <ele>2182.33</ele>
        <time>2020-01-27T12:27:18Z</time>
      </trkpt>
      <trkpt lat="44.17119" lon="7.51568">
        <ele>2175.6</ele>
        <time>2020-01-27T12:27:26Z</time>
      </trkpt>
      <trkpt lat="44.17119" lon="7.51569">
        <ele>2174.64</ele>
        <time>2020-01-27T12:27:30Z</time>
      </trkpt>
      <trkpt lat="44.17121" lon="7.51584">
        <ele>2172.24</ele>
        <time>2020-01-27T12:27:38Z</time>
      </trkpt>
      <trkpt lat="44.17134" lon="7.51585">
        <ele>2167.43</ele>
        <time>2020-01-27T12:27:44Z</time>
      </trkpt>
      <trkpt lat="44.17141" lon="7.51584">
        <ele>2163.1</ele>
        <time>2020-01-27T12:27:49Z</time>
      </trkpt>
      <trkpt lat="44.17144" lon="7.51597">
        <ele>2157.82</ele>
        <time>2020-01-27T12:27:55Z</time>
      </trkpt>
      <trkpt lat="44.17144" lon="7.51603">
        <ele>2156.37</ele>
        <time>2020-01-27T12:27:57Z</time>
      </trkpt>
      <trkpt lat="44.17146" lon="7.516">
        <ele>2152.05</ele>
        <time>2020-01-27T12:28:03Z</time>
      </trkpt>
      <trkpt lat="44.17146" lon="7.516">
        <ele>2149.65</ele>
        <time>2020-01-27T12:28:12Z</time>
      </trkpt>
      <trkpt lat="44.17157" lon="7.51585">
        <ele>2147.72</ele>
        <time>2020-01-27T12:28:21Z</time>
      </trkpt>
      <trkpt lat="44.17158" lon="7.51574">
        <ele>2145.32</ele>
        <time>2020-01-27T12:28:31Z</time>
      </trkpt>
      <trkpt lat="44.1716" lon="7.51574">
        <ele>2145.8</ele>
        <time>2020-01-27T12:28:50Z</time>
      </trkpt>
      <trkpt lat="44.1716" lon="7.51576">
        <ele>2145.8</ele>
        <time>2020-01-27T12:29:06Z</time>
      </trkpt>
      <trkpt lat="44.17162" lon="7.51576">
        <ele>2146.76</ele>
        <time>2020-01-27T12:29:24Z</time>
      </trkpt>
      <trkpt lat="44.17161" lon="7.51574">
        <ele>2146.76</ele>
        <time>2020-01-27T12:29:39Z</time>
      </trkpt>
      <trkpt lat="44.17175" lon="7.51579">
        <ele>2141.95</ele>
        <time>2020-01-27T12:29:45Z</time>
      </trkpt>
      <trkpt lat="44.17184" lon="7.5158">
        <ele>2135.71</ele>
        <time>2020-01-27T12:29:50Z</time>
      </trkpt>
      <trkpt lat="44.17185" lon="7.51591">
        <ele>2133.3</ele>
        <time>2020-01-27T12:29:53Z</time>
      </trkpt>
      <trkpt lat="44.17195" lon="7.51575">
        <ele>2128.5</ele>
        <time>2020-01-27T12:29:57Z</time>
      </trkpt>
      <trkpt lat="44.17206" lon="7.51587">
        <ele>2124.17</ele>
        <time>2020-01-27T12:30:03Z</time>
      </trkpt>
      <trkpt lat="44.17219" lon="7.51602">
        <ele>2123.69</ele>
        <time>2020-01-27T12:30:08Z</time>
      </trkpt>
      <trkpt lat="44.17226" lon="7.51607">
        <ele>2124.17</ele>
        <time>2020-01-27T12:30:10Z</time>
      </trkpt>
      <trkpt lat="44.17243" lon="7.51609">
        <ele>2122.73</ele>
        <time>2020-01-27T12:30:13Z</time>
      </trkpt>
      <trkpt lat="44.17249" lon="7.51616">
        <ele>2121.77</ele>
        <time>2020-01-27T12:30:15Z</time>
      </trkpt>
      <trkpt lat="44.1726" lon="7.5162">
        <ele>2119.36</ele>
        <time>2020-01-27T12:30:19Z</time>
      </trkpt>
      <trkpt lat="44.17272" lon="7.51632">
        <ele>2117.92</ele>
        <time>2020-01-27T12:30:23Z</time>
      </trkpt>
      <trkpt lat="44.17284" lon="7.51634">
        <ele>2115.04</ele>
        <time>2020-01-27T12:30:25Z</time>
      </trkpt>
      <trkpt lat="44.1729" lon="7.51641">
        <ele>2111.67</ele>
        <time>2020-01-27T12:30:29Z</time>
      </trkpt>
      <trkpt lat="44.17284" lon="7.5163">
        <ele>2101.58</ele>
        <time>2020-01-27T12:30:50Z</time>
      </trkpt>
      <trkpt lat="44.17278" lon="7.5163">
        <ele>2091.49</ele>
        <time>2020-01-27T12:31:08Z</time>
      </trkpt>
      <trkpt lat="44.17277" lon="7.51628">
        <ele>2087.16</ele>
        <time>2020-01-27T12:31:30Z</time>
      </trkpt>
      <trkpt lat="44.17271" lon="7.51626">
        <ele>2082.83</ele>
        <time>2020-01-27T12:31:50Z</time>
      </trkpt>
      <trkpt lat="44.17269" lon="7.51625">
        <ele>2080.91</ele>
        <time>2020-01-27T12:32:08Z</time>
      </trkpt>
      <trkpt lat="44.17268" lon="7.51627">
        <ele>2078.51</ele>
        <time>2020-01-27T12:32:24Z</time>
      </trkpt>
      <trkpt lat="44.17267" lon="7.51627">
        <ele>2078.03</ele>
        <time>2020-01-27T12:32:41Z</time>
      </trkpt>
      <trkpt lat="44.17267" lon="7.51627">
        <ele>2078.03</ele>
        <time>2020-01-27T12:32:48Z</time>
      </trkpt>
      <trkpt lat="44.17269" lon="7.51628">
        <ele>2078.03</ele>
        <time>2020-01-27T12:32:50Z</time>
      </trkpt>
      <trkpt lat="44.17274" lon="7.51628">
        <ele>2077.55</ele>
        <time>2020-01-27T12:32:51Z</time>
      </trkpt>
      <trkpt lat="44.17276" lon="7.51634">
        <ele>2077.55</ele>
        <time>2020-01-27T12:32:52Z</time>
      </trkpt>
      <trkpt lat="44.17276" lon="7.51643">
        <ele>2077.55</ele>
        <time>2020-01-27T12:32:54Z</time>
      </trkpt>
      <trkpt lat="44.17282" lon="7.51641">
        <ele>2077.55</ele>
        <time>2020-01-27T12:33:00Z</time>
      </trkpt>
      <trkpt lat="44.17283" lon="7.51642">
        <ele>2077.07</ele>
        <time>2020-01-27T12:33:04Z</time>
      </trkpt>
      <trkpt lat="44.17295" lon="7.51653">
        <ele>2076.1</ele>
        <time>2020-01-27T12:33:10Z</time>
      </trkpt>
      <trkpt lat="44.17309" lon="7.51647">
        <ele>2072.74</ele>
        <time>2020-01-27T12:33:14Z</time>
      </trkpt>
      <trkpt lat="44.17327" lon="7.51633">
        <ele>2070.82</ele>
        <time>2020-01-27T12:33:20Z</time>
      </trkpt>
      <trkpt lat="44.17332" lon="7.51643">
        <ele>2070.34</ele>
        <time>2020-01-27T12:33:22Z</time>
      </trkpt>
      <trkpt lat="44.17336" lon="7.51645">
        <ele>2069.86</ele>
        <time>2020-01-27T12:33:23Z</time>
      </trkpt>
      <trkpt lat="44.17345" lon="7.51641">
        <ele>2066.97</ele>
        <time>2020-01-27T12:33:26Z</time>
      </trkpt>
      <trkpt lat="44.17342" lon="7.5166">
        <ele>2065.05</ele>
        <time>2020-01-27T12:33:31Z</time>
      </trkpt>
      <trkpt lat="44.17341" lon="7.51665">
        <ele>2065.05</ele>
        <time>2020-01-27T12:33:32Z</time>
      </trkpt>
      <trkpt lat="44.17342" lon="7.51667">
        <ele>2064.57</ele>
        <time>2020-01-27T12:33:33Z</time>
      </trkpt>
      <trkpt lat="44.17347" lon="7.51664">
        <ele>2063.61</ele>
        <time>2020-01-27T12:33:36Z</time>
      </trkpt>
      <trkpt lat="44.17349" lon="7.51668">
        <ele>2063.13</ele>
        <time>2020-01-27T12:33:37Z</time>
      </trkpt>
      <trkpt lat="44.17346" lon="7.5168">
        <ele>2061.2</ele>
        <time>2020-01-27T12:33:40Z</time>
      </trkpt>
      <trkpt lat="44.17343" lon="7.51681">
        <ele>2057.84</ele>
        <time>2020-01-27T12:33:53Z</time>
      </trkpt>
      <trkpt lat="44.17339" lon="7.51681">
        <ele>2053.99</ele>
        <time>2020-01-27T12:34:05Z</time>
      </trkpt>
      <trkpt lat="44.17344" lon="7.51691">
        <ele>2052.07</ele>
        <time>2020-01-27T12:34:09Z</time>
      </trkpt>
      <trkpt lat="44.17349" lon="7.51713">
        <ele>2051.11</ele>
        <time>2020-01-27T12:34:17Z</time>
      </trkpt>
      <trkpt lat="44.17349" lon="7.51715">
        <ele>2048.71</ele>
        <time>2020-01-27T12:34:33Z</time>
      </trkpt>
      <trkpt lat="44.17351" lon="7.51725">
        <ele>2049.19</ele>
        <time>2020-01-27T12:34:44Z</time>
      </trkpt>
      <trkpt lat="44.17351" lon="7.51725">
        <ele>2047.26</ele>
        <time>2020-01-27T12:34:59Z</time>
      </trkpt>
      <trkpt lat="44.17364" lon="7.51727">
        <ele>2044.86</ele>
        <time>2020-01-27T12:35:05Z</time>
      </trkpt>
      <trkpt lat="44.17383" lon="7.51719">
        <ele>2037.65</ele>
        <time>2020-01-27T12:35:10Z</time>
      </trkpt>
      <trkpt lat="44.17402" lon="7.51711">
        <ele>2030.44</ele>
        <time>2020-01-27T12:35:15Z</time>
      </trkpt>
      <trkpt lat="44.17399" lon="7.51713">
        <ele>2022.75</ele>
        <time>2020-01-27T12:35:22Z</time>
      </trkpt>
      <trkpt lat="44.17394" lon="7.51716">
        <ele>2013.62</ele>
        <time>2020-01-27T12:35:43Z</time>
      </trkpt>
      <trkpt lat="44.17389" lon="7.51716">
        <ele>2008.81</ele>
        <time>2020-01-27T12:36:06Z</time>
      </trkpt>
      <trkpt lat="44.1739" lon="7.51718">
        <ele>2008.33</ele>
        <time>2020-01-27T12:36:19Z</time>
      </trkpt>
      <trkpt lat="44.17391" lon="7.5173">
        <ele>2006.89</ele>
        <time>2020-01-27T12:36:29Z</time>
      </trkpt>
      <trkpt lat="44.17413" lon="7.51733">
        <ele>1999.68</ele>
        <time>2020-01-27T12:36:35Z</time>
      </trkpt>
      <trkpt lat="44.17425" lon="7.51739">
        <ele>1993.91</ele>
        <time>2020-01-27T12:36:39Z</time>
      </trkpt>
      <trkpt lat="44.17429" lon="7.5174">
        <ele>1993.43</ele>
        <time>2020-01-27T12:36:40Z</time>
      </trkpt>
      <trkpt lat="44.17438" lon="7.51746">
        <ele>1992.47</ele>
        <time>2020-01-27T12:36:42Z</time>
      </trkpt>
      <trkpt lat="44.17443" lon="7.51743">
        <ele>1992.47</ele>
        <time>2020-01-27T12:36:43Z</time>
      </trkpt>
      <trkpt lat="44.17469" lon="7.51739">
        <ele>1988.14</ele>
        <time>2020-01-27T12:36:49Z</time>
      </trkpt>
      <trkpt lat="44.17484" lon="7.51729">
        <ele>1984.3</ele>
        <time>2020-01-27T12:36:56Z</time>
      </trkpt>
      <trkpt lat="44.17477" lon="7.51732">
        <ele>1979.01</ele>
        <time>2020-01-27T12:37:16Z</time>
      </trkpt>
      <trkpt lat="44.17476" lon="7.51732">
        <ele>1976.61</ele>
        <time>2020-01-27T12:37:28Z</time>
      </trkpt>
      <trkpt lat="44.17482" lon="7.51745">
        <ele>1972.28</ele>
        <time>2020-01-27T12:37:34Z</time>
      </trkpt>
      <trkpt lat="44.17481" lon="7.51771">
        <ele>1965.55</ele>
        <time>2020-01-27T12:37:43Z</time>
      </trkpt>
      <trkpt lat="44.17494" lon="7.51771">
        <ele>1961.71</ele>
        <time>2020-01-27T12:37:48Z</time>
      </trkpt>
      <trkpt lat="44.17523" lon="7.51799">
        <ele>1955.46</ele>
        <time>2020-01-27T12:37:59Z</time>
      </trkpt>
      <trkpt lat="44.17519" lon="7.51798">
        <ele>1953.54</ele>
        <time>2020-01-27T12:38:11Z</time>
      </trkpt>
      <trkpt lat="44.17519" lon="7.51798">
        <ele>1951.61</ele>
        <time>2020-01-27T12:38:18Z</time>
      </trkpt>
      <trkpt lat="44.17516" lon="7.51786">
        <ele>1951.13</ele>
        <time>2020-01-27T12:38:25Z</time>
      </trkpt>
      <trkpt lat="44.17507" lon="7.51768">
        <ele>1948.73</ele>
        <time>2020-01-27T12:38:31Z</time>
      </trkpt>
      <trkpt lat="44.17506" lon="7.51759">
        <ele>1947.29</ele>
        <time>2020-01-27T12:38:34Z</time>
      </trkpt>
      <trkpt lat="44.17524" lon="7.5176">
        <ele>1944.88</ele>
        <time>2020-01-27T12:38:40Z</time>
      </trkpt>
      <trkpt lat="44.17536" lon="7.5175">
        <ele>1943.44</ele>
        <time>2020-01-27T12:38:45Z</time>
      </trkpt>
      <trkpt lat="44.17542" lon="7.51754">
        <ele>1943.44</ele>
        <time>2020-01-27T12:38:47Z</time>
      </trkpt>
      <trkpt lat="44.17545" lon="7.51752">
        <ele>1943.44</ele>
        <time>2020-01-27T12:38:48Z</time>
      </trkpt>
      <trkpt lat="44.17552" lon="7.5174">
        <ele>1942.48</ele>
        <time>2020-01-27T12:38:53Z</time>
      </trkpt>
      <trkpt lat="44.17558" lon="7.51744">
        <ele>1942.48</ele>
        <time>2020-01-27T12:38:55Z</time>
      </trkpt>
      <trkpt lat="44.17566" lon="7.51735">
        <ele>1942</ele>
        <time>2020-01-27T12:38:57Z</time>
      </trkpt>
      <trkpt lat="44.17575" lon="7.51734">
        <ele>1941.52</ele>
        <time>2020-01-27T12:39:00Z</time>
      </trkpt>
      <trkpt lat="44.17611" lon="7.51725">
        <ele>1938.64</ele>
        <time>2020-01-27T12:39:05Z</time>
      </trkpt>
      <trkpt lat="44.17648" lon="7.51704">
        <ele>1931.43</ele>
        <time>2020-01-27T12:39:13Z</time>
      </trkpt>
      <trkpt lat="44.17661" lon="7.517">
        <ele>1928.06</ele>
        <time>2020-01-27T12:39:16Z</time>
      </trkpt>
      <trkpt lat="44.17669" lon="7.51699">
        <ele>1927.58</ele>
        <time>2020-01-27T12:39:18Z</time>
      </trkpt>
      <trkpt lat="44.17684" lon="7.51697">
        <ele>1926.62</ele>
        <time>2020-01-27T12:39:21Z</time>
      </trkpt>
      <trkpt lat="44.17702" lon="7.51699">
        <ele>1925.18</ele>
        <time>2020-01-27T12:39:24Z</time>
      </trkpt>
      <trkpt lat="44.17723" lon="7.51704">
        <ele>1917.01</ele>
        <time>2020-01-27T12:39:28Z</time>
      </trkpt>
      <trkpt lat="44.17731" lon="7.51701">
        <ele>1914.12</ele>
        <time>2020-01-27T12:39:30Z</time>
      </trkpt>
      <trkpt lat="44.17732" lon="7.51703">
        <ele>1905.95</ele>
        <time>2020-01-27T12:39:44Z</time>
      </trkpt>
      <trkpt lat="44.17724" lon="7.51703">
        <ele>1896.82</ele>
        <time>2020-01-27T12:40:05Z</time>
      </trkpt>
      <trkpt lat="44.17723" lon="7.51703">
        <ele>1893.45</ele>
        <time>2020-01-27T12:40:23Z</time>
      </trkpt>
      <trkpt lat="44.17724" lon="7.51704">
        <ele>1891.53</ele>
        <time>2020-01-27T12:40:40Z</time>
      </trkpt>
      <trkpt lat="44.17725" lon="7.51707">
        <ele>1890.57</ele>
        <time>2020-01-27T12:40:47Z</time>
      </trkpt>
      <trkpt lat="44.17726" lon="7.5172">
        <ele>1889.61</ele>
        <time>2020-01-27T12:40:52Z</time>
      </trkpt>
      <trkpt lat="44.17723" lon="7.5174">
        <ele>1888.17</ele>
        <time>2020-01-27T12:40:58Z</time>
      </trkpt>
      <trkpt lat="44.17722" lon="7.51747">
        <ele>1886.72</ele>
        <time>2020-01-27T12:41:02Z</time>
      </trkpt>
      <trkpt lat="44.17721" lon="7.5176">
        <ele>1885.28</ele>
        <time>2020-01-27T12:41:06Z</time>
      </trkpt>
      <trkpt lat="44.1773" lon="7.51766">
        <ele>1880.96</ele>
        <time>2020-01-27T12:41:12Z</time>
      </trkpt>
      <trkpt lat="44.17726" lon="7.51776">
        <ele>1878.07</ele>
        <time>2020-01-27T12:41:19Z</time>
      </trkpt>
      <trkpt lat="44.17726" lon="7.51777">
        <ele>1878.07</ele>
        <time>2020-01-27T12:41:20Z</time>
      </trkpt>
      <trkpt lat="44.17735" lon="7.51777">
        <ele>1876.15</ele>
        <time>2020-01-27T12:41:23Z</time>
      </trkpt>
      <trkpt lat="44.17754" lon="7.51775">
        <ele>1871.34</ele>
        <time>2020-01-27T12:41:30Z</time>
      </trkpt>
      <trkpt lat="44.1775" lon="7.5178">
        <ele>1870.38</ele>
        <time>2020-01-27T12:41:32Z</time>
      </trkpt>
      <trkpt lat="44.1775" lon="7.51793">
        <ele>1865.58</ele>
        <time>2020-01-27T12:41:39Z</time>
      </trkpt>
      <trkpt lat="44.17751" lon="7.51794">
        <ele>1865.09</ele>
        <time>2020-01-27T12:41:40Z</time>
      </trkpt>
      <trkpt lat="44.17751" lon="7.51798">
        <ele>1864.13</ele>
        <time>2020-01-27T12:41:42Z</time>
      </trkpt>
      <trkpt lat="44.17773" lon="7.51798">
        <ele>1858.37</ele>
        <time>2020-01-27T12:41:48Z</time>
      </trkpt>
      <trkpt lat="44.17782" lon="7.51793">
        <ele>1856.44</ele>
        <time>2020-01-27T12:41:51Z</time>
      </trkpt>
      <trkpt lat="44.17777" lon="7.51824">
        <ele>1850.19</ele>
        <time>2020-01-27T12:41:58Z</time>
      </trkpt>
      <trkpt lat="44.17797" lon="7.51842">
        <ele>1844.43</ele>
        <time>2020-01-27T12:42:03Z</time>
      </trkpt>
      <trkpt lat="44.17795" lon="7.5186">
        <ele>1840.58</ele>
        <time>2020-01-27T12:42:09Z</time>
      </trkpt>
      <trkpt lat="44.1779" lon="7.51872">
        <ele>1840.58</ele>
        <time>2020-01-27T12:42:20Z</time>
      </trkpt>
      <trkpt lat="44.17788" lon="7.5188">
        <ele>1842.02</ele>
        <time>2020-01-27T12:42:29Z</time>
      </trkpt>
      <trkpt lat="44.17788" lon="7.51884">
        <ele>1842.02</ele>
        <time>2020-01-27T12:42:42Z</time>
      </trkpt>
      <trkpt lat="44.17788" lon="7.51885">
        <ele>1842.5</ele>
        <time>2020-01-27T12:42:50Z</time>
      </trkpt>
      <trkpt lat="44.17786" lon="7.51891">
        <ele>1842.98</ele>
        <time>2020-01-27T12:42:54Z</time>
      </trkpt>
      <trkpt lat="44.1779" lon="7.51892">
        <ele>1839.62</ele>
        <time>2020-01-27T12:43:02Z</time>
      </trkpt>
      <trkpt lat="44.1779" lon="7.51893">
        <ele>1839.14</ele>
        <time>2020-01-27T12:43:15Z</time>
      </trkpt>
      <trkpt lat="44.17808" lon="7.51881">
        <ele>1838.18</ele>
        <time>2020-01-27T12:43:23Z</time>
      </trkpt>
      <trkpt lat="44.17839" lon="7.51857">
        <ele>1834.81</ele>
        <time>2020-01-27T12:43:32Z</time>
      </trkpt>
      <trkpt lat="44.17859" lon="7.51867">
        <ele>1830.97</ele>
        <time>2020-01-27T12:43:36Z</time>
      </trkpt>
      <trkpt lat="44.17866" lon="7.51875">
        <ele>1828.08</ele>
        <time>2020-01-27T12:43:44Z</time>
      </trkpt>
      <trkpt lat="44.17864" lon="7.51875">
        <ele>1827.12</ele>
        <time>2020-01-27T12:43:52Z</time>
      </trkpt>
      <trkpt lat="44.17879" lon="7.5189">
        <ele>1824.24</ele>
        <time>2020-01-27T12:43:58Z</time>
      </trkpt>
      <trkpt lat="44.17881" lon="7.51898">
        <ele>1823.28</ele>
        <time>2020-01-27T12:44:00Z</time>
      </trkpt>
      <trkpt lat="44.17887" lon="7.51916">
        <ele>1819.43</ele>
        <time>2020-01-27T12:44:04Z</time>
      </trkpt>
      <trkpt lat="44.17889" lon="7.51932">
        <ele>1814.63</ele>
        <time>2020-01-27T12:44:10Z</time>
      </trkpt>
      <trkpt lat="44.17889" lon="7.51933">
        <ele>1813.66</ele>
        <time>2020-01-27T12:44:12Z</time>
      </trkpt>
      <trkpt lat="44.17898" lon="7.51937">
        <ele>1811.26</ele>
        <time>2020-01-27T12:44:15Z</time>
      </trkpt>
      <trkpt lat="44.17913" lon="7.51938">
        <ele>1810.78</ele>
        <time>2020-01-27T12:44:22Z</time>
      </trkpt>
      <trkpt lat="44.17917" lon="7.51938">
        <ele>1812.7</ele>
        <time>2020-01-27T12:44:33Z</time>
      </trkpt>
      <trkpt lat="44.1792" lon="7.51937">
        <ele>1812.22</ele>
        <time>2020-01-27T12:44:45Z</time>
      </trkpt>
      <trkpt lat="44.17923" lon="7.51937">
        <ele>1811.74</ele>
        <time>2020-01-27T12:44:57Z</time>
      </trkpt>
      <trkpt lat="44.17928" lon="7.51936">
        <ele>1812.22</ele>
        <time>2020-01-27T12:45:09Z</time>
      </trkpt>
      <trkpt lat="44.17946" lon="7.51942">
        <ele>1807.9</ele>
        <time>2020-01-27T12:45:17Z</time>
      </trkpt>
      <trkpt lat="44.17953" lon="7.51952">
        <ele>1805.01</ele>
        <time>2020-01-27T12:45:20Z</time>
      </trkpt>
      <trkpt lat="44.17964" lon="7.51974">
        <ele>1800.21</ele>
        <time>2020-01-27T12:45:28Z</time>
      </trkpt>
      <trkpt lat="44.17965" lon="7.51979">
        <ele>1800.69</ele>
        <time>2020-01-27T12:45:42Z</time>
      </trkpt>
      <trkpt lat="44.17967" lon="7.51981">
        <ele>1801.65</ele>
        <time>2020-01-27T12:45:49Z</time>
      </trkpt>
      <trkpt lat="44.17975" lon="7.51983">
        <ele>1800.21</ele>
        <time>2020-01-27T12:45:53Z</time>
      </trkpt>
      <trkpt lat="44.17992" lon="7.51991">
        <ele>1792.52</ele>
        <time>2020-01-27T12:46:00Z</time>
      </trkpt>
      <trkpt lat="44.17999" lon="7.51988">
        <ele>1789.15</ele>
        <time>2020-01-27T12:46:03Z</time>
      </trkpt>
      <trkpt lat="44.18001" lon="7.51982">
        <ele>1787.71</ele>
        <time>2020-01-27T12:46:05Z</time>
      </trkpt>
      <trkpt lat="44.1801" lon="7.51999">
        <ele>1782.42</ele>
        <time>2020-01-27T12:46:12Z</time>
      </trkpt>
      <trkpt lat="44.18011" lon="7.52001">
        <ele>1781.94</ele>
        <time>2020-01-27T12:46:14Z</time>
      </trkpt>
      <trkpt lat="44.18013" lon="7.51989">
        <ele>1781.46</ele>
        <time>2020-01-27T12:46:21Z</time>
      </trkpt>
      <trkpt lat="44.18019" lon="7.51972">
        <ele>1778.58</ele>
        <time>2020-01-27T12:46:25Z</time>
      </trkpt>
      <trkpt lat="44.1802" lon="7.51964">
        <ele>1777.61</ele>
        <time>2020-01-27T12:46:27Z</time>
      </trkpt>
      <trkpt lat="44.18042" lon="7.51958">
        <ele>1774.25</ele>
        <time>2020-01-27T12:46:33Z</time>
      </trkpt>
      <trkpt lat="44.18044" lon="7.5196">
        <ele>1773.29</ele>
        <time>2020-01-27T12:46:35Z</time>
      </trkpt>
      <trkpt lat="44.18048" lon="7.51964">
        <ele>1773.29</ele>
        <time>2020-01-27T12:46:40Z</time>
      </trkpt>
      <trkpt lat="44.18059" lon="7.51944">
        <ele>1769.92</ele>
        <time>2020-01-27T12:46:47Z</time>
      </trkpt>
      <trkpt lat="44.18062" lon="7.51923">
        <ele>1767.52</ele>
        <time>2020-01-27T12:46:50Z</time>
      </trkpt>
      <trkpt lat="44.18079" lon="7.51929">
        <ele>1761.75</ele>
        <time>2020-01-27T12:46:56Z</time>
      </trkpt>
      <trkpt lat="44.18083" lon="7.51946">
        <ele>1757.91</ele>
        <time>2020-01-27T12:47:01Z</time>
      </trkpt>
      <trkpt lat="44.18084" lon="7.51951">
        <ele>1756.47</ele>
        <time>2020-01-27T12:47:04Z</time>
      </trkpt>
      <trkpt lat="44.18088" lon="7.51955">
        <ele>1754.54</ele>
        <time>2020-01-27T12:47:07Z</time>
      </trkpt>
      <trkpt lat="44.18088" lon="7.51974">
        <ele>1749.26</ele>
        <time>2020-01-27T12:47:14Z</time>
      </trkpt>
      <trkpt lat="44.1809" lon="7.51986">
        <ele>1744.45</ele>
        <time>2020-01-27T12:47:20Z</time>
      </trkpt>
      <trkpt lat="44.181" lon="7.5199">
        <ele>1741.57</ele>
        <time>2020-01-27T12:47:23Z</time>
      </trkpt>
      <trkpt lat="44.18105" lon="7.51995">
        <ele>1738.2</ele>
        <time>2020-01-27T12:47:27Z</time>
      </trkpt>
      <trkpt lat="44.18102" lon="7.52003">
        <ele>1736.28</ele>
        <time>2020-01-27T12:47:30Z</time>
      </trkpt>
      <trkpt lat="44.18103" lon="7.52014">
        <ele>1730.51</ele>
        <time>2020-01-27T12:47:36Z</time>
      </trkpt>
      <trkpt lat="44.18103" lon="7.52015">
        <ele>1728.11</ele>
        <time>2020-01-27T12:47:53Z</time>
      </trkpt>
      <trkpt lat="44.18105" lon="7.52016">
        <ele>1727.63</ele>
        <time>2020-01-27T12:47:55Z</time>
      </trkpt>
      <trkpt lat="44.18107" lon="7.52023">
        <ele>1728.11</ele>
        <time>2020-01-27T12:47:58Z</time>
      </trkpt>
      <trkpt lat="44.18115" lon="7.52032">
        <ele>1725.22</ele>
        <time>2020-01-27T12:48:02Z</time>
      </trkpt>
      <trkpt lat="44.18102" lon="7.52067">
        <ele>1719.46</ele>
        <time>2020-01-27T12:48:09Z</time>
      </trkpt>
      <trkpt lat="44.18114" lon="7.52077">
        <ele>1716.57</ele>
        <time>2020-01-27T12:48:13Z</time>
      </trkpt>
      <trkpt lat="44.1812" lon="7.52109">
        <ele>1712.73</ele>
        <time>2020-01-27T12:48:18Z</time>
      </trkpt>
      <trkpt lat="44.18119" lon="7.52121">
        <ele>1711.76</ele>
        <time>2020-01-27T12:48:20Z</time>
      </trkpt>
      <trkpt lat="44.18119" lon="7.52129">
        <ele>1709.84</ele>
        <time>2020-01-27T12:48:27Z</time>
      </trkpt>
      <trkpt lat="44.1812" lon="7.52132">
        <ele>1707.44</ele>
        <time>2020-01-27T12:48:54Z</time>
      </trkpt>
      <trkpt lat="44.18121" lon="7.52132">
        <ele>1707.92</ele>
        <time>2020-01-27T12:49:09Z</time>
      </trkpt>
      <trkpt lat="44.18121" lon="7.52132">
        <ele>1707.44</ele>
        <time>2020-01-27T12:49:11Z</time>
      </trkpt>
      <trkpt lat="44.18133" lon="7.52139">
        <ele>1705.52</ele>
        <time>2020-01-27T12:49:18Z</time>
      </trkpt>
      <trkpt lat="44.18132" lon="7.52144">
        <ele>1705.04</ele>
        <time>2020-01-27T12:49:19Z</time>
      </trkpt>
      <trkpt lat="44.18124" lon="7.52161">
        <ele>1703.11</ele>
        <time>2020-01-27T12:49:23Z</time>
      </trkpt>
      <trkpt lat="44.18136" lon="7.52181">
        <ele>1697.83</ele>
        <time>2020-01-27T12:49:30Z</time>
      </trkpt>
      <trkpt lat="44.18147" lon="7.52175">
        <ele>1696.38</ele>
        <time>2020-01-27T12:49:32Z</time>
      </trkpt>
      <trkpt lat="44.18158" lon="7.52197">
        <ele>1695.9</ele>
        <time>2020-01-27T12:49:39Z</time>
      </trkpt>
      <trkpt lat="44.18167" lon="7.52208">
        <ele>1693.98</ele>
        <time>2020-01-27T12:49:44Z</time>
      </trkpt>
      <trkpt lat="44.18183" lon="7.52228">
        <ele>1688.69</ele>
        <time>2020-01-27T12:49:51Z</time>
      </trkpt>
      <trkpt lat="44.18192" lon="7.52222">
        <ele>1684.37</ele>
        <time>2020-01-27T12:49:55Z</time>
      </trkpt>
      <trkpt lat="44.18196" lon="7.52234">
        <ele>1676.68</ele>
        <time>2020-01-27T12:50:02Z</time>
      </trkpt>
      <trkpt lat="44.18194" lon="7.52236">
        <ele>1672.83</ele>
        <time>2020-01-27T12:50:22Z</time>
      </trkpt>
      <trkpt lat="44.18192" lon="7.52238">
        <ele>1669.47</ele>
        <time>2020-01-27T12:50:38Z</time>
      </trkpt>
      <trkpt lat="44.18207" lon="7.52247">
        <ele>1667.06</ele>
        <time>2020-01-27T12:50:43Z</time>
      </trkpt>
      <trkpt lat="44.18214" lon="7.52256">
        <ele>1666.1</ele>
        <time>2020-01-27T12:50:45Z</time>
      </trkpt>
      <trkpt lat="44.18226" lon="7.52266">
        <ele>1664.18</ele>
        <time>2020-01-27T12:50:48Z</time>
      </trkpt>
      <trkpt lat="44.18236" lon="7.52281">
        <ele>1661.78</ele>
        <time>2020-01-27T12:50:51Z</time>
      </trkpt>
      <trkpt lat="44.18252" lon="7.52299">
        <ele>1658.89</ele>
        <time>2020-01-27T12:50:56Z</time>
      </trkpt>
      <trkpt lat="44.18272" lon="7.52301">
        <ele>1652.64</ele>
        <time>2020-01-27T12:51:02Z</time>
      </trkpt>
      <trkpt lat="44.18303" lon="7.52318">
        <ele>1645.91</ele>
        <time>2020-01-27T12:51:10Z</time>
      </trkpt>
      <trkpt lat="44.18321" lon="7.52321">
        <ele>1643.03</ele>
        <time>2020-01-27T12:51:13Z</time>
      </trkpt>
      <trkpt lat="44.18338" lon="7.52323">
        <ele>1640.15</ele>
        <time>2020-01-27T12:51:16Z</time>
      </trkpt>
      <trkpt lat="44.18357" lon="7.52319">
        <ele>1636.3</ele>
        <time>2020-01-27T12:51:20Z</time>
      </trkpt>
      <trkpt lat="44.18369" lon="7.52303">
        <ele>1630.53</ele>
        <time>2020-01-27T12:51:27Z</time>
      </trkpt>
      <trkpt lat="44.18368" lon="7.52303">
        <ele>1628.61</ele>
        <time>2020-01-27T12:51:30Z</time>
      </trkpt>
      <trkpt lat="44.18371" lon="7.52296">
        <ele>1627.17</ele>
        <time>2020-01-27T12:51:34Z</time>
      </trkpt>
      <trkpt lat="44.1838" lon="7.52289">
        <ele>1625.25</ele>
        <time>2020-01-27T12:51:37Z</time>
      </trkpt>
      <trkpt lat="44.18385" lon="7.52291">
        <ele>1622.36</ele>
        <time>2020-01-27T12:51:47Z</time>
      </trkpt>
      <trkpt lat="44.18386" lon="7.5229">
        <ele>1620.92</ele>
        <time>2020-01-27T12:51:59Z</time>
      </trkpt>
      <trkpt lat="44.1838" lon="7.52276">
        <ele>1619.48</ele>
        <time>2020-01-27T12:52:06Z</time>
      </trkpt>
      <trkpt lat="44.18374" lon="7.52258">
        <ele>1617.56</ele>
        <time>2020-01-27T12:52:12Z</time>
      </trkpt>
      <trkpt lat="44.18387" lon="7.52248">
        <ele>1615.15</ele>
        <time>2020-01-27T12:52:18Z</time>
      </trkpt>
      <trkpt lat="44.18396" lon="7.52239">
        <ele>1613.71</ele>
        <time>2020-01-27T12:52:21Z</time>
      </trkpt>
      <trkpt lat="44.18391" lon="7.52222">
        <ele>1612.27</ele>
        <time>2020-01-27T12:52:26Z</time>
      </trkpt>
      <trkpt lat="44.18378" lon="7.52201">
        <ele>1608.42</ele>
        <time>2020-01-27T12:52:33Z</time>
      </trkpt>
      <trkpt lat="44.18373" lon="7.52201">
        <ele>1604.1</ele>
        <time>2020-01-27T12:52:48Z</time>
      </trkpt>
      <trkpt lat="44.18372" lon="7.52201">
        <ele>1604.1</ele>
        <time>2020-01-27T12:52:50Z</time>
      </trkpt>
      <trkpt lat="44.18382" lon="7.52188">
        <ele>1602.17</ele>
        <time>2020-01-27T12:52:55Z</time>
      </trkpt>
      <trkpt lat="44.18391" lon="7.52187">
        <ele>1600.73</ele>
        <time>2020-01-27T12:52:57Z</time>
      </trkpt>
      <trkpt lat="44.18423" lon="7.52183">
        <ele>1595.93</ele>
        <time>2020-01-27T12:53:05Z</time>
      </trkpt>
      <trkpt lat="44.18456" lon="7.52188">
        <ele>1591.6</ele>
        <time>2020-01-27T12:53:17Z</time>
      </trkpt>
      <trkpt lat="44.18486" lon="7.52177">
        <ele>1591.12</ele>
        <time>2020-01-27T12:53:23Z</time>
      </trkpt>
      <trkpt lat="44.18497" lon="7.52174">
        <ele>1591.12</ele>
        <time>2020-01-27T12:53:25Z</time>
      </trkpt>
      <trkpt lat="44.18512" lon="7.52167">
        <ele>1589.68</ele>
        <time>2020-01-27T12:53:28Z</time>
      </trkpt>
      <trkpt lat="44.18522" lon="7.52166">
        <ele>1588.72</ele>
        <time>2020-01-27T12:53:30Z</time>
      </trkpt>
      <trkpt lat="44.18548" lon="7.52163">
        <ele>1585.83</ele>
        <time>2020-01-27T12:53:36Z</time>
      </trkpt>
      <trkpt lat="44.1857" lon="7.52163">
        <ele>1582.47</ele>
        <time>2020-01-27T12:53:41Z</time>
      </trkpt>
      <trkpt lat="44.18587" lon="7.52149">
        <ele>1577.66</ele>
        <time>2020-01-27T12:53:47Z</time>
      </trkpt>
      <trkpt lat="44.18606" lon="7.52123">
        <ele>1571.89</ele>
        <time>2020-01-27T12:53:52Z</time>
      </trkpt>
      <trkpt lat="44.18648" lon="7.52091">
        <ele>1564.68</ele>
        <time>2020-01-27T12:53:59Z</time>
      </trkpt>
      <trkpt lat="44.18655" lon="7.52079">
        <ele>1563.24</ele>
        <time>2020-01-27T12:54:01Z</time>
      </trkpt>
      <trkpt lat="44.18653" lon="7.52071">
        <ele>1561.32</ele>
        <time>2020-01-27T12:54:06Z</time>
      </trkpt>
      <trkpt lat="44.18663" lon="7.52059">
        <ele>1558.43</ele>
        <time>2020-01-27T12:54:12Z</time>
      </trkpt>
      <trkpt lat="44.18697" lon="7.5206">
        <ele>1555.07</ele>
        <time>2020-01-27T12:54:25Z</time>
      </trkpt>
      <trkpt lat="44.18726" lon="7.52061">
        <ele>1552.19</ele>
        <time>2020-01-27T12:54:33Z</time>
      </trkpt>
      <trkpt lat="44.18744" lon="7.52062">
        <ele>1550.74</ele>
        <time>2020-01-27T12:54:37Z</time>
      </trkpt>
      <trkpt lat="44.1876" lon="7.52056">
        <ele>1549.3</ele>
        <time>2020-01-27T12:54:41Z</time>
      </trkpt>
      <trkpt lat="44.18797" lon="7.52069">
        <ele>1548.82</ele>
        <time>2020-01-27T12:54:52Z</time>
      </trkpt>
      <trkpt lat="44.18799" lon="7.52071">
        <ele>1548.82</ele>
        <time>2020-01-27T12:54:53Z</time>
      </trkpt>
      <trkpt lat="44.18824" lon="7.52089">
        <ele>1548.82</ele>
        <time>2020-01-27T12:55:04Z</time>
      </trkpt>
      <trkpt lat="44.18856" lon="7.52122">
        <ele>1547.38</ele>
        <time>2020-01-27T12:55:16Z</time>
      </trkpt>
      <trkpt lat="44.18869" lon="7.52132">
        <ele>1546.9</ele>
        <time>2020-01-27T12:55:21Z</time>
      </trkpt>
      <trkpt lat="44.18871" lon="7.52133">
        <ele>1546.9</ele>
        <time>2020-01-27T12:55:22Z</time>
      </trkpt>
      <trkpt lat="44.18872" lon="7.5213">
        <ele>1546.42</ele>
        <time>2020-01-27T12:55:30Z</time>
      </trkpt>
      <trkpt lat="44.18873" lon="7.52127">
        <ele>1547.86</ele>
        <time>2020-01-27T12:55:43Z</time>
      </trkpt>
      <trkpt lat="44.18873" lon="7.52128">
        <ele>1548.34</ele>
        <time>2020-01-27T12:55:56Z</time>
      </trkpt>
      <trkpt lat="44.18875" lon="7.52129">
        <ele>1548.82</ele>
        <time>2020-01-27T12:56:22Z</time>
      </trkpt>
      <trkpt lat="44.18875" lon="7.5213">
        <ele>1548.34</ele>
        <time>2020-01-27T12:56:42Z</time>
      </trkpt>
      <trkpt lat="44.18872" lon="7.52128">
        <ele>1546.42</ele>
        <time>2020-01-27T12:57:05Z</time>
      </trkpt>
      <trkpt lat="44.18873" lon="7.52128">
        <ele>1545.94</ele>
        <time>2020-01-27T12:57:25Z</time>
      </trkpt>
      <trkpt lat="44.18874" lon="7.5213">
        <ele>1545.94</ele>
        <time>2020-01-27T12:57:48Z</time>
      </trkpt>
      <trkpt lat="44.18878" lon="7.52129">
        <ele>1544.01</ele>
        <time>2020-01-27T12:58:09Z</time>
      </trkpt>
      <trkpt lat="44.18877" lon="7.5213">
        <ele>1544.5</ele>
        <time>2020-01-27T12:58:33Z</time>
      </trkpt>
      <trkpt lat="44.18875" lon="7.52131">
        <ele>1544.01</ele>
        <time>2020-01-27T12:58:58Z</time>
      </trkpt>
      <trkpt lat="44.18875" lon="7.52131">
        <ele>1543.05</ele>
        <time>2020-01-27T12:59:21Z</time>
      </trkpt>
      <trkpt lat="44.18873" lon="7.5213">
        <ele>1543.05</ele>
        <time>2020-01-27T12:59:41Z</time>
      </trkpt>
      <trkpt lat="44.18873" lon="7.52131">
        <ele>1543.53</ele>
        <time>2020-01-27T13:00:07Z</time>
      </trkpt>
      <trkpt lat="44.18872" lon="7.5213">
        <ele>1542.57</ele>
        <time>2020-01-27T13:00:36Z</time>
      </trkpt>
      <trkpt lat="44.18871" lon="7.52129">
        <ele>1544.5</ele>
        <time>2020-01-27T13:00:54Z</time>
      </trkpt>
      <trkpt lat="44.18872" lon="7.52129">
        <ele>1544.01</ele>
        <time>2020-01-27T13:01:15Z</time>
      </trkpt>
      <trkpt lat="44.18873" lon="7.5213">
        <ele>1545.46</ele>
        <time>2020-01-27T13:01:26Z</time>
      </trkpt>
      <trkpt lat="44.18875" lon="7.52128">
        <ele>1545.46</ele>
        <time>2020-01-27T13:01:29Z</time>
      </trkpt>
      <trkpt lat="44.18883" lon="7.52125">
        <ele>1544.5</ele>
        <time>2020-01-27T13:01:33Z</time>
      </trkpt>
      <trkpt lat="44.18884" lon="7.52123">
        <ele>1544.01</ele>
        <time>2020-01-27T13:01:34Z</time>
      </trkpt>
      <trkpt lat="44.18886" lon="7.52122">
        <ele>1544.01</ele>
        <time>2020-01-27T13:01:35Z</time>
      </trkpt>
      <trkpt lat="44.18889" lon="7.5212">
        <ele>1543.05</ele>
        <time>2020-01-27T13:01:36Z</time>
      </trkpt>
      <trkpt lat="44.18892" lon="7.52118">
        <ele>1542.57</ele>
        <time>2020-01-27T13:01:37Z</time>
      </trkpt>
      <trkpt lat="44.18896" lon="7.52116">
        <ele>1542.09</ele>
        <time>2020-01-27T13:01:38Z</time>
      </trkpt>
      <trkpt lat="44.18899" lon="7.52116">
        <ele>1541.61</ele>
        <time>2020-01-27T13:01:39Z</time>
      </trkpt>
      <trkpt lat="44.18903" lon="7.52115">
        <ele>1541.13</ele>
        <time>2020-01-27T13:01:40Z</time>
      </trkpt>
      <trkpt lat="44.18907" lon="7.52113">
        <ele>1540.17</ele>
        <time>2020-01-27T13:01:41Z</time>
      </trkpt>
      <trkpt lat="44.18911" lon="7.52111">
        <ele>1539.69</ele>
        <time>2020-01-27T13:01:42Z</time>
      </trkpt>
      <trkpt lat="44.18916" lon="7.52109">
        <ele>1538.73</ele>
        <time>2020-01-27T13:01:43Z</time>
      </trkpt>
      <trkpt lat="44.18921" lon="7.52106">
        <ele>1538.25</ele>
        <time>2020-01-27T13:01:44Z</time>
      </trkpt>
      <trkpt lat="44.18931" lon="7.521">
        <ele>1536.8</ele>
        <time>2020-01-27T13:01:46Z</time>
      </trkpt>
      <trkpt lat="44.18956" lon="7.52074">
        <ele>1532.48</ele>
        <time>2020-01-27T13:01:54Z</time>
      </trkpt>
      <trkpt lat="44.18959" lon="7.52068">
        <ele>1532</ele>
        <time>2020-01-27T13:01:55Z</time>
      </trkpt>
      <trkpt lat="44.18961" lon="7.52061">
        <ele>1531.04</ele>
        <time>2020-01-27T13:01:56Z</time>
      </trkpt>
      <trkpt lat="44.18963" lon="7.52054">
        <ele>1530.08</ele>
        <time>2020-01-27T13:01:57Z</time>
      </trkpt>
      <trkpt lat="44.18966" lon="7.52047">
        <ele>1529.59</ele>
        <time>2020-01-27T13:01:58Z</time>
      </trkpt>
      <trkpt lat="44.18968" lon="7.5204">
        <ele>1529.11</ele>
        <time>2020-01-27T13:01:59Z</time>
      </trkpt>
      <trkpt lat="44.18981" lon="7.52021">
        <ele>1526.71</ele>
        <time>2020-01-27T13:02:04Z</time>
      </trkpt>
      <trkpt lat="44.18985" lon="7.52023">
        <ele>1526.23</ele>
        <time>2020-01-27T13:02:05Z</time>
      </trkpt>
      <trkpt lat="44.18986" lon="7.52027">
        <ele>1525.75</ele>
        <time>2020-01-27T13:02:06Z</time>
      </trkpt>
      <trkpt lat="44.18984" lon="7.52033">
        <ele>1525.27</ele>
        <time>2020-01-27T13:02:07Z</time>
      </trkpt>
      <trkpt lat="44.18982" lon="7.52039">
        <ele>1524.79</ele>
        <time>2020-01-27T13:02:08Z</time>
      </trkpt>
      <trkpt lat="44.18981" lon="7.52045">
        <ele>1524.31</ele>
        <time>2020-01-27T13:02:09Z</time>
      </trkpt>
      <trkpt lat="44.1898" lon="7.52051">
        <ele>1523.83</ele>
        <time>2020-01-27T13:02:10Z</time>
      </trkpt>
      <trkpt lat="44.18976" lon="7.52063">
        <ele>1521.9</ele>
        <time>2020-01-27T13:02:12Z</time>
      </trkpt>
      <trkpt lat="44.18975" lon="7.52069">
        <ele>1520.94</ele>
        <time>2020-01-27T13:02:13Z</time>
      </trkpt>
      <trkpt lat="44.18973" lon="7.52074">
        <ele>1519.98</ele>
        <time>2020-01-27T13:02:14Z</time>
      </trkpt>
      <trkpt lat="44.1897" lon="7.5208">
        <ele>1519.02</ele>
        <time>2020-01-27T13:02:15Z</time>
      </trkpt>
      <trkpt lat="44.18968" lon="7.52085">
        <ele>1518.06</ele>
        <time>2020-01-27T13:02:16Z</time>
      </trkpt>
      <trkpt lat="44.18966" lon="7.5209">
        <ele>1517.1</ele>
        <time>2020-01-27T13:02:17Z</time>
      </trkpt>
      <trkpt lat="44.18966" lon="7.52093">
        <ele>1513.73</ele>
        <time>2020-01-27T13:02:23Z</time>
      </trkpt>
      <trkpt lat="44.18971" lon="7.52092">
        <ele>1512.29</ele>
        <time>2020-01-27T13:02:36Z</time>
      </trkpt>
      <trkpt lat="44.18979" lon="7.52081">
        <ele>1511.81</ele>
        <time>2020-01-27T13:02:40Z</time>
      </trkpt>
      <trkpt lat="44.18983" lon="7.52077">
        <ele>1511.33</ele>
        <time>2020-01-27T13:02:41Z</time>
      </trkpt>
      <trkpt lat="44.18997" lon="7.52058">
        <ele>1509.89</ele>
        <time>2020-01-27T13:02:45Z</time>
      </trkpt>
      <trkpt lat="44.19" lon="7.52053">
        <ele>1509.41</ele>
        <time>2020-01-27T13:02:46Z</time>
      </trkpt>
      <trkpt lat="44.19007" lon="7.52043">
        <ele>1508.45</ele>
        <time>2020-01-27T13:02:48Z</time>
      </trkpt>
      <trkpt lat="44.1902" lon="7.52032">
        <ele>1507.48</ele>
        <time>2020-01-27T13:02:51Z</time>
      </trkpt>
      <trkpt lat="44.1903" lon="7.52026">
        <ele>1507</ele>
        <time>2020-01-27T13:02:53Z</time>
      </trkpt>
      <trkpt lat="44.19053" lon="7.52013">
        <ele>1505.56</ele>
        <time>2020-01-27T13:02:58Z</time>
      </trkpt>
      <trkpt lat="44.19058" lon="7.5201">
        <ele>1505.08</ele>
        <time>2020-01-27T13:02:59Z</time>
      </trkpt>
      <trkpt lat="44.19062" lon="7.52008">
        <ele>1505.08</ele>
        <time>2020-01-27T13:03:00Z</time>
      </trkpt>
      <trkpt lat="44.1909" lon="7.51993">
        <ele>1503.16</ele>
        <time>2020-01-27T13:03:09Z</time>
      </trkpt>
      <trkpt lat="44.19102" lon="7.5199">
        <ele>1502.2</ele>
        <time>2020-01-27T13:03:12Z</time>
      </trkpt>
      <trkpt lat="44.19112" lon="7.51988">
        <ele>1501.72</ele>
        <time>2020-01-27T13:03:14Z</time>
      </trkpt>
      <trkpt lat="44.19116" lon="7.51988">
        <ele>1501.72</ele>
        <time>2020-01-27T13:03:15Z</time>
      </trkpt>
      <trkpt lat="44.1912" lon="7.51988">
        <ele>1501.24</ele>
        <time>2020-01-27T13:03:16Z</time>
      </trkpt>
      <trkpt lat="44.19123" lon="7.51988">
        <ele>1501.24</ele>
        <time>2020-01-27T13:03:17Z</time>
      </trkpt>
      <trkpt lat="44.19127" lon="7.51988">
        <ele>1500.76</ele>
        <time>2020-01-27T13:03:18Z</time>
      </trkpt>
      <trkpt lat="44.19131" lon="7.51988">
        <ele>1500.27</ele>
        <time>2020-01-27T13:03:19Z</time>
      </trkpt>
      <trkpt lat="44.19135" lon="7.51988">
        <ele>1499.79</ele>
        <time>2020-01-27T13:03:20Z</time>
      </trkpt>
      <trkpt lat="44.19139" lon="7.51987">
        <ele>1499.31</ele>
        <time>2020-01-27T13:03:21Z</time>
      </trkpt>
      <trkpt lat="44.19144" lon="7.51986">
        <ele>1498.35</ele>
        <time>2020-01-27T13:03:22Z</time>
      </trkpt>
      <trkpt lat="44.19148" lon="7.51985">
        <ele>1497.39</ele>
        <time>2020-01-27T13:03:23Z</time>
      </trkpt>
      <trkpt lat="44.19153" lon="7.51984">
        <ele>1496.91</ele>
        <time>2020-01-27T13:03:24Z</time>
      </trkpt>
      <trkpt lat="44.19158" lon="7.51983">
        <ele>1495.95</ele>
        <time>2020-01-27T13:03:25Z</time>
      </trkpt>
      <trkpt lat="44.19163" lon="7.51983">
        <ele>1494.99</ele>
        <time>2020-01-27T13:03:26Z</time>
      </trkpt>
      <trkpt lat="44.19168" lon="7.51982">
        <ele>1494.03</ele>
        <time>2020-01-27T13:03:27Z</time>
      </trkpt>
      <trkpt lat="44.19172" lon="7.51981">
        <ele>1493.06</ele>
        <time>2020-01-27T13:03:28Z</time>
      </trkpt>
      <trkpt lat="44.19176" lon="7.51982">
        <ele>1492.58</ele>
        <time>2020-01-27T13:03:29Z</time>
      </trkpt>
      <trkpt lat="44.19181" lon="7.51981">
        <ele>1491.62</ele>
        <time>2020-01-27T13:03:30Z</time>
      </trkpt>
      <trkpt lat="44.19191" lon="7.51978">
        <ele>1489.7</ele>
        <time>2020-01-27T13:03:32Z</time>
      </trkpt>
      <trkpt lat="44.19196" lon="7.51976">
        <ele>1488.74</ele>
        <time>2020-01-27T13:03:33Z</time>
      </trkpt>
      <trkpt lat="44.19202" lon="7.51975">
        <ele>1488.26</ele>
        <time>2020-01-27T13:03:34Z</time>
      </trkpt>
      <trkpt lat="44.19207" lon="7.51973">
        <ele>1487.3</ele>
        <time>2020-01-27T13:03:35Z</time>
      </trkpt>
      <trkpt lat="44.19212" lon="7.51971">
        <ele>1486.34</ele>
        <time>2020-01-27T13:03:36Z</time>
      </trkpt>
      <trkpt lat="44.19217" lon="7.5197">
        <ele>1484.89</ele>
        <time>2020-01-27T13:03:37Z</time>
      </trkpt>
      <trkpt lat="44.19223" lon="7.51969">
        <ele>1483.93</ele>
        <time>2020-01-27T13:03:38Z</time>
      </trkpt>
      <trkpt lat="44.19228" lon="7.51968">
        <ele>1482.97</ele>
        <time>2020-01-27T13:03:39Z</time>
      </trkpt>
      <trkpt lat="44.19233" lon="7.51966">
        <ele>1482.01</ele>
        <time>2020-01-27T13:03:40Z</time>
      </trkpt>
      <trkpt lat="44.19238" lon="7.51963">
        <ele>1481.05</ele>
        <time>2020-01-27T13:03:41Z</time>
      </trkpt>
      <trkpt lat="44.19244" lon="7.51962">
        <ele>1480.09</ele>
        <time>2020-01-27T13:03:42Z</time>
      </trkpt>
      <trkpt lat="44.1925" lon="7.5196">
        <ele>1479.13</ele>
        <time>2020-01-27T13:03:43Z</time>
      </trkpt>
      <trkpt lat="44.19256" lon="7.51959">
        <ele>1478.16</ele>
        <time>2020-01-27T13:03:44Z</time>
      </trkpt>
      <trkpt lat="44.19263" lon="7.51959">
        <ele>1476.72</ele>
        <time>2020-01-27T13:03:45Z</time>
      </trkpt>
      <trkpt lat="44.19345" lon="7.51972">
        <ele>1464.71</ele>
        <time>2020-01-27T13:03:56Z</time>
      </trkpt>
      <trkpt lat="44.19362" lon="7.5198">
        <ele>1461.34</ele>
        <time>2020-01-27T13:03:59Z</time>
      </trkpt>
      <trkpt lat="44.19368" lon="7.51983">
        <ele>1460.38</ele>
        <time>2020-01-27T13:04:00Z</time>
      </trkpt>
      <trkpt lat="44.19391" lon="7.51986">
        <ele>1456.53</ele>
        <time>2020-01-27T13:04:04Z</time>
      </trkpt>
      <trkpt lat="44.19396" lon="7.51985">
        <ele>1455.57</ele>
        <time>2020-01-27T13:04:05Z</time>
      </trkpt>
      <trkpt lat="44.19401" lon="7.51984">
        <ele>1454.61</ele>
        <time>2020-01-27T13:04:06Z</time>
      </trkpt>
      <trkpt lat="44.19407" lon="7.51983">
        <ele>1454.13</ele>
        <time>2020-01-27T13:04:07Z</time>
      </trkpt>
      <trkpt lat="44.19412" lon="7.51983">
        <ele>1453.17</ele>
        <time>2020-01-27T13:04:08Z</time>
      </trkpt>
      <trkpt lat="44.1943" lon="7.51982">
        <ele>1449.81</ele>
        <time>2020-01-27T13:04:11Z</time>
      </trkpt>
      <trkpt lat="44.19474" lon="7.51986">
        <ele>1441.63</ele>
        <time>2020-01-27T13:04:19Z</time>
      </trkpt>
      <trkpt lat="44.1948" lon="7.51985">
        <ele>1441.15</ele>
        <time>2020-01-27T13:04:20Z</time>
      </trkpt>
      <trkpt lat="44.19485" lon="7.51984">
        <ele>1440.19</ele>
        <time>2020-01-27T13:04:21Z</time>
      </trkpt>
      <trkpt lat="44.1949" lon="7.51982">
        <ele>1439.71</ele>
        <time>2020-01-27T13:04:22Z</time>
      </trkpt>
      <trkpt lat="44.19496" lon="7.51979">
        <ele>1438.75</ele>
        <time>2020-01-27T13:04:23Z</time>
      </trkpt>
      <trkpt lat="44.19501" lon="7.51977">
        <ele>1438.27</ele>
        <time>2020-01-27T13:04:24Z</time>
      </trkpt>
      <trkpt lat="44.19506" lon="7.51977">
        <ele>1437.31</ele>
        <time>2020-01-27T13:04:25Z</time>
      </trkpt>
      <trkpt lat="44.19521" lon="7.51974">
        <ele>1434.91</ele>
        <time>2020-01-27T13:04:28Z</time>
      </trkpt>
      <trkpt lat="44.19526" lon="7.51972">
        <ele>1433.46</ele>
        <time>2020-01-27T13:04:29Z</time>
      </trkpt>
      <trkpt lat="44.19561" lon="7.51969">
        <ele>1427.7</ele>
        <time>2020-01-27T13:04:35Z</time>
      </trkpt>
      <trkpt lat="44.19567" lon="7.51968">
        <ele>1427.21</ele>
        <time>2020-01-27T13:04:36Z</time>
      </trkpt>
      <trkpt lat="44.19572" lon="7.51968">
        <ele>1426.73</ele>
        <time>2020-01-27T13:04:37Z</time>
      </trkpt>
      <trkpt lat="44.19577" lon="7.51968">
        <ele>1425.29</ele>
        <time>2020-01-27T13:04:38Z</time>
      </trkpt>
      <trkpt lat="44.19581" lon="7.51968">
        <ele>1424.81</ele>
        <time>2020-01-27T13:04:39Z</time>
      </trkpt>
      <trkpt lat="44.19586" lon="7.51969">
        <ele>1423.37</ele>
        <time>2020-01-27T13:04:40Z</time>
      </trkpt>
      <trkpt lat="44.1959" lon="7.5197">
        <ele>1422.41</ele>
        <time>2020-01-27T13:04:41Z</time>
      </trkpt>
      <trkpt lat="44.19595" lon="7.51971">
        <ele>1421.45</ele>
        <time>2020-01-27T13:04:42Z</time>
      </trkpt>
      <trkpt lat="44.196" lon="7.51972">
        <ele>1420.49</ele>
        <time>2020-01-27T13:04:43Z</time>
      </trkpt>
      <trkpt lat="44.19605" lon="7.51974">
        <ele>1419.52</ele>
        <time>2020-01-27T13:04:44Z</time>
      </trkpt>
      <trkpt lat="44.19614" lon="7.51975">
        <ele>1417.6</ele>
        <time>2020-01-27T13:04:46Z</time>
      </trkpt>
      <trkpt lat="44.19618" lon="7.51975">
        <ele>1416.16</ele>
        <time>2020-01-27T13:04:47Z</time>
      </trkpt>
      <trkpt lat="44.19642" lon="7.51983">
        <ele>1412.31</ele>
        <time>2020-01-27T13:04:52Z</time>
      </trkpt>
      <trkpt lat="44.19646" lon="7.51985">
        <ele>1411.83</ele>
        <time>2020-01-27T13:04:53Z</time>
      </trkpt>
      <trkpt lat="44.1965" lon="7.51987">
        <ele>1411.35</ele>
        <time>2020-01-27T13:04:54Z</time>
      </trkpt>
      <trkpt lat="44.19654" lon="7.51989">
        <ele>1410.39</ele>
        <time>2020-01-27T13:04:55Z</time>
      </trkpt>
      <trkpt lat="44.19658" lon="7.51992">
        <ele>1409.43</ele>
        <time>2020-01-27T13:04:56Z</time>
      </trkpt>
      <trkpt lat="44.19696" lon="7.52012">
        <ele>1405.1</ele>
        <time>2020-01-27T13:05:04Z</time>
      </trkpt>
      <trkpt lat="44.19746" lon="7.52053">
        <ele>1407.51</ele>
        <time>2020-01-27T13:05:15Z</time>
      </trkpt>
      <trkpt lat="44.1975" lon="7.52054">
        <ele>1407.03</ele>
        <time>2020-01-27T13:05:16Z</time>
      </trkpt>
      <trkpt lat="44.19754" lon="7.52053">
        <ele>1407.03</ele>
        <time>2020-01-27T13:05:17Z</time>
      </trkpt>
      <trkpt lat="44.1976" lon="7.52052">
        <ele>1407.03</ele>
        <time>2020-01-27T13:05:18Z</time>
      </trkpt>
      <trkpt lat="44.19765" lon="7.5205">
        <ele>1407.03</ele>
        <time>2020-01-27T13:05:19Z</time>
      </trkpt>
      <trkpt lat="44.19781" lon="7.52046">
        <ele>1407.51</ele>
        <time>2020-01-27T13:05:22Z</time>
      </trkpt>
      <trkpt lat="44.198" lon="7.52045">
        <ele>1406.07</ele>
        <time>2020-01-27T13:05:25Z</time>
      </trkpt>
      <trkpt lat="44.19807" lon="7.52046">
        <ele>1406.07</ele>
        <time>2020-01-27T13:05:26Z</time>
      </trkpt>
      <trkpt lat="44.19813" lon="7.52047">
        <ele>1405.58</ele>
        <time>2020-01-27T13:05:27Z</time>
      </trkpt>
      <trkpt lat="44.19879" lon="7.52064">
        <ele>1398.86</ele>
        <time>2020-01-27T13:05:38Z</time>
      </trkpt>
      <trkpt lat="44.19882" lon="7.52068">
        <ele>1398.37</ele>
        <time>2020-01-27T13:05:39Z</time>
      </trkpt>
      <trkpt lat="44.19887" lon="7.5207">
        <ele>1397.89</ele>
        <time>2020-01-27T13:05:40Z</time>
      </trkpt>
      <trkpt lat="44.19925" lon="7.5209">
        <ele>1398.37</ele>
        <time>2020-01-27T13:05:52Z</time>
      </trkpt>
      <trkpt lat="44.19928" lon="7.52088">
        <ele>1400.78</ele>
        <time>2020-01-27T13:06:02Z</time>
      </trkpt>
      <trkpt lat="44.19927" lon="7.52088">
        <ele>1400.3</ele>
        <time>2020-01-27T13:06:22Z</time>
      </trkpt>
      <trkpt lat="44.19927" lon="7.52088">
        <ele>1401.26</ele>
        <time>2020-01-27T13:06:48Z</time>
      </trkpt>
      <trkpt lat="44.19927" lon="7.52089">
        <ele>1401.74</ele>
        <time>2020-01-27T13:07:01Z</time>
      </trkpt>
      <trkpt lat="44.19929" lon="7.52089">
        <ele>1404.14</ele>
        <time>2020-01-27T13:07:18Z</time>
      </trkpt>
      <trkpt lat="44.19928" lon="7.52088">
        <ele>1404.62</ele>
        <time>2020-01-27T13:07:32Z</time>
      </trkpt>
      <trkpt lat="44.19931" lon="7.52089">
        <ele>1403.18</ele>
        <time>2020-01-27T13:07:52Z</time>
      </trkpt>
      <trkpt lat="44.1993" lon="7.52086">
        <ele>1402.7</ele>
        <time>2020-01-27T13:08:00Z</time>
      </trkpt>
      <trkpt lat="44.19931" lon="7.52084">
        <ele>1402.7</ele>
        <time>2020-01-27T13:08:01Z</time>
      </trkpt>
      <trkpt lat="44.19946" lon="7.52093">
        <ele>1400.78</ele>
        <time>2020-01-27T13:08:07Z</time>
      </trkpt>
      <trkpt lat="44.1996" lon="7.52103">
        <ele>1398.37</ele>
        <time>2020-01-27T13:08:13Z</time>
      </trkpt>
      <trkpt lat="44.19964" lon="7.52111">
        <ele>1397.41</ele>
        <time>2020-01-27T13:08:15Z</time>
      </trkpt>
      <trkpt lat="44.19969" lon="7.52117">
        <ele>1396.93</ele>
        <time>2020-01-27T13:08:16Z</time>
      </trkpt>
      <trkpt lat="44.19987" lon="7.52114">
        <ele>1395.01</ele>
        <time>2020-01-27T13:08:22Z</time>
      </trkpt>
      <trkpt lat="44.20011" lon="7.52093">
        <ele>1392.61</ele>
        <time>2020-01-27T13:08:30Z</time>
      </trkpt>
      <trkpt lat="44.20049" lon="7.5207">
        <ele>1388.28</ele>
        <time>2020-01-27T13:08:44Z</time>
      </trkpt>
      <trkpt lat="44.20061" lon="7.52066">
        <ele>1386.36</ele>
        <time>2020-01-27T13:08:47Z</time>
      </trkpt>
      <trkpt lat="44.20074" lon="7.52057">
        <ele>1384.44</ele>
        <time>2020-01-27T13:08:52Z</time>
      </trkpt>
      <trkpt lat="44.20079" lon="7.52058">
        <ele>1383.96</ele>
        <time>2020-01-27T13:08:54Z</time>
      </trkpt>
      <trkpt lat="44.20086" lon="7.52082">
        <ele>1380.59</ele>
        <time>2020-01-27T13:09:00Z</time>
      </trkpt>
      <trkpt lat="44.20092" lon="7.52101">
        <ele>1375.78</ele>
        <time>2020-01-27T13:09:05Z</time>
      </trkpt>
      <trkpt lat="44.20106" lon="7.52108">
        <ele>1370.98</ele>
        <time>2020-01-27T13:09:12Z</time>
      </trkpt>
      <trkpt lat="44.20098" lon="7.52156">
        <ele>1364.25</ele>
        <time>2020-01-27T13:09:21Z</time>
      </trkpt>
      <trkpt lat="44.20119" lon="7.52171">
        <ele>1359.44</ele>
        <time>2020-01-27T13:09:27Z</time>
      </trkpt>
      <trkpt lat="44.20124" lon="7.52173">
        <ele>1358.48</ele>
        <time>2020-01-27T13:09:28Z</time>
      </trkpt>
      <trkpt lat="44.2016" lon="7.52187">
        <ele>1349.83</ele>
        <time>2020-01-27T13:09:36Z</time>
      </trkpt>
      <trkpt lat="44.20175" lon="7.52191">
        <ele>1343.1</ele>
        <time>2020-01-27T13:09:41Z</time>
      </trkpt>
      <trkpt lat="44.20173" lon="7.52189">
        <ele>1340.7</ele>
        <time>2020-01-27T13:09:55Z</time>
      </trkpt>
      <trkpt lat="44.20175" lon="7.52186">
        <ele>1339.25</ele>
        <time>2020-01-27T13:10:10Z</time>
      </trkpt>
      <trkpt lat="44.20175" lon="7.52186">
        <ele>1339.73</ele>
        <time>2020-01-27T13:10:18Z</time>
      </trkpt>
      <trkpt lat="44.2019" lon="7.52197">
        <ele>1336.85</ele>
        <time>2020-01-27T13:10:24Z</time>
      </trkpt>
      <trkpt lat="44.20209" lon="7.52211">
        <ele>1333.01</ele>
        <time>2020-01-27T13:10:29Z</time>
      </trkpt>
      <trkpt lat="44.20228" lon="7.5222">
        <ele>1327.72</ele>
        <time>2020-01-27T13:10:34Z</time>
      </trkpt>
      <trkpt lat="44.20235" lon="7.52222">
        <ele>1325.8</ele>
        <time>2020-01-27T13:10:36Z</time>
      </trkpt>
      <trkpt lat="44.20253" lon="7.52231">
        <ele>1319.55</ele>
        <time>2020-01-27T13:10:42Z</time>
      </trkpt>
      <trkpt lat="44.20259" lon="7.52224">
        <ele>1315.7</ele>
        <time>2020-01-27T13:10:46Z</time>
      </trkpt>
      <trkpt lat="44.20259" lon="7.52226">
        <ele>1312.82</ele>
        <time>2020-01-27T13:10:54Z</time>
      </trkpt>
      <trkpt lat="44.20269" lon="7.52217">
        <ele>1310.9</ele>
        <time>2020-01-27T13:11:01Z</time>
      </trkpt>
      <trkpt lat="44.20282" lon="7.522">
        <ele>1308.49</ele>
        <time>2020-01-27T13:11:08Z</time>
      </trkpt>
      <trkpt lat="44.20284" lon="7.52201">
        <ele>1307.05</ele>
        <time>2020-01-27T13:11:12Z</time>
      </trkpt>
      <trkpt lat="44.20287" lon="7.52224">
        <ele>1305.13</ele>
        <time>2020-01-27T13:11:18Z</time>
      </trkpt>
      <trkpt lat="44.20287" lon="7.52222">
        <ele>1302.72</ele>
        <time>2020-01-27T13:11:32Z</time>
      </trkpt>
      <trkpt lat="44.20297" lon="7.52225">
        <ele>1300.32</ele>
        <time>2020-01-27T13:11:38Z</time>
      </trkpt>
      <trkpt lat="44.20309" lon="7.52227">
        <ele>1296.48</ele>
        <time>2020-01-27T13:11:42Z</time>
      </trkpt>
      <trkpt lat="44.20312" lon="7.5222">
        <ele>1294.55</ele>
        <time>2020-01-27T13:11:44Z</time>
      </trkpt>
      <trkpt lat="44.20327" lon="7.52182">
        <ele>1288.3</ele>
        <time>2020-01-27T13:11:55Z</time>
      </trkpt>
      <trkpt lat="44.20329" lon="7.52177">
        <ele>1286.38</ele>
        <time>2020-01-27T13:12:03Z</time>
      </trkpt>
      <trkpt lat="44.20337" lon="7.52168">
        <ele>1286.38</ele>
        <time>2020-01-27T13:12:07Z</time>
      </trkpt>
      <trkpt lat="44.20352" lon="7.52154">
        <ele>1285.9</ele>
        <time>2020-01-27T13:12:17Z</time>
      </trkpt>
      <trkpt lat="44.20353" lon="7.52153">
        <ele>1283.98</ele>
        <time>2020-01-27T13:12:32Z</time>
      </trkpt>
      <trkpt lat="44.2037" lon="7.52149">
        <ele>1280.13</ele>
        <time>2020-01-27T13:12:39Z</time>
      </trkpt>
      <trkpt lat="44.20381" lon="7.52155">
        <ele>1276.77</ele>
        <time>2020-01-27T13:12:44Z</time>
      </trkpt>
      <trkpt lat="44.20379" lon="7.52164">
        <ele>1275.81</ele>
        <time>2020-01-27T13:12:46Z</time>
      </trkpt>
      <trkpt lat="44.20361" lon="7.52216">
        <ele>1266.67</ele>
        <time>2020-01-27T13:12:56Z</time>
      </trkpt>
      <trkpt lat="44.20373" lon="7.52233">
        <ele>1262.83</ele>
        <time>2020-01-27T13:13:01Z</time>
      </trkpt>
      <trkpt lat="44.20372" lon="7.52239">
        <ele>1261.39</ele>
        <time>2020-01-27T13:13:08Z</time>
      </trkpt>
      <trkpt lat="44.20373" lon="7.52239">
        <ele>1261.87</ele>
        <time>2020-01-27T13:13:25Z</time>
      </trkpt>
      <trkpt lat="44.20373" lon="7.52239">
        <ele>1261.87</ele>
        <time>2020-01-27T13:13:29Z</time>
      </trkpt>
      <trkpt lat="44.20379" lon="7.52247">
        <ele>1259.46</ele>
        <time>2020-01-27T13:13:39Z</time>
      </trkpt>
      <trkpt lat="44.20379" lon="7.52248">
        <ele>1259.46</ele>
        <time>2020-01-27T13:13:52Z</time>
      </trkpt>
      <trkpt lat="44.20387" lon="7.52248">
        <ele>1258.98</ele>
        <time>2020-01-27T13:13:58Z</time>
      </trkpt>
      <trkpt lat="44.20401" lon="7.52244">
        <ele>1255.62</ele>
        <time>2020-01-27T13:14:05Z</time>
      </trkpt>
      <trkpt lat="44.20404" lon="7.52249">
        <ele>1253.7</ele>
        <time>2020-01-27T13:14:09Z</time>
      </trkpt>
      <trkpt lat="44.20406" lon="7.52257">
        <ele>1253.22</ele>
        <time>2020-01-27T13:14:17Z</time>
      </trkpt>
      <trkpt lat="44.20408" lon="7.52255">
        <ele>1252.74</ele>
        <time>2020-01-27T13:14:25Z</time>
      </trkpt>
      <trkpt lat="44.20415" lon="7.52259">
        <ele>1252.25</ele>
        <time>2020-01-27T13:14:29Z</time>
      </trkpt>
      <trkpt lat="44.20421" lon="7.52264">
        <ele>1249.85</ele>
        <time>2020-01-27T13:14:37Z</time>
      </trkpt>
      <trkpt lat="44.20423" lon="7.52267">
        <ele>1243.12</ele>
        <time>2020-01-27T13:14:49Z</time>
      </trkpt>
      <trkpt lat="44.2044" lon="7.5228">
        <ele>1238.32</ele>
        <time>2020-01-27T13:14:58Z</time>
      </trkpt>
      <trkpt lat="44.20446" lon="7.52278">
        <ele>1237.35</ele>
        <time>2020-01-27T13:15:01Z</time>
      </trkpt>
      <trkpt lat="44.20484" lon="7.52293">
        <ele>1231.11</ele>
        <time>2020-01-27T13:15:12Z</time>
      </trkpt>
      <trkpt lat="44.20497" lon="7.52298">
        <ele>1230.62</ele>
        <time>2020-01-27T13:15:15Z</time>
      </trkpt>
      <trkpt lat="44.20508" lon="7.52302">
        <ele>1229.66</ele>
        <time>2020-01-27T13:15:17Z</time>
      </trkpt>
      <trkpt lat="44.20513" lon="7.523">
        <ele>1229.66</ele>
        <time>2020-01-27T13:15:19Z</time>
      </trkpt>
      <trkpt lat="44.20515" lon="7.52295">
        <ele>1229.66</ele>
        <time>2020-01-27T13:15:21Z</time>
      </trkpt>
      <trkpt lat="44.20511" lon="7.52291">
        <ele>1230.14</ele>
        <time>2020-01-27T13:15:23Z</time>
      </trkpt>
      <trkpt lat="44.2051" lon="7.5229">
        <ele>1230.14</ele>
        <time>2020-01-27T13:15:24Z</time>
      </trkpt>
      <trkpt lat="44.20515" lon="7.52284">
        <ele>1230.62</ele>
        <time>2020-01-27T13:15:26Z</time>
      </trkpt>
      <trkpt lat="44.20523" lon="7.52277">
        <ele>1229.18</ele>
        <time>2020-01-27T13:15:31Z</time>
      </trkpt>
      <trkpt lat="44.20524" lon="7.52274">
        <ele>1228.7</ele>
        <time>2020-01-27T13:15:32Z</time>
      </trkpt>
      <trkpt lat="44.20529" lon="7.52269">
        <ele>1227.74</ele>
        <time>2020-01-27T13:15:34Z</time>
      </trkpt>
      <trkpt lat="44.20526" lon="7.52264">
        <ele>1226.78</ele>
        <time>2020-01-27T13:15:39Z</time>
      </trkpt>
      <trkpt lat="44.20523" lon="7.52261">
        <ele>1225.82</ele>
        <time>2020-01-27T13:15:42Z</time>
      </trkpt>
      <trkpt lat="44.20517" lon="7.52256">
        <ele>1224.86</ele>
        <time>2020-01-27T13:15:46Z</time>
      </trkpt>
      <trkpt lat="44.20518" lon="7.52248">
        <ele>1224.38</ele>
        <time>2020-01-27T13:15:50Z</time>
      </trkpt>
      <trkpt lat="44.20521" lon="7.5225">
        <ele>1224.38</ele>
        <time>2020-01-27T13:15:51Z</time>
      </trkpt>
      <trkpt lat="44.20525" lon="7.52251">
        <ele>1224.38</ele>
        <time>2020-01-27T13:15:52Z</time>
      </trkpt>
      <trkpt lat="44.20527" lon="7.52246">
        <ele>1223.9</ele>
        <time>2020-01-27T13:15:53Z</time>
      </trkpt>
      <trkpt lat="44.2054" lon="7.5225">
        <ele>1224.38</ele>
        <time>2020-01-27T13:15:58Z</time>
      </trkpt>
      <trkpt lat="44.20542" lon="7.5225">
        <ele>1223.9</ele>
        <time>2020-01-27T13:16:20Z</time>
      </trkpt>
      <trkpt lat="44.2054" lon="7.52248">
        <ele>1225.82</ele>
        <time>2020-01-27T13:16:43Z</time>
      </trkpt>
      <trkpt lat="44.20548" lon="7.52246">
        <ele>1225.34</ele>
        <time>2020-01-27T13:16:46Z</time>
      </trkpt>
      <trkpt lat="44.20552" lon="7.5223">
        <ele>1224.86</ele>
        <time>2020-01-27T13:16:50Z</time>
      </trkpt>
      <trkpt lat="44.20553" lon="7.52227">
        <ele>1224.86</ele>
        <time>2020-01-27T13:16:51Z</time>
      </trkpt>
      <trkpt lat="44.20559" lon="7.52228">
        <ele>1224.86</ele>
        <time>2020-01-27T13:16:53Z</time>
      </trkpt>
      <trkpt lat="44.20563" lon="7.52228">
        <ele>1224.86</ele>
        <time>2020-01-27T13:16:54Z</time>
      </trkpt>
      <trkpt lat="44.20566" lon="7.52224">
        <ele>1224.86</ele>
        <time>2020-01-27T13:16:55Z</time>
      </trkpt>
      <trkpt lat="44.20569" lon="7.52219">
        <ele>1224.86</ele>
        <time>2020-01-27T13:16:56Z</time>
      </trkpt>
      <trkpt lat="44.20572" lon="7.52218">
        <ele>1224.86</ele>
        <time>2020-01-27T13:16:57Z</time>
      </trkpt>
      <trkpt lat="44.20581" lon="7.52217">
        <ele>1224.86</ele>
        <time>2020-01-27T13:17:00Z</time>
      </trkpt>
      <trkpt lat="44.20596" lon="7.52227">
        <ele>1224.86</ele>
        <time>2020-01-27T13:17:08Z</time>
      </trkpt>
      <trkpt lat="44.20599" lon="7.52229">
        <ele>1223.9</ele>
        <time>2020-01-27T13:17:14Z</time>
      </trkpt>
      <trkpt lat="44.20603" lon="7.52229">
        <ele>1223.42</ele>
        <time>2020-01-27T13:17:16Z</time>
      </trkpt>
      <trkpt lat="44.20607" lon="7.52228">
        <ele>1223.42</ele>
        <time>2020-01-27T13:17:17Z</time>
      </trkpt>
      <trkpt lat="44.20625" lon="7.52223">
        <ele>1221.97</ele>
        <time>2020-01-27T13:17:22Z</time>
      </trkpt>
      <trkpt lat="44.20627" lon="7.5222">
        <ele>1221.49</ele>
        <time>2020-01-27T13:17:23Z</time>
      </trkpt>
      <trkpt lat="44.20627" lon="7.52216">
        <ele>1220.53</ele>
        <time>2020-01-27T13:17:24Z</time>
      </trkpt>
      <trkpt lat="44.20626" lon="7.52215">
        <ele>1220.53</ele>
        <time>2020-01-27T13:17:25Z</time>
      </trkpt>
      <trkpt lat="44.20631" lon="7.52198">
        <ele>1218.13</ele>
        <time>2020-01-27T13:17:29Z</time>
      </trkpt>
      <trkpt lat="44.2063" lon="7.5218">
        <ele>1214.76</ele>
        <time>2020-01-27T13:17:36Z</time>
      </trkpt>
      <trkpt lat="44.2063" lon="7.52155">
        <ele>1213.8</ele>
        <time>2020-01-27T13:17:44Z</time>
      </trkpt>
      <trkpt lat="44.20628" lon="7.5213">
        <ele>1212.84</ele>
        <time>2020-01-27T13:17:52Z</time>
      </trkpt>
      <trkpt lat="44.20628" lon="7.52126">
        <ele>1210.92</ele>
        <time>2020-01-27T13:18:07Z</time>
      </trkpt>
      <trkpt lat="44.20632" lon="7.52126">
        <ele>1210.44</ele>
        <time>2020-01-27T13:18:08Z</time>
      </trkpt>
      <trkpt lat="44.20636" lon="7.5212">
        <ele>1210.44</ele>
        <time>2020-01-27T13:18:10Z</time>
      </trkpt>
      <trkpt lat="44.20639" lon="7.52115">
        <ele>1210.44</ele>
        <time>2020-01-27T13:18:11Z</time>
      </trkpt>
      <trkpt lat="44.20644" lon="7.52111">
        <ele>1210.44</ele>
        <time>2020-01-27T13:18:13Z</time>
      </trkpt>
      <trkpt lat="44.20647" lon="7.52105">
        <ele>1210.44</ele>
        <time>2020-01-27T13:18:14Z</time>
      </trkpt>
      <trkpt lat="44.20651" lon="7.52103">
        <ele>1209.96</ele>
        <time>2020-01-27T13:18:15Z</time>
      </trkpt>
      <trkpt lat="44.2067" lon="7.52085">
        <ele>1202.75</ele>
        <time>2020-01-27T13:18:20Z</time>
      </trkpt>
      <trkpt lat="44.20685" lon="7.52083">
        <ele>1198.42</ele>
        <time>2020-01-27T13:18:23Z</time>
      </trkpt>
      <trkpt lat="44.20689" lon="7.52071">
        <ele>1197.46</ele>
        <time>2020-01-27T13:18:25Z</time>
      </trkpt>
      <trkpt lat="44.20692" lon="7.52067">
        <ele>1196.98</ele>
        <time>2020-01-27T13:18:26Z</time>
      </trkpt>
      <trkpt lat="44.20697" lon="7.52067">
        <ele>1196.5</ele>
        <time>2020-01-27T13:18:27Z</time>
      </trkpt>
      <trkpt lat="44.20702" lon="7.52065">
        <ele>1196.02</ele>
        <time>2020-01-27T13:18:28Z</time>
      </trkpt>
      <trkpt lat="44.20711" lon="7.52052">
        <ele>1194.09</ele>
        <time>2020-01-27T13:18:31Z</time>
      </trkpt>
      <trkpt lat="44.20729" lon="7.52037">
        <ele>1188.33</ele>
        <time>2020-01-27T13:18:37Z</time>
      </trkpt>
      <trkpt lat="44.20729" lon="7.52038">
        <ele>1181.12</ele>
        <time>2020-01-27T13:18:45Z</time>
      </trkpt>
      <trkpt lat="44.20732" lon="7.52041">
        <ele>1176.79</ele>
        <time>2020-01-27T13:18:51Z</time>
      </trkpt>
      <trkpt lat="44.20732" lon="7.52035">
        <ele>1174.87</ele>
        <time>2020-01-27T13:18:55Z</time>
      </trkpt>
      <trkpt lat="44.20727" lon="7.52031">
        <ele>1170.54</ele>
        <time>2020-01-27T13:19:07Z</time>
      </trkpt>
      <trkpt lat="44.20726" lon="7.52028">
        <ele>1168.62</ele>
        <time>2020-01-27T13:19:11Z</time>
      </trkpt>
      <trkpt lat="44.20734" lon="7.52032">
        <ele>1163.33</ele>
        <time>2020-01-27T13:19:18Z</time>
      </trkpt>
      <trkpt lat="44.20734" lon="7.52032">
        <ele>1160.45</ele>
        <time>2020-01-27T13:19:26Z</time>
      </trkpt>
      <trkpt lat="44.20735" lon="7.52035">
        <ele>1158.53</ele>
        <time>2020-01-27T13:19:34Z</time>
      </trkpt>
      <trkpt lat="44.20741" lon="7.52035">
        <ele>1158.53</ele>
        <time>2020-01-27T13:19:39Z</time>
      </trkpt>
      <trkpt lat="44.20754" lon="7.5203">
        <ele>1158.53</ele>
        <time>2020-01-27T13:19:46Z</time>
      </trkpt>
      <trkpt lat="44.20779" lon="7.52022">
        <ele>1153.72</ele>
        <time>2020-01-27T13:19:55Z</time>
      </trkpt>
      <trkpt lat="44.20788" lon="7.52018">
        <ele>1146.99</ele>
        <time>2020-01-27T13:20:03Z</time>
      </trkpt>
      <trkpt lat="44.20789" lon="7.52012">
        <ele>1143.14</ele>
        <time>2020-01-27T13:20:14Z</time>
      </trkpt>
      <trkpt lat="44.20789" lon="7.5201">
        <ele>1139.3</ele>
        <time>2020-01-27T13:20:27Z</time>
      </trkpt>
      <trkpt lat="44.20787" lon="7.5201">
        <ele>1138.82</ele>
        <time>2020-01-27T13:20:29Z</time>
      </trkpt>
      <trkpt lat="44.20786" lon="7.52009">
        <ele>1138.82</ele>
        <time>2020-01-27T13:20:30Z</time>
      </trkpt>
      <trkpt lat="44.20783" lon="7.52009">
        <ele>1137.38</ele>
        <time>2020-01-27T13:20:33Z</time>
      </trkpt>
      <trkpt lat="44.2078" lon="7.52007">
        <ele>1136.9</ele>
        <time>2020-01-27T13:20:34Z</time>
      </trkpt>
      <trkpt lat="44.20778" lon="7.52005">
        <ele>1136.42</ele>
        <time>2020-01-27T13:20:35Z</time>
      </trkpt>
      <trkpt lat="44.20776" lon="7.52002">
        <ele>1135.45</ele>
        <time>2020-01-27T13:20:43Z</time>
      </trkpt>
      <trkpt lat="44.20776" lon="7.52003">
        <ele>1136.42</ele>
        <time>2020-01-27T13:21:04Z</time>
      </trkpt>
      <trkpt lat="44.20777" lon="7.52001">
        <ele>1134.49</ele>
        <time>2020-01-27T13:21:22Z</time>
      </trkpt>
      <trkpt lat="44.20779" lon="7.52001">
        <ele>1132.57</ele>
        <time>2020-01-27T13:21:40Z</time>
      </trkpt>
      <trkpt lat="44.2078" lon="7.52002">
        <ele>1133.05</ele>
        <time>2020-01-27T13:21:48Z</time>
      </trkpt>
      <trkpt lat="44.2079" lon="7.51998">
        <ele>1135.45</ele>
        <time>2020-01-27T13:22:03Z</time>
      </trkpt>
      <trkpt lat="44.20795" lon="7.51994">
        <ele>1136.42</ele>
        <time>2020-01-27T13:22:07Z</time>
      </trkpt>
      <trkpt lat="44.20797" lon="7.51993">
        <ele>1136.42</ele>
        <time>2020-01-27T13:22:08Z</time>
      </trkpt>
      <trkpt lat="44.20799" lon="7.51991">
        <ele>1136.42</ele>
        <time>2020-01-27T13:22:09Z</time>
      </trkpt>
      <trkpt lat="44.20802" lon="7.51989">
        <ele>1136.42</ele>
        <time>2020-01-27T13:22:10Z</time>
      </trkpt>
      <trkpt lat="44.20804" lon="7.51986">
        <ele>1136.42</ele>
        <time>2020-01-27T13:22:11Z</time>
      </trkpt>
      <trkpt lat="44.20808" lon="7.51984">
        <ele>1136.42</ele>
        <time>2020-01-27T13:22:12Z</time>
      </trkpt>
      <trkpt lat="44.20841" lon="7.51963">
        <ele>1135.94</ele>
        <time>2020-01-27T13:22:23Z</time>
      </trkpt>
      <trkpt lat="44.20856" lon="7.51962">
        <ele>1135.94</ele>
        <time>2020-01-27T13:22:27Z</time>
      </trkpt>
      <trkpt lat="44.20873" lon="7.51994">
        <ele>1134.49</ele>
        <time>2020-01-27T13:22:36Z</time>
      </trkpt>
      <trkpt lat="44.20874" lon="7.51998">
        <ele>1134.01</ele>
        <time>2020-01-27T13:22:44Z</time>
      </trkpt>
      <trkpt lat="44.20876" lon="7.52003">
        <ele>1133.53</ele>
        <time>2020-01-27T13:22:55Z</time>
      </trkpt>
      <trkpt lat="44.2088" lon="7.5202">
        <ele>1133.05</ele>
        <time>2020-01-27T13:23:01Z</time>
      </trkpt>
      <trkpt lat="44.2088" lon="7.52026">
        <ele>1133.05</ele>
        <time>2020-01-27T13:23:03Z</time>
      </trkpt>
      <trkpt lat="44.20881" lon="7.52029">
        <ele>1133.05</ele>
        <time>2020-01-27T13:23:04Z</time>
      </trkpt>
      <trkpt lat="44.20883" lon="7.52036">
        <ele>1133.05</ele>
        <time>2020-01-27T13:23:06Z</time>
      </trkpt>
      <trkpt lat="44.20884" lon="7.52043">
        <ele>1133.53</ele>
        <time>2020-01-27T13:23:07Z</time>
      </trkpt>
      <trkpt lat="44.20886" lon="7.52049">
        <ele>1133.53</ele>
        <time>2020-01-27T13:23:08Z</time>
      </trkpt>
      <trkpt lat="44.20893" lon="7.52068">
        <ele>1133.05</ele>
        <time>2020-01-27T13:23:11Z</time>
      </trkpt>
      <trkpt lat="44.20896" lon="7.52073">
        <ele>1132.57</ele>
        <time>2020-01-27T13:23:12Z</time>
      </trkpt>
      <trkpt lat="44.20897" lon="7.52078">
        <ele>1132.09</ele>
        <time>2020-01-27T13:23:13Z</time>
      </trkpt>
      <trkpt lat="44.20899" lon="7.52084">
        <ele>1132.09</ele>
        <time>2020-01-27T13:23:14Z</time>
      </trkpt>
      <trkpt lat="44.20909" lon="7.52115">
        <ele>1131.13</ele>
        <time>2020-01-27T13:23:21Z</time>
      </trkpt>
      <trkpt lat="44.20909" lon="7.5212">
        <ele>1131.13</ele>
        <time>2020-01-27T13:23:22Z</time>
      </trkpt>
      <trkpt lat="44.2091" lon="7.52125">
        <ele>1130.65</ele>
        <time>2020-01-27T13:23:23Z</time>
      </trkpt>
      <trkpt lat="44.20909" lon="7.5214">
        <ele>1130.65</ele>
        <time>2020-01-27T13:23:26Z</time>
      </trkpt>
      <trkpt lat="44.20907" lon="7.52145">
        <ele>1130.65</ele>
        <time>2020-01-27T13:23:27Z</time>
      </trkpt>
      <trkpt lat="44.20905" lon="7.52152">
        <ele>1130.65</ele>
        <time>2020-01-27T13:23:28Z</time>
      </trkpt>
      <trkpt lat="44.20904" lon="7.52158">
        <ele>1130.65</ele>
        <time>2020-01-27T13:23:29Z</time>
      </trkpt>
      <trkpt lat="44.20903" lon="7.52166">
        <ele>1130.65</ele>
        <time>2020-01-27T13:23:30Z</time>
      </trkpt>
      <trkpt lat="44.20904" lon="7.52172">
        <ele>1130.65</ele>
        <time>2020-01-27T13:23:31Z</time>
      </trkpt>
      <trkpt lat="44.20906" lon="7.52174">
        <ele>1130.65</ele>
        <time>2020-01-27T13:23:32Z</time>
      </trkpt>
      <trkpt lat="44.20913" lon="7.52167">
        <ele>1130.65</ele>
        <time>2020-01-27T13:23:35Z</time>
      </trkpt>
      <trkpt lat="44.20916" lon="7.52165">
        <ele>1130.65</ele>
        <time>2020-01-27T13:23:36Z</time>
      </trkpt>
      <trkpt lat="44.20929" lon="7.52159">
        <ele>1131.13</ele>
        <time>2020-01-27T13:23:39Z</time>
      </trkpt>
      <trkpt lat="44.20934" lon="7.52157">
        <ele>1131.13</ele>
        <time>2020-01-27T13:23:40Z</time>
      </trkpt>
      <trkpt lat="44.20944" lon="7.52152">
        <ele>1130.65</ele>
        <time>2020-01-27T13:23:43Z</time>
      </trkpt>
      <trkpt lat="44.20948" lon="7.5215">
        <ele>1130.65</ele>
        <time>2020-01-27T13:23:44Z</time>
      </trkpt>
      <trkpt lat="44.20952" lon="7.52147">
        <ele>1130.65</ele>
        <time>2020-01-27T13:23:45Z</time>
      </trkpt>
      <trkpt lat="44.20956" lon="7.52144">
        <ele>1130.65</ele>
        <time>2020-01-27T13:23:46Z</time>
      </trkpt>
      <trkpt lat="44.20959" lon="7.5214">
        <ele>1130.65</ele>
        <time>2020-01-27T13:23:47Z</time>
      </trkpt>
      <trkpt lat="44.20962" lon="7.52134">
        <ele>1130.65</ele>
        <time>2020-01-27T13:23:48Z</time>
      </trkpt>
      <trkpt lat="44.20965" lon="7.52129">
        <ele>1130.65</ele>
        <time>2020-01-27T13:23:49Z</time>
      </trkpt>
      <trkpt lat="44.20968" lon="7.52125">
        <ele>1130.17</ele>
        <time>2020-01-27T13:23:50Z</time>
      </trkpt>
      <trkpt lat="44.20972" lon="7.52116">
        <ele>1129.69</ele>
        <time>2020-01-27T13:23:52Z</time>
      </trkpt>
      <trkpt lat="44.20974" lon="7.52112">
        <ele>1129.21</ele>
        <time>2020-01-27T13:23:53Z</time>
      </trkpt>
      <trkpt lat="44.20983" lon="7.52098">
        <ele>1127.76</ele>
        <time>2020-01-27T13:23:56Z</time>
      </trkpt>
      <trkpt lat="44.20986" lon="7.52088">
        <ele>1127.28</ele>
        <time>2020-01-27T13:23:58Z</time>
      </trkpt>
      <trkpt lat="44.20989" lon="7.52083">
        <ele>1126.8</ele>
        <time>2020-01-27T13:23:59Z</time>
      </trkpt>
      <trkpt lat="44.20992" lon="7.52079">
        <ele>1126.8</ele>
        <time>2020-01-27T13:24:00Z</time>
      </trkpt>
      <trkpt lat="44.20996" lon="7.52075">
        <ele>1126.32</ele>
        <time>2020-01-27T13:24:01Z</time>
      </trkpt>
      <trkpt lat="44.21009" lon="7.52062">
        <ele>1125.84</ele>
        <time>2020-01-27T13:24:04Z</time>
      </trkpt>
      <trkpt lat="44.21012" lon="7.52058">
        <ele>1125.84</ele>
        <time>2020-01-27T13:24:05Z</time>
      </trkpt>
      <trkpt lat="44.21023" lon="7.52026">
        <ele>1119.11</ele>
        <time>2020-01-27T13:24:14Z</time>
      </trkpt>
      <trkpt lat="44.21042" lon="7.51993">
        <ele>1108.06</ele>
        <time>2020-01-27T13:24:25Z</time>
      </trkpt>
      <trkpt lat="44.21046" lon="7.51986">
        <ele>1104.21</ele>
        <time>2020-01-27T13:24:28Z</time>
      </trkpt>
      <trkpt lat="44.21046" lon="7.51985">
        <ele>1103.73</ele>
        <time>2020-01-27T13:24:29Z</time>
      </trkpt>
      <trkpt lat="44.21031" lon="7.51984">
        <ele>1098.92</ele>
        <time>2020-01-27T13:24:38Z</time>
      </trkpt>
      <trkpt lat="44.21031" lon="7.51975">
        <ele>1097</ele>
        <time>2020-01-27T13:24:42Z</time>
      </trkpt>
      <trkpt lat="44.21034" lon="7.51968">
        <ele>1097</ele>
        <time>2020-01-27T13:24:43Z</time>
      </trkpt>
      <trkpt lat="44.21037" lon="7.5196">
        <ele>1096.52</ele>
        <time>2020-01-27T13:24:44Z</time>
      </trkpt>
      <trkpt lat="44.21047" lon="7.51941">
        <ele>1094.12</ele>
        <time>2020-01-27T13:24:47Z</time>
      </trkpt>
      <trkpt lat="44.21052" lon="7.5193">
        <ele>1092.68</ele>
        <time>2020-01-27T13:24:49Z</time>
      </trkpt>
      <trkpt lat="44.21054" lon="7.51926">
        <ele>1092.2</ele>
        <time>2020-01-27T13:24:50Z</time>
      </trkpt>
      <trkpt lat="44.2107" lon="7.51895">
        <ele>1083.54</ele>
        <time>2020-01-27T13:25:01Z</time>
      </trkpt>
      <trkpt lat="44.2107" lon="7.51893">
        <ele>1082.1</ele>
        <time>2020-01-27T13:25:02Z</time>
      </trkpt>
      <trkpt lat="44.21069" lon="7.51891">
        <ele>1081.14</ele>
        <time>2020-01-27T13:25:03Z</time>
      </trkpt>
      <trkpt lat="44.21059" lon="7.51881">
        <ele>1074.41</ele>
        <time>2020-01-27T13:25:09Z</time>
      </trkpt>
      <trkpt lat="44.21055" lon="7.51872">
        <ele>1066.24</ele>
        <time>2020-01-27T13:25:21Z</time>
      </trkpt>
      <trkpt lat="44.21055" lon="7.51869">
        <ele>1065.28</ele>
        <time>2020-01-27T13:25:24Z</time>
      </trkpt>
      <trkpt lat="44.21051" lon="7.51864">
        <ele>1062.39</ele>
        <time>2020-01-27T13:25:30Z</time>
      </trkpt>
      <trkpt lat="44.21046" lon="7.51863">
        <ele>1060.47</ele>
        <time>2020-01-27T13:25:38Z</time>
      </trkpt>
      <trkpt lat="44.2104" lon="7.51865">
        <ele>1057.59</ele>
        <time>2020-01-27T13:25:54Z</time>
      </trkpt>
      <trkpt lat="44.21038" lon="7.51865">
        <ele>1053.74</ele>
        <time>2020-01-27T13:26:07Z</time>
      </trkpt>
      <trkpt lat="44.21038" lon="7.51866">
        <ele>1050.38</ele>
        <time>2020-01-27T13:26:20Z</time>
      </trkpt>
      <trkpt lat="44.21036" lon="7.51863">
        <ele>1049.42</ele>
        <time>2020-01-27T13:26:32Z</time>
      </trkpt>
      <trkpt lat="44.21035" lon="7.51863">
        <ele>1049.9</ele>
        <time>2020-01-27T13:26:44Z</time>
      </trkpt>
      <trkpt lat="44.21037" lon="7.5186">
        <ele>1048.94</ele>
        <time>2020-01-27T13:26:49Z</time>
      </trkpt>
      <trkpt lat="44.21038" lon="7.51854">
        <ele>1048.45</ele>
        <time>2020-01-27T13:26:54Z</time>
      </trkpt>
      <trkpt lat="44.21044" lon="7.51844">
        <ele>1048.45</ele>
        <time>2020-01-27T13:27:00Z</time>
      </trkpt>
      <trkpt lat="44.21054" lon="7.51822">
        <ele>1048.94</ele>
        <time>2020-01-27T13:27:08Z</time>
      </trkpt>
      <trkpt lat="44.21055" lon="7.51817">
        <ele>1048.94</ele>
        <time>2020-01-27T13:27:10Z</time>
      </trkpt>
      <trkpt lat="44.2106" lon="7.51809">
        <ele>1048.45</ele>
        <time>2020-01-27T13:27:15Z</time>
      </trkpt>
      <trkpt lat="44.21067" lon="7.51805">
        <ele>1048.45</ele>
        <time>2020-01-27T13:27:25Z</time>
      </trkpt>
      <trkpt lat="44.21069" lon="7.51806">
        <ele>1048.94</ele>
        <time>2020-01-27T13:27:32Z</time>
      </trkpt>
      <trkpt lat="44.21074" lon="7.51801">
        <ele>1049.42</ele>
        <time>2020-01-27T13:27:36Z</time>
      </trkpt>
      <trkpt lat="44.21076" lon="7.518">
        <ele>1049.42</ele>
        <time>2020-01-27T13:27:37Z</time>
      </trkpt>
      <trkpt lat="44.21079" lon="7.518">
        <ele>1049.42</ele>
        <time>2020-01-27T13:27:38Z</time>
      </trkpt>
      <trkpt lat="44.21091" lon="7.51792">
        <ele>1049.42</ele>
        <time>2020-01-27T13:27:48Z</time>
      </trkpt>
      <trkpt lat="44.2109" lon="7.51792">
        <ele>1049.42</ele>
        <time>2020-01-27T13:27:59Z</time>
      </trkpt>
      <trkpt lat="44.21091" lon="7.51793">
        <ele>1048.45</ele>
        <time>2020-01-27T13:28:18Z</time>
      </trkpt>
      <trkpt lat="44.21092" lon="7.51792">
        <ele>1047.49</ele>
        <time>2020-01-27T13:28:29Z</time>
      </trkpt>
      <trkpt lat="44.21097" lon="7.51788">
        <ele>1047.49</ele>
        <time>2020-01-27T13:28:40Z</time>
      </trkpt>
      <trkpt lat="44.21107" lon="7.51785">
        <ele>1047.97</ele>
        <time>2020-01-27T13:28:48Z</time>
      </trkpt>
      <trkpt lat="44.2111" lon="7.51779">
        <ele>1046.53</ele>
        <time>2020-01-27T13:28:52Z</time>
      </trkpt>
      <trkpt lat="44.21125" lon="7.51768">
        <ele>1044.61</ele>
        <time>2020-01-27T13:29:07Z</time>
      </trkpt>
      <trkpt lat="44.21131" lon="7.51758">
        <ele>1043.65</ele>
        <time>2020-01-27T13:29:22Z</time>
      </trkpt>
      <trkpt lat="44.21132" lon="7.51755">
        <ele>1038.36</ele>
        <time>2020-01-27T13:29:39Z</time>
      </trkpt>
      <trkpt lat="44.21129" lon="7.51757">
        <ele>1036.44</ele>
        <time>2020-01-27T13:29:53Z</time>
      </trkpt>
      <trkpt lat="44.21128" lon="7.51756">
        <ele>1036.92</ele>
        <time>2020-01-27T13:30:05Z</time>
      </trkpt>
      <trkpt lat="44.21126" lon="7.51756">
        <ele>1032.59</ele>
        <time>2020-01-27T13:30:47Z</time>
      </trkpt>
      <trkpt lat="44.21125" lon="7.51756">
        <ele>1029.71</ele>
        <time>2020-01-27T13:31:30Z</time>
      </trkpt>
      <trkpt lat="44.21126" lon="7.51756">
        <ele>1030.19</ele>
        <time>2020-01-27T13:32:03Z</time>
      </trkpt>
      <trkpt lat="44.21126" lon="7.51754">
        <ele>1037.4</ele>
        <time>2020-01-27T13:32:44Z</time>
      </trkpt>
      <trkpt lat="44.21129" lon="7.51754">
        <ele>1040.28</ele>
        <time>2020-01-27T13:33:28Z</time>
      </trkpt>
      <trkpt lat="44.2113" lon="7.51756">
        <ele>1034.52</ele>
        <time>2020-01-27T13:34:06Z</time>
      </trkpt>
      <trkpt lat="44.21127" lon="7.51754">
        <ele>1032.11</ele>
        <time>2020-01-27T13:34:39Z</time>
      </trkpt>
      <trkpt lat="44.2113" lon="7.51757">
        <ele>1034.04</ele>
        <time>2020-01-27T13:35:18Z</time>
      </trkpt>
      <trkpt lat="44.21128" lon="7.51754">
        <ele>1034.52</ele>
        <time>2020-01-27T13:35:51Z</time>
      </trkpt>
      <trkpt lat="44.21123" lon="7.51754">
        <ele>1032.11</ele>
        <time>2020-01-27T13:36:21Z</time>
      </trkpt>
      <trkpt lat="44.21124" lon="7.5175">
        <ele>1035.48</ele>
        <time>2020-01-27T13:36:54Z</time>
      </trkpt>
      <trkpt lat="44.21122" lon="7.51751">
        <ele>1030.67</ele>
        <time>2020-01-27T13:37:23Z</time>
      </trkpt>
      <trkpt lat="44.21125" lon="7.51755">
        <ele>1032.11</ele>
        <time>2020-01-27T13:37:44Z</time>
      </trkpt>
      <trkpt lat="44.21127" lon="7.51755">
        <ele>1032.59</ele>
        <time>2020-01-27T13:37:46Z</time>
      </trkpt>
    </trkseg>
  </trk>
</gpx>